<?xml version='1.0' encoding='UTF-8'?><gpx version="1.1" creator="JPX - https://github.com/jenetics/jpx" xmlns="http://www.topografix.com/GPX/1/1"><trk><trkseg><trkpt lat="44.336831542995135" lon="7.492893830993625"><ele>633.0</ele><time>2026-04-08T17:06:15Z</time></trkpt><trkpt lat="44.336905056059656" lon="7.492904564880141"><ele>633.0</ele><time>2026-04-08T17:06:55Z</time></trkpt><trkpt lat="44.33701564538108" lon="7.492917561777367"><ele>633.0</ele><time>2026-04-08T17:06:57Z</time></trkpt><trkpt lat="44.33712198906449" lon="7.492925312245039"><ele>633.0</ele><time>2026-04-08T17:06:59Z</time></trkpt><trkpt lat="44.33717121530389" lon="7.493056454998339"><ele>633.0</ele><time>2026-04-08T17:07:02Z</time></trkpt><trkpt lat="44.33715377107757" lon="7.493174639416594"><ele>632.6666666666666</ele><time>2026-04-08T17:07:04Z</time></trkpt><trkpt lat="44.33714692329525" lon="7.493264115273027"><ele>632.3333333333334</ele><time>2026-04-08T17:07:07Z</time></trkpt><trkpt lat="44.33715596800853" lon="7.493379977536644"><ele>632.0</ele><time>2026-04-08T17:07:19Z</time></trkpt><trkpt lat="44.33714613160613" lon="7.493481112216653"><ele>631.6666666666667</ele><time>2026-04-08T17:07:20Z</time></trkpt><trkpt lat="44.33713255704572" lon="7.493594940809193"><ele>631.3333333333334</ele><time>2026-04-08T17:07:21Z</time></trkpt><trkpt lat="44.337121162347984" lon="7.493694600593805"><ele>631.0</ele><time>2026-04-08T17:07:22Z</time></trkpt><trkpt lat="44.337122817258816" lon="7.493801414000726"><ele>631.0</ele><time>2026-04-08T17:07:23Z</time></trkpt><trkpt lat="44.33707586185411" lon="7.493920260531507"><ele>631.0</ele><time>2026-04-08T17:07:25Z</time></trkpt><trkpt lat="44.337033982961636" lon="7.494020288076305"><ele>631.0</ele><time>2026-04-08T17:07:32Z</time></trkpt><trkpt lat="44.33710893334645" lon="7.494118401628095"><ele>631.0</ele><time>2026-04-08T17:07:33Z</time></trkpt><trkpt lat="44.337193460034946" lon="7.494216659888645"><ele>631.0</ele><time>2026-04-08T17:07:35Z</time></trkpt><trkpt lat="44.337252238702014" lon="7.494252530052486"><ele>631.0</ele><time>2026-04-08T17:07:36Z</time></trkpt><trkpt lat="44.33731032942022" lon="7.494331305439978"><ele>631.0</ele><time>2026-04-08T17:07:37Z</time></trkpt><trkpt lat="44.337378827549784" lon="7.494414823966713"><ele>631.0</ele><time>2026-04-08T17:07:38Z</time></trkpt><trkpt lat="44.337473543988125" lon="7.494503007326397"><ele>631.0</ele><time>2026-04-08T17:07:39Z</time></trkpt><trkpt lat="44.33753092018877" lon="7.494568427370709"><ele>631.0</ele><time>2026-04-08T17:07:40Z</time></trkpt><trkpt lat="44.33761851847508" lon="7.494664286906206"><ele>630.6</ele><time>2026-04-08T17:07:48Z</time></trkpt><trkpt lat="44.33768544652892" lon="7.494759554492045"><ele>630.2</ele><time>2026-04-08T17:07:49Z</time></trkpt><trkpt lat="44.33772790515712" lon="7.494859811223352"><ele>629.8</ele><time>2026-04-08T17:07:50Z</time></trkpt><trkpt lat="44.33773683875152" lon="7.494954000914536"><ele>629.4</ele><time>2026-04-08T17:07:51Z</time></trkpt><trkpt lat="44.337708263248444" lon="7.4950618941118"><ele>629.0</ele><time>2026-04-08T17:07:52Z</time></trkpt><trkpt lat="44.337640013700536" lon="7.4952017240910545"><ele>629.0</ele><time>2026-04-08T17:07:53Z</time></trkpt><trkpt lat="44.33753347108095" lon="7.495380103269691"><ele>629.0</ele><time>2026-04-08T17:07:54Z</time></trkpt><trkpt lat="44.337403187948" lon="7.495607423623412"><ele>629.0</ele><time>2026-04-08T17:07:55Z</time></trkpt><trkpt lat="44.337271895113055" lon="7.4958471708033985"><ele>628.75</ele><time>2026-04-08T17:07:56Z</time></trkpt><trkpt lat="44.337174015792165" lon="7.496017895342283"><ele>628.5</ele><time>2026-04-08T17:07:57Z</time></trkpt><trkpt lat="44.33708528609962" lon="7.496132568984944"><ele>628.25</ele><time>2026-04-08T17:07:58Z</time></trkpt><trkpt lat="44.336991249185054" lon="7.496205884014826"><ele>628.0</ele><time>2026-04-08T17:07:59Z</time></trkpt><trkpt lat="44.33687567214089" lon="7.496239834230874"><ele>628.0</ele><time>2026-04-08T17:08:00Z</time></trkpt><trkpt lat="44.33672098311834" lon="7.496247594295984"><ele>628.0</ele><time>2026-04-08T17:08:01Z</time></trkpt><trkpt lat="44.3365346033803" lon="7.496234530328273"><ele>628.0</ele><time>2026-04-08T17:08:02Z</time></trkpt><trkpt lat="44.33630719058208" lon="7.496206333815823"><ele>627.5</ele><time>2026-04-08T17:08:03Z</time></trkpt><trkpt lat="44.33605141432021" lon="7.496178250157336"><ele>627.0</ele><time>2026-04-08T17:08:04Z</time></trkpt><trkpt lat="44.33580483083632" lon="7.496164704514842"><ele>627.0</ele><time>2026-04-08T17:08:05Z</time></trkpt><trkpt lat="44.335612713554056" lon="7.496152643970685"><ele>627.0</ele><time>2026-04-08T17:08:06Z</time></trkpt><trkpt lat="44.33545198196963" lon="7.49613785072208"><ele>627.0</ele><time>2026-04-08T17:08:07Z</time></trkpt><trkpt lat="44.335300499642564" lon="7.496130384100925"><ele>627.25</ele><time>2026-04-08T17:08:08Z</time></trkpt><trkpt lat="44.33515889892079" lon="7.496120828031098"><ele>627.5</ele><time>2026-04-08T17:08:09Z</time></trkpt><trkpt lat="44.3350268239985" lon="7.496109224508045"><ele>627.75</ele><time>2026-04-08T17:08:10Z</time></trkpt><trkpt lat="44.33489020442828" lon="7.496098151505242"><ele>628.0</ele><time>2026-04-08T17:08:11Z</time></trkpt><trkpt lat="44.33471401862237" lon="7.496093411265436"><ele>628.3333333333334</ele><time>2026-04-08T17:08:12Z</time></trkpt><trkpt lat="44.3345307287511" lon="7.496083425750526"><ele>628.6666666666666</ele><time>2026-04-08T17:08:13Z</time></trkpt><trkpt lat="44.3343741088174" lon="7.496071722690817"><ele>629.0</ele><time>2026-04-08T17:08:14Z</time></trkpt><trkpt lat="44.3342257411603" lon="7.496058301742216"><ele>629.0</ele><time>2026-04-08T17:08:15Z</time></trkpt><trkpt lat="44.33407869683678" lon="7.496045599197565"><ele>629.0</ele><time>2026-04-08T17:08:16Z</time></trkpt><trkpt lat="44.33392980250491" lon="7.496034024358505"><ele>629.0</ele><time>2026-04-08T17:08:17Z</time></trkpt><trkpt lat="44.33378071511878" lon="7.496026489810245"><ele>629.0</ele><time>2026-04-08T17:08:18Z</time></trkpt><trkpt lat="44.33363263836813" lon="7.496032237139585"><ele>628.3333333333333</ele><time>2026-04-08T17:08:19Z</time></trkpt><trkpt lat="44.33348283496866" lon="7.496075022039049"><ele>627.6666666666666</ele><time>2026-04-08T17:08:20Z</time></trkpt><trkpt lat="44.33332299889566" lon="7.496146975896368"><ele>627.0</ele><time>2026-04-08T17:08:21Z</time></trkpt><trkpt lat="44.33315106054511" lon="7.496242318567008"><ele>627.0</ele><time>2026-04-08T17:08:22Z</time></trkpt><trkpt lat="44.33298683227263" lon="7.496322724751726"><ele>627.0</ele><time>2026-04-08T17:08:23Z</time></trkpt><trkpt lat="44.332843986566864" lon="7.496376193997782"><ele>627.0</ele><time>2026-04-08T17:08:24Z</time></trkpt><trkpt lat="44.33272971116252" lon="7.496422887832328"><ele>627.0</ele><time>2026-04-08T17:08:25Z</time></trkpt><trkpt lat="44.33264911721688" lon="7.496454078299253"><ele>627.0</ele><time>2026-04-08T17:08:26Z</time></trkpt><trkpt lat="44.332527758921636" lon="7.496466277737356"><ele>627.0</ele><time>2026-04-08T17:08:28Z</time></trkpt><trkpt lat="44.33244587736044" lon="7.496449315783363"><ele>627.0</ele><time>2026-04-08T17:08:29Z</time></trkpt><trkpt lat="44.33236780029505" lon="7.4964294356458705"><ele>627.0</ele><time>2026-04-08T17:08:30Z</time></trkpt><trkpt lat="44.33230074362343" lon="7.496461294786958"><ele>627.0</ele><time>2026-04-08T17:08:31Z</time></trkpt><trkpt lat="44.33224766869421" lon="7.496532820153055"><ele>627.0</ele><time>2026-04-08T17:08:32Z</time></trkpt><trkpt lat="44.33222565223109" lon="7.496636403308572"><ele>627.0</ele><time>2026-04-08T17:08:33Z</time></trkpt><trkpt lat="44.33223622896208" lon="7.496748777109316"><ele>627.0</ele><time>2026-04-08T17:08:34Z</time></trkpt><trkpt lat="44.33227499456947" lon="7.496867165926279"><ele>627.0</ele><time>2026-04-08T17:08:35Z</time></trkpt><trkpt lat="44.33237117994087" lon="7.496982266695253"><ele>627.0</ele><time>2026-04-08T17:08:36Z</time></trkpt><trkpt lat="44.332402322970246" lon="7.497237239421359"><ele>626.25</ele><time>2026-04-08T17:08:37Z</time></trkpt><trkpt lat="44.332430249781964" lon="7.497480618061623"><ele>625.5</ele><time>2026-04-08T17:08:38Z</time></trkpt><trkpt lat="44.33245314155303" lon="7.497676552728134"><ele>624.75</ele><time>2026-04-08T17:08:39Z</time></trkpt><trkpt lat="44.33246363877023" lon="7.497826188423871"><ele>624.0</ele><time>2026-04-08T17:08:40Z</time></trkpt><trkpt lat="44.33248591628535" lon="7.497948816164023"><ele>622.75</ele><time>2026-04-08T17:08:41Z</time></trkpt><trkpt lat="44.332550039538475" lon="7.498067012299441"><ele>621.5</ele><time>2026-04-08T17:08:42Z</time></trkpt><trkpt lat="44.332654838039595" lon="7.498189140723775"><ele>620.25</ele><time>2026-04-08T17:08:43Z</time></trkpt><trkpt lat="44.33277228598325" lon="7.498352448605049"><ele>619.0</ele><time>2026-04-08T17:08:44Z</time></trkpt><trkpt lat="44.33287677677338" lon="7.498586518766043"><ele>618.3333333333334</ele><time>2026-04-08T17:08:45Z</time></trkpt><trkpt lat="44.33299398432082" lon="7.498870472015185"><ele>617.6666666666666</ele><time>2026-04-08T17:08:46Z</time></trkpt><trkpt lat="44.333093137397626" lon="7.499103282329844"><ele>617.0</ele><time>2026-04-08T17:08:47Z</time></trkpt><trkpt lat="44.33316074645677" lon="7.499255550972036"><ele>617.4</ele><time>2026-04-08T17:08:48Z</time></trkpt><trkpt lat="44.33320511512217" lon="7.499357884714338"><ele>617.8000000000001</ele><time>2026-04-08T17:08:49Z</time></trkpt><trkpt lat="44.33324270099071" lon="7.4994454246443105"><ele>618.2</ele><time>2026-04-08T17:08:50Z</time></trkpt><trkpt lat="44.333282929584385" lon="7.499543022290231"><ele>618.6</ele><time>2026-04-08T17:08:51Z</time></trkpt><trkpt lat="44.3333409062049" lon="7.499674089443891"><ele>619.0</ele><time>2026-04-08T17:08:52Z</time></trkpt><trkpt lat="44.333430409514875" lon="7.499853926334626"><ele>619.0</ele><time>2026-04-08T17:08:53Z</time></trkpt><trkpt lat="44.333540001471704" lon="7.500099944353583"><ele>619.0</ele><time>2026-04-08T17:08:54Z</time></trkpt><trkpt lat="44.33367676694364" lon="7.500405920985286"><ele>620.0</ele><time>2026-04-08T17:08:55Z</time></trkpt><trkpt lat="44.333815920934114" lon="7.500707101101784"><ele>621.0</ele><time>2026-04-08T17:08:56Z</time></trkpt><trkpt lat="44.333945863420595" lon="7.500977385656349"><ele>621.0</ele><time>2026-04-08T17:08:57Z</time></trkpt><trkpt lat="44.33404873961342" lon="7.501216669041412"><ele>621.0</ele><time>2026-04-08T17:08:58Z</time></trkpt><trkpt lat="44.33413606305039" lon="7.501435762047439"><ele>621.0</ele><time>2026-04-08T17:08:59Z</time></trkpt><trkpt lat="44.334207262508514" lon="7.501634816483987"><ele>619.75</ele><time>2026-04-08T17:09:00Z</time></trkpt><trkpt lat="44.33426351512097" lon="7.501821229213854"><ele>618.5</ele><time>2026-04-08T17:09:01Z</time></trkpt><trkpt lat="44.334295317911995" lon="7.501984950563306"><ele>617.25</ele><time>2026-04-08T17:09:02Z</time></trkpt><trkpt lat="44.33431848785861" lon="7.502156050645128"><ele>616.0</ele><time>2026-04-08T17:09:03Z</time></trkpt><trkpt lat="44.33433188742234" lon="7.502359978814219"><ele>615.0</ele><time>2026-04-08T17:09:04Z</time></trkpt><trkpt lat="44.33434388745876" lon="7.502610612485876"><ele>614.0</ele><time>2026-04-08T17:09:05Z</time></trkpt><trkpt lat="44.334347787429465" lon="7.502895895060065"><ele>613.0</ele><time>2026-04-08T17:09:06Z</time></trkpt><trkpt lat="44.33433584892379" lon="7.503206640460709"><ele>612.3333333333334</ele><time>2026-04-08T17:09:07Z</time></trkpt><trkpt lat="44.334303755784305" lon="7.503528300454448"><ele>611.6666666666666</ele><time>2026-04-08T17:09:08Z</time></trkpt><trkpt lat="44.33425960387629" lon="7.5038105146470695"><ele>611.0</ele><time>2026-04-08T17:09:09Z</time></trkpt><trkpt lat="44.33420020601785" lon="7.504080045306046"><ele>610.6666666666666</ele><time>2026-04-08T17:09:10Z</time></trkpt><trkpt lat="44.33412111514477" lon="7.504359456994483"><ele>610.3333333333334</ele><time>2026-04-08T17:09:11Z</time></trkpt><trkpt lat="44.33401376036804" lon="7.504646815114375"><ele>610.0</ele><time>2026-04-08T17:09:12Z</time></trkpt><trkpt lat="44.33388465044608" lon="7.504948604038842"><ele>608.0</ele><time>2026-04-08T17:09:13Z</time></trkpt><trkpt lat="44.333745041782805" lon="7.505269473345133"><ele>606.0</ele><time>2026-04-08T17:09:14Z</time></trkpt><trkpt lat="44.33361814768451" lon="7.505556445295574"><ele>605.3333333333334</ele><time>2026-04-08T17:09:15Z</time></trkpt><trkpt lat="44.33350225215042" lon="7.5058135448152115"><ele>604.6666666666667</ele><time>2026-04-08T17:09:16Z</time></trkpt><trkpt lat="44.3334018099335" lon="7.506053819089337"><ele>604.0</ele><time>2026-04-08T17:09:17Z</time></trkpt><trkpt lat="44.33330631740488" lon="7.506285057081996"><ele>603.0</ele><time>2026-04-08T17:09:18Z</time></trkpt><trkpt lat="44.33319995596608" lon="7.506536166421444"><ele>602.0</ele><time>2026-04-08T17:09:19Z</time></trkpt><trkpt lat="44.333083243483685" lon="7.506808152457624"><ele>601.0</ele><time>2026-04-08T17:09:20Z</time></trkpt><trkpt lat="44.33295848817744" lon="7.507095448111479"><ele>598.5</ele><time>2026-04-08T17:09:21Z</time></trkpt><trkpt lat="44.33282251989353" lon="7.5074178537497875"><ele>596.0</ele><time>2026-04-08T17:09:22Z</time></trkpt><trkpt lat="44.33268234656337" lon="7.50775844643805"><ele>596.5</ele><time>2026-04-08T17:09:23Z</time></trkpt><trkpt lat="44.332541992486235" lon="7.508098670892643"><ele>597.0</ele><time>2026-04-08T17:09:24Z</time></trkpt><trkpt lat="44.33240072284589" lon="7.508438117981033"><ele>596.5</ele><time>2026-04-08T17:09:25Z</time></trkpt><trkpt lat="44.3322592849892" lon="7.508771638151098"><ele>596.0</ele><time>2026-04-08T17:09:26Z</time></trkpt><trkpt lat="44.3321166705622" lon="7.5091003324799255"><ele>597.0</ele><time>2026-04-08T17:09:27Z</time></trkpt><trkpt lat="44.33197302125469" lon="7.509420889359567"><ele>598.0</ele><time>2026-04-08T17:09:28Z</time></trkpt><trkpt lat="44.33183203845129" lon="7.509759748932471"><ele>598.0</ele><time>2026-04-08T17:09:29Z</time></trkpt><trkpt lat="44.331685992610566" lon="7.5101171368728075"><ele>598.0</ele><time>2026-04-08T17:09:30Z</time></trkpt><trkpt lat="44.331540970910694" lon="7.510484175062875"><ele>598.5</ele><time>2026-04-08T17:09:31Z</time></trkpt><trkpt lat="44.33140591018953" lon="7.510819774012669"><ele>599.0</ele><time>2026-04-08T17:09:32Z</time></trkpt><trkpt lat="44.331280191925956" lon="7.511116415329049"><ele>598.5</ele><time>2026-04-08T17:09:33Z</time></trkpt><trkpt lat="44.331166792490265" lon="7.511399072116733"><ele>598.0</ele><time>2026-04-08T17:09:34Z</time></trkpt><trkpt lat="44.331064305903375" lon="7.511699868651652"><ele>598.0</ele><time>2026-04-08T17:09:35Z</time></trkpt><trkpt lat="44.330981915105944" lon="7.5120194417169115"><ele>598.0</ele><time>2026-04-08T17:09:36Z</time></trkpt><trkpt lat="44.330914360361284" lon="7.512344854877853"><ele>598.0</ele><time>2026-04-08T17:09:37Z</time></trkpt><trkpt lat="44.33087608287677" lon="7.512671408157358"><ele>598.0</ele><time>2026-04-08T17:09:38Z</time></trkpt><trkpt lat="44.330845700889206" lon="7.513002398175055"><ele>598.0</ele><time>2026-04-08T17:09:39Z</time></trkpt><trkpt lat="44.33082902578327" lon="7.513324120511102"><ele>598.0</ele><time>2026-04-08T17:09:40Z</time></trkpt><trkpt lat="44.33082511092314" lon="7.513622686692714"><ele>598.0</ele><time>2026-04-08T17:09:41Z</time></trkpt><trkpt lat="44.33083587069624" lon="7.513921166109279"><ele>598.3333333333334</ele><time>2026-04-08T17:09:42Z</time></trkpt><trkpt lat="44.33086373925986" lon="7.51421869899467"><ele>598.6666666666666</ele><time>2026-04-08T17:09:43Z</time></trkpt><trkpt lat="44.33090318859795" lon="7.5145196266798715"><ele>599.0</ele><time>2026-04-08T17:09:44Z</time></trkpt><trkpt lat="44.330956409375304" lon="7.514812935170104"><ele>599.0</ele><time>2026-04-08T17:09:45Z</time></trkpt><trkpt lat="44.331019893569746" lon="7.515103732431124"><ele>599.0</ele><time>2026-04-08T17:09:46Z</time></trkpt><trkpt lat="44.331088961472844" lon="7.515376409082676"><ele>599.0</ele><time>2026-04-08T17:09:47Z</time></trkpt><trkpt lat="44.331167771652254" lon="7.515618230359741"><ele>599.0</ele><time>2026-04-08T17:09:48Z</time></trkpt><trkpt lat="44.3312327446541" lon="7.5158827907260655"><ele>599.0</ele><time>2026-04-08T17:09:49Z</time></trkpt><trkpt lat="44.331298792913806" lon="7.51606963889573"><ele>599.0</ele><time>2026-04-08T17:09:50Z</time></trkpt><trkpt lat="44.331348792094715" lon="7.516216399357181"><ele>599.0</ele><time>2026-04-08T17:09:51Z</time></trkpt><trkpt lat="44.33138462201419" lon="7.516318999653058"><ele>599.0</ele><time>2026-04-08T17:09:52Z</time></trkpt><trkpt lat="44.331406383567185" lon="7.516433415720802"><ele>599.0</ele><time>2026-04-08T17:09:53Z</time></trkpt><trkpt lat="44.3314169224712" lon="7.516561541754895"><ele>599.0</ele><time>2026-04-08T17:09:54Z</time></trkpt><trkpt lat="44.331444732884876" lon="7.5166766511892895"><ele>599.0</ele><time>2026-04-08T17:09:55Z</time></trkpt><trkpt lat="44.3315046945871" lon="7.516783915468838"><ele>599.0</ele><time>2026-04-08T17:09:56Z</time></trkpt><trkpt lat="44.33159166002128" lon="7.516880571559695"><ele>599.0</ele><time>2026-04-08T17:09:57Z</time></trkpt><trkpt lat="44.33167325404928" lon="7.517032105533513"><ele>599.0</ele><time>2026-04-08T17:09:58Z</time></trkpt><trkpt lat="44.33170904400427" lon="7.517294202435464"><ele>599.0</ele><time>2026-04-08T17:09:59Z</time></trkpt><trkpt lat="44.33186007146204" lon="7.517530883498982"><ele>599.0</ele><time>2026-04-08T17:10:00Z</time></trkpt><trkpt lat="44.331973464322374" lon="7.517837915033809"><ele>599.0</ele><time>2026-04-08T17:10:01Z</time></trkpt><trkpt lat="44.332083857259185" lon="7.518129081047386"><ele>599.0</ele><time>2026-04-08T17:10:02Z</time></trkpt><trkpt lat="44.332183270914115" lon="7.5183802354022395"><ele>599.0</ele><time>2026-04-08T17:10:03Z</time></trkpt><trkpt lat="44.33227571565117" lon="7.51860769441999"><ele>599.0</ele><time>2026-04-08T17:10:04Z</time></trkpt><trkpt lat="44.33236288189176" lon="7.518822625631403"><ele>598.6666666666666</ele><time>2026-04-08T17:10:05Z</time></trkpt><trkpt lat="44.33244612405867" lon="7.519022511074382"><ele>598.3333333333334</ele><time>2026-04-08T17:10:06Z</time></trkpt><trkpt lat="44.332524777370296" lon="7.519207539372765"><ele>598.0</ele><time>2026-04-08T17:10:07Z</time></trkpt><trkpt lat="44.332600211855464" lon="7.519381687938582"><ele>598.0</ele><time>2026-04-08T17:10:08Z</time></trkpt><trkpt lat="44.332673155239185" lon="7.5195571869543265"><ele>598.0</ele><time>2026-04-08T17:10:09Z</time></trkpt><trkpt lat="44.33275370246528" lon="7.519735198962505"><ele>598.0</ele><time>2026-04-08T17:10:10Z</time></trkpt><trkpt lat="44.332832493975836" lon="7.519921572620418"><ele>597.6666666666667</ele><time>2026-04-08T17:10:11Z</time></trkpt><trkpt lat="44.3329172720892" lon="7.520119524991801"><ele>597.3333333333334</ele><time>2026-04-08T17:10:12Z</time></trkpt><trkpt lat="44.33300097939177" lon="7.520304800267008"><ele>597.0</ele><time>2026-04-08T17:10:13Z</time></trkpt><trkpt lat="44.333079010285225" lon="7.5204937957280045"><ele>597.0</ele><time>2026-04-08T17:10:14Z</time></trkpt><trkpt lat="44.33315766117682" lon="7.520677547781518"><ele>597.0</ele><time>2026-04-08T17:10:15Z</time></trkpt><trkpt lat="44.333238906096554" lon="7.520856335006922"><ele>597.0</ele><time>2026-04-08T17:10:16Z</time></trkpt><trkpt lat="44.33331856992172" lon="7.521039567448747"><ele>597.0</ele><time>2026-04-08T17:10:17Z</time></trkpt><trkpt lat="44.33339676275679" lon="7.521224912042305"><ele>597.0</ele><time>2026-04-08T17:10:18Z</time></trkpt><trkpt lat="44.33348202992187" lon="7.521424488353509"><ele>597.0</ele><time>2026-04-08T17:10:19Z</time></trkpt><trkpt lat="44.33357505878861" lon="7.521624776239741"><ele>597.6666666666666</ele><time>2026-04-08T17:10:20Z</time></trkpt><trkpt lat="44.33366943962969" lon="7.521818219402943"><ele>598.3333333333333</ele><time>2026-04-08T17:10:21Z</time></trkpt><trkpt lat="44.33374699259153" lon="7.522034701837471"><ele>599.0</ele><time>2026-04-08T17:10:22Z</time></trkpt><trkpt lat="44.333821688384944" lon="7.522233708909905"><ele>598.5</ele><time>2026-04-08T17:10:23Z</time></trkpt><trkpt lat="44.333910223278295" lon="7.522384697660288"><ele>598.0</ele><time>2026-04-08T17:10:24Z</time></trkpt><trkpt lat="44.33398215489267" lon="7.522550868336909"><ele>597.5</ele><time>2026-04-08T17:10:25Z</time></trkpt><trkpt lat="44.33406009281466" lon="7.52274113896287"><ele>597.0</ele><time>2026-04-08T17:10:26Z</time></trkpt><trkpt lat="44.33416073258199" lon="7.522974356207688"><ele>597.0</ele><time>2026-04-08T17:10:27Z</time></trkpt><trkpt lat="44.33427646984817" lon="7.523207028362103"><ele>597.0</ele><time>2026-04-08T17:10:28Z</time></trkpt><trkpt lat="44.33437231235057" lon="7.523435756822505"><ele>597.0</ele><time>2026-04-08T17:10:29Z</time></trkpt><trkpt lat="44.33446336801806" lon="7.523672202336553"><ele>597.0</ele><time>2026-04-08T17:10:30Z</time></trkpt><trkpt lat="44.334568413056715" lon="7.52392719011372"><ele>597.0</ele><time>2026-04-08T17:10:31Z</time></trkpt><trkpt lat="44.33470163410533" lon="7.524243678539887"><ele>596.5</ele><time>2026-04-08T17:10:32Z</time></trkpt><trkpt lat="44.334835285585214" lon="7.524591738625912"><ele>596.0</ele><time>2026-04-08T17:10:33Z</time></trkpt><trkpt lat="44.334964154914765" lon="7.524924266829987"><ele>596.0</ele><time>2026-04-08T17:10:34Z</time></trkpt><trkpt lat="44.3350942877024" lon="7.525251976282544"><ele>596.0</ele><time>2026-04-08T17:10:35Z</time></trkpt><trkpt lat="44.335213085092846" lon="7.525554391699857"><ele>595.5</ele><time>2026-04-08T17:10:36Z</time></trkpt><trkpt lat="44.335334711061286" lon="7.525851349814648"><ele>595.0</ele><time>2026-04-08T17:10:37Z</time></trkpt><trkpt lat="44.33546164788244" lon="7.526161226670083"><ele>595.0</ele><time>2026-04-08T17:10:38Z</time></trkpt><trkpt lat="44.335586835046925" lon="7.52647812940759"><ele>595.0</ele><time>2026-04-08T17:10:39Z</time></trkpt><trkpt lat="44.33570365259842" lon="7.526783191796515"><ele>595.0</ele><time>2026-04-08T17:10:40Z</time></trkpt><trkpt lat="44.33582025021565" lon="7.527078571322235"><ele>595.0</ele><time>2026-04-08T17:10:41Z</time></trkpt><trkpt lat="44.33595005880678" lon="7.527388006930014"><ele>595.0</ele><time>2026-04-08T17:10:42Z</time></trkpt><trkpt lat="44.33606709161223" lon="7.527654749053083"><ele>595.0</ele><time>2026-04-08T17:10:43Z</time></trkpt><trkpt lat="44.33616267242288" lon="7.527906849225763"><ele>595.0</ele><time>2026-04-08T17:10:44Z</time></trkpt><trkpt lat="44.336252635288695" lon="7.528155931383074"><ele>594.6666666666667</ele><time>2026-04-08T17:10:45Z</time></trkpt><trkpt lat="44.33633899991806" lon="7.528410787800193"><ele>594.3333333333334</ele><time>2026-04-08T17:10:46Z</time></trkpt><trkpt lat="44.33641826978003" lon="7.528677269396754"><ele>594.0</ele><time>2026-04-08T17:10:47Z</time></trkpt><trkpt lat="44.33648588919134" lon="7.528949985328748"><ele>594.0</ele><time>2026-04-08T17:10:48Z</time></trkpt><trkpt lat="44.3365481546713" lon="7.529230404370971"><ele>594.0</ele><time>2026-04-08T17:10:49Z</time></trkpt><trkpt lat="44.33660012908243" lon="7.529522266777355"><ele>594.0</ele><time>2026-04-08T17:10:50Z</time></trkpt><trkpt lat="44.336642208457924" lon="7.529825395906631"><ele>593.6666666666666</ele><time>2026-04-08T17:10:51Z</time></trkpt><trkpt lat="44.33667145048334" lon="7.530137438860306"><ele>593.3333333333333</ele><time>2026-04-08T17:10:52Z</time></trkpt><trkpt lat="44.33669643986852" lon="7.5304389240465"><ele>593.0</ele><time>2026-04-08T17:10:53Z</time></trkpt><trkpt lat="44.336717078744456" lon="7.530730035223561"><ele>592.3333333333333</ele><time>2026-04-08T17:10:54Z</time></trkpt><trkpt lat="44.33672701309101" lon="7.531033673048474"><ele>591.6666666666666</ele><time>2026-04-08T17:10:55Z</time></trkpt><trkpt lat="44.336723432613525" lon="7.531350633240707"><ele>591.0</ele><time>2026-04-08T17:10:56Z</time></trkpt><trkpt lat="44.336715836228485" lon="7.531719398684309"><ele>590.0</ele><time>2026-04-08T17:10:57Z</time></trkpt><trkpt lat="44.33669477019361" lon="7.532101938831884"><ele>589.0</ele><time>2026-04-08T17:10:58Z</time></trkpt><trkpt lat="44.33668414588826" lon="7.532502398989543"><ele>589.0</ele><time>2026-04-08T17:10:59Z</time></trkpt><trkpt lat="44.33667007472095" lon="7.53285169820028"><ele>589.0</ele><time>2026-04-08T17:11:00Z</time></trkpt><trkpt lat="44.3366563530881" lon="7.533164709224165"><ele>589.0</ele><time>2026-04-08T17:11:01Z</time></trkpt><trkpt lat="44.33664351561402" lon="7.533456878126038"><ele>589.0</ele><time>2026-04-08T17:11:02Z</time></trkpt><trkpt lat="44.336634703691665" lon="7.533731550540868"><ele>589.0</ele><time>2026-04-08T17:11:03Z</time></trkpt><trkpt lat="44.336624604502845" lon="7.534008366700037"><ele>589.0</ele><time>2026-04-08T17:11:04Z</time></trkpt><trkpt lat="44.33661166280335" lon="7.534285322527458"><ele>589.0</ele><time>2026-04-08T17:11:05Z</time></trkpt><trkpt lat="44.33659904785243" lon="7.534553872508428"><ele>589.0</ele><time>2026-04-08T17:11:06Z</time></trkpt><trkpt lat="44.33658968743138" lon="7.534825820460741"><ele>588.3333333333334</ele><time>2026-04-08T17:11:07Z</time></trkpt><trkpt lat="44.336580002025556" lon="7.5351153232147325"><ele>587.6666666666666</ele><time>2026-04-08T17:11:08Z</time></trkpt><trkpt lat="44.3365654464189" lon="7.5354296419784985"><ele>587.0</ele><time>2026-04-08T17:11:09Z</time></trkpt><trkpt lat="44.33654655106182" lon="7.535782084867446"><ele>586.0</ele><time>2026-04-08T17:11:10Z</time></trkpt><trkpt lat="44.33653299439953" lon="7.5361709790591895"><ele>585.0</ele><time>2026-04-08T17:11:11Z</time></trkpt><trkpt lat="44.33651876848732" lon="7.536560914992102"><ele>584.5</ele><time>2026-04-08T17:11:12Z</time></trkpt><trkpt lat="44.33650463775595" lon="7.536932107142381"><ele>584.0</ele><time>2026-04-08T17:11:13Z</time></trkpt><trkpt lat="44.33649266234857" lon="7.537277046877125"><ele>584.0</ele><time>2026-04-08T17:11:14Z</time></trkpt><trkpt lat="44.33648110191502" lon="7.537592606857827"><ele>584.0</ele><time>2026-04-08T17:11:15Z</time></trkpt><trkpt lat="44.336469511340134" lon="7.537893060474695"><ele>584.0</ele><time>2026-04-08T17:11:16Z</time></trkpt><trkpt lat="44.336459754175145" lon="7.538202952496427"><ele>584.0</ele><time>2026-04-08T17:11:17Z</time></trkpt><trkpt lat="44.33645061298796" lon="7.538513191870219"><ele>584.0</ele><time>2026-04-08T17:11:18Z</time></trkpt><trkpt lat="44.33644497531463" lon="7.538799240785894"><ele>584.0</ele><time>2026-04-08T17:11:19Z</time></trkpt><trkpt lat="44.3364515230226" lon="7.539080376932415"><ele>583.6666666666666</ele><time>2026-04-08T17:11:20Z</time></trkpt><trkpt lat="44.336470176107774" lon="7.539374288551058"><ele>583.3333333333334</ele><time>2026-04-08T17:11:21Z</time></trkpt><trkpt lat="44.33649871887123" lon="7.539687672802265"><ele>583.0</ele><time>2026-04-08T17:11:22Z</time></trkpt><trkpt lat="44.33653382712071" lon="7.540000893954393"><ele>582.6666666666667</ele><time>2026-04-08T17:11:23Z</time></trkpt><trkpt lat="44.3365753175253" lon="7.540289510657257"><ele>582.3333333333334</ele><time>2026-04-08T17:11:24Z</time></trkpt><trkpt lat="44.33662892359588" lon="7.540577093866471"><ele>582.0</ele><time>2026-04-08T17:11:25Z</time></trkpt><trkpt lat="44.33669828637453" lon="7.540870026131564"><ele>582.0</ele><time>2026-04-08T17:11:26Z</time></trkpt><trkpt lat="44.33678072034704" lon="7.5411584859514305"><ele>582.0</ele><time>2026-04-08T17:11:27Z</time></trkpt><trkpt lat="44.33687046716948" lon="7.541448454290737"><ele>582.0</ele><time>2026-04-08T17:11:28Z</time></trkpt><trkpt lat="44.336962802543546" lon="7.541730362422171"><ele>582.0</ele><time>2026-04-08T17:11:29Z</time></trkpt><trkpt lat="44.33706331151786" lon="7.54199985278859"><ele>582.0</ele><time>2026-04-08T17:11:30Z</time></trkpt><trkpt lat="44.337175628906955" lon="7.542273268231856"><ele>582.0</ele><time>2026-04-08T17:11:31Z</time></trkpt><trkpt lat="44.33728827355099" lon="7.542515421901032"><ele>581.6666666666666</ele><time>2026-04-08T17:11:32Z</time></trkpt><trkpt lat="44.337388394102554" lon="7.542735402859657"><ele>581.3333333333333</ele><time>2026-04-08T17:11:33Z</time></trkpt><trkpt lat="44.33748057064281" lon="7.542948859930778"><ele>581.0</ele><time>2026-04-08T17:11:34Z</time></trkpt><trkpt lat="44.337569636831084" lon="7.543147171390317"><ele>581.0</ele><time>2026-04-08T17:11:35Z</time></trkpt><trkpt lat="44.33764044223349" lon="7.543314277286414"><ele>581.0</ele><time>2026-04-08T17:11:36Z</time></trkpt><trkpt lat="44.337693021357644" lon="7.543454186010986"><ele>581.0</ele><time>2026-04-08T17:11:37Z</time></trkpt><trkpt lat="44.337723997467705" lon="7.543579042725256"><ele>581.0</ele><time>2026-04-08T17:11:38Z</time></trkpt><trkpt lat="44.337728880680636" lon="7.543701284111746"><ele>581.0</ele><time>2026-04-08T17:11:39Z</time></trkpt><trkpt lat="44.33772518939404" lon="7.543829564277136"><ele>581.0</ele><time>2026-04-08T17:11:40Z</time></trkpt><trkpt lat="44.337756190226614" lon="7.543936888780845"><ele>581.0</ele><time>2026-04-08T17:11:41Z</time></trkpt><trkpt lat="44.33782072599197" lon="7.544011884204032"><ele>581.0</ele><time>2026-04-08T17:11:42Z</time></trkpt><trkpt lat="44.33790516765747" lon="7.544052070561609"><ele>581.0</ele><time>2026-04-08T17:11:43Z</time></trkpt><trkpt lat="44.33800124422654" lon="7.544052138895784"><ele>581.0</ele><time>2026-04-08T17:11:44Z</time></trkpt><trkpt lat="44.33811371633139" lon="7.544021557998999"><ele>581.6666666666666</ele><time>2026-04-08T17:11:45Z</time></trkpt><trkpt lat="44.33824362956413" lon="7.544022336446597"><ele>582.3333333333334</ele><time>2026-04-08T17:11:46Z</time></trkpt><trkpt lat="44.338404184832875" lon="7.544095908338671"><ele>583.0</ele><time>2026-04-08T17:11:47Z</time></trkpt><trkpt lat="44.338613192269044" lon="7.544217563031631"><ele>583.0</ele><time>2026-04-08T17:11:48Z</time></trkpt><trkpt lat="44.338857240642774" lon="7.544363104991728"><ele>583.0</ele><time>2026-04-08T17:11:49Z</time></trkpt><trkpt lat="44.33911686998432" lon="7.54451773720578"><ele>581.5</ele><time>2026-04-08T17:11:50Z</time></trkpt><trkpt lat="44.339367601572626" lon="7.544665255223051"><ele>580.0</ele><time>2026-04-08T17:11:51Z</time></trkpt><trkpt lat="44.339614172981186" lon="7.544803081488669"><ele>579.0</ele><time>2026-04-08T17:11:52Z</time></trkpt><trkpt lat="44.33985391827599" lon="7.544919156734307"><ele>578.0</ele><time>2026-04-08T17:11:53Z</time></trkpt><trkpt lat="44.3400864372649" lon="7.5450035671049545"><ele>578.0</ele><time>2026-04-08T17:11:54Z</time></trkpt><trkpt lat="44.34033786511534" lon="7.545062871685871"><ele>578.0</ele><time>2026-04-08T17:11:55Z</time></trkpt><trkpt lat="44.3406107372711" lon="7.5451148327979345"><ele>578.0</ele><time>2026-04-08T17:11:56Z</time></trkpt><trkpt lat="44.34089128248381" lon="7.545157362369679"><ele>578.0</ele><time>2026-04-08T17:11:57Z</time></trkpt><trkpt lat="44.34119096586601" lon="7.545190020555248"><ele>577.0</ele><time>2026-04-08T17:11:58Z</time></trkpt><trkpt lat="44.34149184329076" lon="7.545227590017655"><ele>576.0</ele><time>2026-04-08T17:11:59Z</time></trkpt><trkpt lat="44.34179511685085" lon="7.545270012701345"><ele>576.0</ele><time>2026-04-08T17:12:00Z</time></trkpt><trkpt lat="44.34210694802433" lon="7.545318861540159"><ele>576.0</ele><time>2026-04-08T17:12:01Z</time></trkpt><trkpt lat="44.34243437082568" lon="7.545366053114671"><ele>576.0</ele><time>2026-04-08T17:12:02Z</time></trkpt><trkpt lat="44.342760259004585" lon="7.545407981761295"><ele>576.0</ele><time>2026-04-08T17:12:03Z</time></trkpt><trkpt lat="44.34310167066622" lon="7.545458728057064"><ele>575.0</ele><time>2026-04-08T17:12:04Z</time></trkpt><trkpt lat="44.34342619931606" lon="7.54550542247558"><ele>574.0</ele><time>2026-04-08T17:12:05Z</time></trkpt><trkpt lat="44.343743219108326" lon="7.545550298315515"><ele>574.0</ele><time>2026-04-08T17:12:06Z</time></trkpt><trkpt lat="44.34405806559974" lon="7.545592708775187"><ele>574.0</ele><time>2026-04-08T17:12:07Z</time></trkpt><trkpt lat="44.34437340289717" lon="7.545635436748632"><ele>574.0</ele><time>2026-04-08T17:12:08Z</time></trkpt><trkpt lat="44.344685438302534" lon="7.545674842095853"><ele>574.0</ele><time>2026-04-08T17:12:09Z</time></trkpt><trkpt lat="44.34500076108975" lon="7.545716557178579"><ele>573.5</ele><time>2026-04-08T17:12:10Z</time></trkpt><trkpt lat="44.345321154088914" lon="7.545758700687682"><ele>573.0</ele><time>2026-04-08T17:12:11Z</time></trkpt><trkpt lat="44.345646528590464" lon="7.545797557259474"><ele>572.5</ele><time>2026-04-08T17:12:12Z</time></trkpt><trkpt lat="44.34597717722141" lon="7.545839509174136"><ele>572.0</ele><time>2026-04-08T17:12:13Z</time></trkpt><trkpt lat="44.34632380210775" lon="7.545886718252532"><ele>571.5</ele><time>2026-04-08T17:12:14Z</time></trkpt><trkpt lat="44.34666657000958" lon="7.545934036499395"><ele>571.0</ele><time>2026-04-08T17:12:15Z</time></trkpt><trkpt lat="44.347006252144304" lon="7.545979683881011"><ele>571.0</ele><time>2026-04-08T17:12:16Z</time></trkpt><trkpt lat="44.34732448954267" lon="7.546026375997217"><ele>571.0</ele><time>2026-04-08T17:12:17Z</time></trkpt><trkpt lat="44.34763698978735" lon="7.546073917066323"><ele>571.0</ele><time>2026-04-08T17:12:18Z</time></trkpt><trkpt lat="44.34795051309351" lon="7.546119335240173"><ele>571.0</ele><time>2026-04-08T17:12:19Z</time></trkpt><trkpt lat="44.34827519177169" lon="7.546160879231099"><ele>571.0</ele><time>2026-04-08T17:12:20Z</time></trkpt><trkpt lat="44.348611919696665" lon="7.54621064150986"><ele>571.0</ele><time>2026-04-08T17:12:21Z</time></trkpt><trkpt lat="44.34895174635571" lon="7.546269057679706"><ele>571.0</ele><time>2026-04-08T17:12:22Z</time></trkpt><trkpt lat="44.34930243973557" lon="7.546322256321006"><ele>571.0</ele><time>2026-04-08T17:12:23Z</time></trkpt><trkpt lat="44.349655273333866" lon="7.546391650008189"><ele>570.5</ele><time>2026-04-08T17:12:24Z</time></trkpt><trkpt lat="44.350028873570025" lon="7.546483208396392"><ele>570.0</ele><time>2026-04-08T17:12:25Z</time></trkpt><trkpt lat="44.350389421159754" lon="7.546556462176378"><ele>571.0</ele><time>2026-04-08T17:12:26Z</time></trkpt><trkpt lat="44.3507453731181" lon="7.54663931099312"><ele>572.0</ele><time>2026-04-08T17:12:27Z</time></trkpt><trkpt lat="44.351086906543415" lon="7.546725847336121"><ele>571.0</ele><time>2026-04-08T17:12:28Z</time></trkpt><trkpt lat="44.351427716341966" lon="7.546813842371362"><ele>570.0</ele><time>2026-04-08T17:12:29Z</time></trkpt><trkpt lat="44.35176877360556" lon="7.546909896756423"><ele>570.0</ele><time>2026-04-08T17:12:30Z</time></trkpt><trkpt lat="44.35210921555723" lon="7.547006145679456"><ele>570.0</ele><time>2026-04-08T17:12:31Z</time></trkpt><trkpt lat="44.35245222626172" lon="7.547105471525906"><ele>568.5</ele><time>2026-04-08T17:12:32Z</time></trkpt><trkpt lat="44.352797858988595" lon="7.547213105446738"><ele>567.0</ele><time>2026-04-08T17:12:33Z</time></trkpt><trkpt lat="44.353153972039266" lon="7.547324684108809"><ele>567.0</ele><time>2026-04-08T17:12:34Z</time></trkpt><trkpt lat="44.35351904756957" lon="7.547440954986953"><ele>567.0</ele><time>2026-04-08T17:12:35Z</time></trkpt><trkpt lat="44.35387686801201" lon="7.547554672733578"><ele>567.0</ele><time>2026-04-08T17:12:36Z</time></trkpt><trkpt lat="44.354224944649324" lon="7.547664212938544"><ele>567.0</ele><time>2026-04-08T17:12:37Z</time></trkpt><trkpt lat="44.35456660549809" lon="7.5477729645425224"><ele>566.0</ele><time>2026-04-08T17:12:38Z</time></trkpt><trkpt lat="44.35489865743926" lon="7.547880579672491"><ele>565.0</ele><time>2026-04-08T17:12:39Z</time></trkpt><trkpt lat="44.35522194661662" lon="7.5479837507787835"><ele>564.0</ele><time>2026-04-08T17:12:40Z</time></trkpt><trkpt lat="44.35556844818039" lon="7.548094763131821"><ele>563.0</ele><time>2026-04-08T17:12:41Z</time></trkpt><trkpt lat="44.35588160392718" lon="7.548186975427338"><ele>563.0</ele><time>2026-04-08T17:12:42Z</time></trkpt><trkpt lat="44.35617206072209" lon="7.548300905881907"><ele>563.0</ele><time>2026-04-08T17:12:43Z</time></trkpt><trkpt lat="44.35645983624686" lon="7.548395546675559"><ele>563.5</ele><time>2026-04-08T17:12:44Z</time></trkpt><trkpt lat="44.356732779610105" lon="7.548485309656275"><ele>564.0</ele><time>2026-04-08T17:12:45Z</time></trkpt><trkpt lat="44.35732613086025" lon="7.548657872836332"><ele>563.0</ele><time>2026-04-08T17:12:46Z</time></trkpt><trkpt lat="44.35766467686094" lon="7.5487677294188416"><ele>562.0</ele><time>2026-04-08T17:12:47Z</time></trkpt><trkpt lat="44.35800796744617" lon="7.548883341926072"><ele>558.5</ele><time>2026-04-08T17:12:48Z</time></trkpt><trkpt lat="44.35833706751869" lon="7.548991109392853"><ele>555.0</ele><time>2026-04-08T17:12:49Z</time></trkpt><trkpt lat="44.35863651364092" lon="7.549087802808902"><ele>553.5</ele><time>2026-04-08T17:12:50Z</time></trkpt><trkpt lat="44.35891089426104" lon="7.549179215756357"><ele>552.0</ele><time>2026-04-08T17:12:51Z</time></trkpt><trkpt lat="44.3591624723989" lon="7.549268647429161"><ele>552.0</ele><time>2026-04-08T17:12:52Z</time></trkpt><trkpt lat="44.35940257615632" lon="7.54934732336084"><ele>552.0</ele><time>2026-04-08T17:12:53Z</time></trkpt><trkpt lat="44.359637489334375" lon="7.54941347095113"><ele>551.6666666666666</ele><time>2026-04-08T17:12:54Z</time></trkpt><trkpt lat="44.35986037709396" lon="7.549490028556552"><ele>551.3333333333333</ele><time>2026-04-08T17:12:55Z</time></trkpt><trkpt lat="44.36006692110685" lon="7.549563935827843"><ele>551.0</ele><time>2026-04-08T17:12:56Z</time></trkpt><trkpt lat="44.360260195663464" lon="7.549637028074316"><ele>551.6666666666666</ele><time>2026-04-08T17:12:57Z</time></trkpt><trkpt lat="44.360445036482346" lon="7.549704815938327"><ele>552.3333333333334</ele><time>2026-04-08T17:12:58Z</time></trkpt><trkpt lat="44.360626454670076" lon="7.549763620379657"><ele>553.0</ele><time>2026-04-08T17:12:59Z</time></trkpt><trkpt lat="44.36080654115044" lon="7.549827678553693"><ele>551.3333333333334</ele><time>2026-04-08T17:13:00Z</time></trkpt><trkpt lat="44.36097874774187" lon="7.5498845065049585"><ele>549.6666666666666</ele><time>2026-04-08T17:13:01Z</time></trkpt><trkpt lat="44.36115842906454" lon="7.549944311989932"><ele>548.0</ele><time>2026-04-08T17:13:02Z</time></trkpt><trkpt lat="44.36134731719854" lon="7.550002918466563"><ele>548.0</ele><time>2026-04-08T17:13:03Z</time></trkpt><trkpt lat="44.36153391101338" lon="7.5500586583232066"><ele>548.0</ele><time>2026-04-08T17:13:04Z</time></trkpt><trkpt lat="44.3617227561236" lon="7.550121268677315"><ele>548.0</ele><time>2026-04-08T17:13:05Z</time></trkpt><trkpt lat="44.36191711011418" lon="7.550180784369166"><ele>548.0</ele><time>2026-04-08T17:13:06Z</time></trkpt><trkpt lat="44.36212724039416" lon="7.55024243545461"><ele>548.0</ele><time>2026-04-08T17:13:07Z</time></trkpt><trkpt lat="44.362351687257025" lon="7.550319259677756"><ele>548.0</ele><time>2026-04-08T17:13:08Z</time></trkpt><trkpt lat="44.36258535997035" lon="7.550397850723107"><ele>547.0</ele><time>2026-04-08T17:13:09Z</time></trkpt><trkpt lat="44.36284362191106" lon="7.550482568668187"><ele>546.0</ele><time>2026-04-08T17:13:10Z</time></trkpt><trkpt lat="44.36308445989603" lon="7.550559082918902"><ele>545.5</ele><time>2026-04-08T17:13:11Z</time></trkpt><trkpt lat="44.36332747021834" lon="7.550635432198255"><ele>545.0</ele><time>2026-04-08T17:13:12Z</time></trkpt><trkpt lat="44.363566510632786" lon="7.550709756067793"><ele>545.0</ele><time>2026-04-08T17:13:13Z</time></trkpt><trkpt lat="44.363807438846074" lon="7.5507911619064565"><ele>545.0</ele><time>2026-04-08T17:13:14Z</time></trkpt><trkpt lat="44.364045266457076" lon="7.550868537981175"><ele>545.5</ele><time>2026-04-08T17:13:15Z</time></trkpt><trkpt lat="44.36429102291067" lon="7.550949079890939"><ele>546.0</ele><time>2026-04-08T17:13:16Z</time></trkpt><trkpt lat="44.36455936541788" lon="7.551035678403772"><ele>544.5</ele><time>2026-04-08T17:13:17Z</time></trkpt><trkpt lat="44.364869249752125" lon="7.5511359371949816"><ele>543.0</ele><time>2026-04-08T17:13:18Z</time></trkpt><trkpt lat="44.36519440313848" lon="7.551242475463951"><ele>543.5</ele><time>2026-04-08T17:13:19Z</time></trkpt><trkpt lat="44.36555325242448" lon="7.551360584832315"><ele>544.0</ele><time>2026-04-08T17:13:20Z</time></trkpt><trkpt lat="44.36590672886242" lon="7.551477490195901"><ele>544.0</ele><time>2026-04-08T17:13:21Z</time></trkpt><trkpt lat="44.36626873809375" lon="7.5515974974644084"><ele>544.0</ele><time>2026-04-08T17:13:22Z</time></trkpt><trkpt lat="44.36664084522868" lon="7.551715837089016"><ele>542.0</ele><time>2026-04-08T17:13:23Z</time></trkpt><trkpt lat="44.36702742384818" lon="7.55183898766139"><ele>540.0</ele><time>2026-04-08T17:13:24Z</time></trkpt><trkpt lat="44.36740546020024" lon="7.55196296784906"><ele>540.0</ele><time>2026-04-08T17:13:25Z</time></trkpt><trkpt lat="44.36778819902921" lon="7.552083439112876"><ele>540.0</ele><time>2026-04-08T17:13:26Z</time></trkpt><trkpt lat="44.368164435244694" lon="7.552196781839681"><ele>539.5</ele><time>2026-04-08T17:13:27Z</time></trkpt><trkpt lat="44.36850995489465" lon="7.552323530137073"><ele>539.0</ele><time>2026-04-08T17:13:28Z</time></trkpt><trkpt lat="44.368860312448696" lon="7.552438471053639"><ele>538.5</ele><time>2026-04-08T17:13:29Z</time></trkpt><trkpt lat="44.369220512603945" lon="7.552556758144938"><ele>538.0</ele><time>2026-04-08T17:13:30Z</time></trkpt><trkpt lat="44.36956466850769" lon="7.552645067244871"><ele>535.5</ele><time>2026-04-08T17:13:31Z</time></trkpt><trkpt lat="44.36986266160096" lon="7.552748480245991"><ele>533.0</ele><time>2026-04-08T17:13:32Z</time></trkpt><trkpt lat="44.37015719337433" lon="7.5528454796043345"><ele>534.0</ele><time>2026-04-08T17:13:33Z</time></trkpt><trkpt lat="44.370449649545975" lon="7.5529429656136315"><ele>535.0</ele><time>2026-04-08T17:13:34Z</time></trkpt><trkpt lat="44.37073704275216" lon="7.553038463894938"><ele>535.0</ele><time>2026-04-08T17:13:35Z</time></trkpt><trkpt lat="44.371002174533196" lon="7.553128904370786"><ele>535.0</ele><time>2026-04-08T17:13:36Z</time></trkpt><trkpt lat="44.371253369345986" lon="7.5532100369441"><ele>532.5</ele><time>2026-04-08T17:13:37Z</time></trkpt><trkpt lat="44.3714928419496" lon="7.5532831618973155"><ele>530.0</ele><time>2026-04-08T17:13:38Z</time></trkpt><trkpt lat="44.3717302607268" lon="7.553357604863557"><ele>530.0</ele><time>2026-04-08T17:13:39Z</time></trkpt><trkpt lat="44.37195844704743" lon="7.553433042684102"><ele>530.0</ele><time>2026-04-08T17:13:40Z</time></trkpt><trkpt lat="44.37217225910022" lon="7.553506446681331"><ele>530.3333333333333</ele><time>2026-04-08T17:13:41Z</time></trkpt><trkpt lat="44.37236904098693" lon="7.553573718456681"><ele>530.6666666666666</ele><time>2026-04-08T17:13:42Z</time></trkpt><trkpt lat="44.37256017148114" lon="7.5536396039309945"><ele>531.0</ele><time>2026-04-08T17:13:43Z</time></trkpt><trkpt lat="44.37274731863957" lon="7.553698346004774"><ele>530.6666666666666</ele><time>2026-04-08T17:13:44Z</time></trkpt><trkpt lat="44.37293927690713" lon="7.553769794587337"><ele>530.3333333333333</ele><time>2026-04-08T17:13:45Z</time></trkpt><trkpt lat="44.37313944945321" lon="7.5538480033824404"><ele>530.0</ele><time>2026-04-08T17:13:46Z</time></trkpt><trkpt lat="44.373350085896405" lon="7.553934023484853"><ele>530.0</ele><time>2026-04-08T17:13:47Z</time></trkpt><trkpt lat="44.373574618809336" lon="7.5540228838602745"><ele>530.0</ele><time>2026-04-08T17:13:48Z</time></trkpt><trkpt lat="44.37380635826786" lon="7.554123385250983"><ele>529.0</ele><time>2026-04-08T17:13:49Z</time></trkpt><trkpt lat="44.3740307329241" lon="7.554224927010756"><ele>528.0</ele><time>2026-04-08T17:13:50Z</time></trkpt><trkpt lat="44.374255892861015" lon="7.554331948072663"><ele>528.0</ele><time>2026-04-08T17:13:51Z</time></trkpt><trkpt lat="44.37449637154026" lon="7.554448977846037"><ele>528.0</ele><time>2026-04-08T17:13:52Z</time></trkpt><trkpt lat="44.37477107394156" lon="7.554589836948308"><ele>527.0</ele><time>2026-04-08T17:13:53Z</time></trkpt><trkpt lat="44.375078775197494" lon="7.554762056671533"><ele>526.0</ele><time>2026-04-08T17:13:54Z</time></trkpt><trkpt lat="44.375400316391314" lon="7.554951697763111"><ele>525.5</ele><time>2026-04-08T17:13:55Z</time></trkpt><trkpt lat="44.37569409523951" lon="7.55513400760944"><ele>525.0</ele><time>2026-04-08T17:13:56Z</time></trkpt><trkpt lat="44.37594817760221" lon="7.555304248821019"><ele>525.5</ele><time>2026-04-08T17:13:57Z</time></trkpt><trkpt lat="44.376185792674015" lon="7.5554648330691965"><ele>526.0</ele><time>2026-04-08T17:13:58Z</time></trkpt><trkpt lat="44.376418372746066" lon="7.555628217772738"><ele>525.0</ele><time>2026-04-08T17:13:59Z</time></trkpt><trkpt lat="44.37665233552709" lon="7.5557966060556545"><ele>524.0</ele><time>2026-04-08T17:14:00Z</time></trkpt><trkpt lat="44.37686668412151" lon="7.555957092141157"><ele>524.0</ele><time>2026-04-08T17:14:01Z</time></trkpt><trkpt lat="44.37706214518222" lon="7.556108274764217"><ele>524.0</ele><time>2026-04-08T17:14:02Z</time></trkpt><trkpt lat="44.37724391516183" lon="7.556248741352252"><ele>524.0</ele><time>2026-04-08T17:14:03Z</time></trkpt><trkpt lat="44.37741434482964" lon="7.55638422863111"><ele>523.3333333333333</ele><time>2026-04-08T17:14:04Z</time></trkpt><trkpt lat="44.37757074070531" lon="7.556510728611377"><ele>522.6666666666666</ele><time>2026-04-08T17:14:05Z</time></trkpt><trkpt lat="44.37770641592576" lon="7.556622338929839"><ele>522.0</ele><time>2026-04-08T17:14:06Z</time></trkpt><trkpt lat="44.37782359345023" lon="7.556721511402004"><ele>522.0</ele><time>2026-04-08T17:14:07Z</time></trkpt><trkpt lat="44.37792452558715" lon="7.556805327159051"><ele>522.0</ele><time>2026-04-08T17:14:08Z</time></trkpt><trkpt lat="44.37801391694277" lon="7.5568810814454705"><ele>522.0</ele><time>2026-04-08T17:14:09Z</time></trkpt><trkpt lat="44.37809447353678" lon="7.556954106476254"><ele>522.0</ele><time>2026-04-08T17:14:10Z</time></trkpt><trkpt lat="44.37816917165382" lon="7.55701619119365"><ele>522.0</ele><time>2026-04-08T17:14:11Z</time></trkpt><trkpt lat="44.37823282078392" lon="7.557061947081669"><ele>522.4</ele><time>2026-04-08T17:14:12Z</time></trkpt><trkpt lat="44.37830996034144" lon="7.557115550203404"><ele>522.8000000000001</ele><time>2026-04-08T17:14:14Z</time></trkpt><trkpt lat="44.37838040846365" lon="7.557178341897773"><ele>523.2</ele><time>2026-04-08T17:14:34Z</time></trkpt><trkpt lat="44.3784751313124" lon="7.557248932496008"><ele>523.6</ele><time>2026-04-08T17:14:35Z</time></trkpt><trkpt lat="44.378616902811984" lon="7.557372644600777"><ele>524.0</ele><time>2026-04-08T17:14:36Z</time></trkpt><trkpt lat="44.37878722738955" lon="7.557534499245558"><ele>523.0</ele><time>2026-04-08T17:14:37Z</time></trkpt><trkpt lat="44.37898936930763" lon="7.557707262804764"><ele>522.0</ele><time>2026-04-08T17:14:38Z</time></trkpt><trkpt lat="44.379208832663195" lon="7.557881054601679"><ele>522.0</ele><time>2026-04-08T17:14:39Z</time></trkpt><trkpt lat="44.37943932757577" lon="7.558064142421024"><ele>522.0</ele><time>2026-04-08T17:14:40Z</time></trkpt><trkpt lat="44.379678143675086" lon="7.558258774273974"><ele>521.0</ele><time>2026-04-08T17:14:41Z</time></trkpt><trkpt lat="44.37993420074522" lon="7.558465049784215"><ele>520.0</ele><time>2026-04-08T17:14:42Z</time></trkpt><trkpt lat="44.3802012502653" lon="7.558682528676351"><ele>520.5</ele><time>2026-04-08T17:14:43Z</time></trkpt><trkpt lat="44.380464956061886" lon="7.558897338832071"><ele>521.0</ele><time>2026-04-08T17:14:44Z</time></trkpt><trkpt lat="44.38069416167841" lon="7.559081144926725"><ele>521.0</ele><time>2026-04-08T17:14:45Z</time></trkpt><trkpt lat="44.38090897371376" lon="7.559256225988336"><ele>521.0</ele><time>2026-04-08T17:14:46Z</time></trkpt><trkpt lat="44.381123165835014" lon="7.559430744454197"><ele>521.0</ele><time>2026-04-08T17:14:47Z</time></trkpt><trkpt lat="44.381326688023385" lon="7.559593053949951"><ele>521.0</ele><time>2026-04-08T17:14:48Z</time></trkpt><trkpt lat="44.38151744342115" lon="7.559745605947293"><ele>520.3333333333333</ele><time>2026-04-08T17:14:49Z</time></trkpt><trkpt lat="44.38168917909669" lon="7.559885711839262"><ele>519.6666666666666</ele><time>2026-04-08T17:14:50Z</time></trkpt><trkpt lat="44.38184291224469" lon="7.560014447657596"><ele>519.0</ele><time>2026-04-08T17:14:51Z</time></trkpt><trkpt lat="44.38197420394956" lon="7.560133635663526"><ele>519.0</ele><time>2026-04-08T17:14:52Z</time></trkpt><trkpt lat="44.382081484705644" lon="7.5602360950521"><ele>519.0</ele><time>2026-04-08T17:14:53Z</time></trkpt><trkpt lat="44.382171945484146" lon="7.560327017656271"><ele>519.0</ele><time>2026-04-08T17:14:54Z</time></trkpt><trkpt lat="44.38224691843593" lon="7.560400086133953"><ele>519.0</ele><time>2026-04-08T17:14:55Z</time></trkpt><trkpt lat="44.38229192686434" lon="7.5604650688998385"><ele>519.0</ele><time>2026-04-08T17:14:56Z</time></trkpt><trkpt lat="44.38233339073148" lon="7.560537060655413"><ele>518.4</ele><time>2026-04-08T17:14:57Z</time></trkpt><trkpt lat="44.38237388587891" lon="7.560622754985831"><ele>517.8</ele><time>2026-04-08T17:14:58Z</time></trkpt><trkpt lat="44.382407972093816" lon="7.5607521885071565"><ele>517.2</ele><time>2026-04-08T17:14:59Z</time></trkpt><trkpt lat="44.38243894050374" lon="7.560888722876295"><ele>516.6</ele><time>2026-04-08T17:15:00Z</time></trkpt><trkpt lat="44.382485841029165" lon="7.560985569052145"><ele>516.0</ele><time>2026-04-08T17:15:01Z</time></trkpt><trkpt lat="44.38255458251505" lon="7.561077067517162"><ele>516.0</ele><time>2026-04-08T17:15:02Z</time></trkpt><trkpt lat="44.38263800634349" lon="7.561170455973402"><ele>516.0</ele><time>2026-04-08T17:15:03Z</time></trkpt><trkpt lat="44.382746106061404" lon="7.561286253749937"><ele>516.0</ele><time>2026-04-08T17:15:04Z</time></trkpt><trkpt lat="44.38284503016157" lon="7.561461268670089"><ele>516.0</ele><time>2026-04-08T17:15:05Z</time></trkpt><trkpt lat="44.38291924826528" lon="7.561694261702915"><ele>516.3333333333334</ele><time>2026-04-08T17:15:06Z</time></trkpt><trkpt lat="44.38298773368299" lon="7.561969368412381"><ele>516.6666666666667</ele><time>2026-04-08T17:15:07Z</time></trkpt><trkpt lat="44.38305368375841" lon="7.5622656381766"><ele>517.0</ele><time>2026-04-08T17:15:08Z</time></trkpt><trkpt lat="44.38313238283745" lon="7.5626298899283855"><ele>515.5</ele><time>2026-04-08T17:15:09Z</time></trkpt><trkpt lat="44.383218984379255" lon="7.563036181319721"><ele>514.0</ele><time>2026-04-08T17:15:10Z</time></trkpt><trkpt lat="44.38331077426635" lon="7.563459998759118"><ele>514.0</ele><time>2026-04-08T17:15:11Z</time></trkpt><trkpt lat="44.38339865896917" lon="7.563859233417189"><ele>514.0</ele><time>2026-04-08T17:15:12Z</time></trkpt><trkpt lat="44.38347487177755" lon="7.564208609453758"><ele>514.0</ele><time>2026-04-08T17:15:13Z</time></trkpt><trkpt lat="44.38354288883816" lon="7.564527280996129"><ele>514.0</ele><time>2026-04-08T17:15:14Z</time></trkpt><trkpt lat="44.38360382029736" lon="7.564813001207714"><ele>514.6666666666667</ele><time>2026-04-08T17:15:15Z</time></trkpt><trkpt lat="44.3836683879518" lon="7.565065545486386"><ele>515.3333333333334</ele><time>2026-04-08T17:15:16Z</time></trkpt><trkpt lat="44.383736057155375" lon="7.565296046779328"><ele>516.0</ele><time>2026-04-08T17:15:17Z</time></trkpt><trkpt lat="44.383806077682486" lon="7.565500260489286"><ele>516.0</ele><time>2026-04-08T17:15:18Z</time></trkpt><trkpt lat="44.38387898937733" lon="7.565685158388783"><ele>516.0</ele><time>2026-04-08T17:15:19Z</time></trkpt><trkpt lat="44.38393523867058" lon="7.565841416580934"><ele>516.0</ele><time>2026-04-08T17:15:20Z</time></trkpt><trkpt lat="44.38396341977798" lon="7.56596835950103"><ele>516.0</ele><time>2026-04-08T17:15:21Z</time></trkpt><trkpt lat="44.38397880267751" lon="7.566064173193208"><ele>516.0</ele><time>2026-04-08T17:15:22Z</time></trkpt><trkpt lat="44.38399225876215" lon="7.5662551971690135"><ele>516.0</ele><time>2026-04-08T17:15:24Z</time></trkpt><trkpt lat="44.38399336156177" lon="7.56637020322236"><ele>516.0</ele><time>2026-04-08T17:15:25Z</time></trkpt><trkpt lat="44.384044385110684" lon="7.566526831557929"><ele>516.0</ele><time>2026-04-08T17:15:26Z</time></trkpt><trkpt lat="44.38409448607433" lon="7.566641357970565"><ele>516.0</ele><time>2026-04-08T17:15:27Z</time></trkpt><trkpt lat="44.38416348399171" lon="7.566725346870486"><ele>516.0</ele><time>2026-04-08T17:15:28Z</time></trkpt><trkpt lat="44.38426193750139" lon="7.566788675612283"><ele>516.0</ele><time>2026-04-08T17:15:29Z</time></trkpt><trkpt lat="44.384394881674666" lon="7.566780105020926"><ele>516.0</ele><time>2026-04-08T17:15:30Z</time></trkpt><trkpt lat="44.384560941834195" lon="7.566840875462314"><ele>516.0</ele><time>2026-04-08T17:15:31Z</time></trkpt><trkpt lat="44.38472782847875" lon="7.5669336052153096"><ele>515.0</ele><time>2026-04-08T17:15:32Z</time></trkpt><trkpt lat="44.38490724383258" lon="7.567091705219043"><ele>514.0</ele><time>2026-04-08T17:15:33Z</time></trkpt><trkpt lat="44.38509606629741" lon="7.5672851590722034"><ele>513.0</ele><time>2026-04-08T17:15:34Z</time></trkpt><trkpt lat="44.385282379647705" lon="7.5674931364101825"><ele>513.0</ele><time>2026-04-08T17:15:35Z</time></trkpt><trkpt lat="44.385475217669146" lon="7.5677000334535265"><ele>513.0</ele><time>2026-04-08T17:15:36Z</time></trkpt><trkpt lat="44.385692540454876" lon="7.567935866997862"><ele>513.0</ele><time>2026-04-08T17:15:37Z</time></trkpt><trkpt lat="44.38592181401891" lon="7.568183770983033"><ele>513.0</ele><time>2026-04-08T17:15:38Z</time></trkpt><trkpt lat="44.38616961557632" lon="7.56845314203877"><ele>514.5</ele><time>2026-04-08T17:15:39Z</time></trkpt><trkpt lat="44.3864257292194" lon="7.568738460380609"><ele>516.0</ele><time>2026-04-08T17:15:40Z</time></trkpt><trkpt lat="44.386685537701645" lon="7.569022713978742"><ele>516.0</ele><time>2026-04-08T17:15:41Z</time></trkpt><trkpt lat="44.386942495754845" lon="7.5692964598822625"><ele>516.0</ele><time>2026-04-08T17:15:42Z</time></trkpt><trkpt lat="44.38720129942982" lon="7.5695831024496485"><ele>515.0</ele><time>2026-04-08T17:15:43Z</time></trkpt><trkpt lat="44.38747000575567" lon="7.569874178945933"><ele>514.0</ele><time>2026-04-08T17:15:44Z</time></trkpt><trkpt lat="44.387737013244745" lon="7.5701619580095265"><ele>514.0</ele><time>2026-04-08T17:15:45Z</time></trkpt><trkpt lat="44.38795462454191" lon="7.570391520036296"><ele>514.0</ele><time>2026-04-08T17:15:46Z</time></trkpt><trkpt lat="44.388149332726954" lon="7.570597743615418"><ele>514.0</ele><time>2026-04-08T17:15:47Z</time></trkpt><trkpt lat="44.388309696441766" lon="7.570791809910255"><ele>514.0</ele><time>2026-04-08T17:15:48Z</time></trkpt><trkpt lat="44.38848202331852" lon="7.570983852511199"><ele>514.0</ele><time>2026-04-08T17:15:49Z</time></trkpt><trkpt lat="44.38865751553391" lon="7.571173700991825"><ele>513.6666666666667</ele><time>2026-04-08T17:15:50Z</time></trkpt><trkpt lat="44.38883572745988" lon="7.571367043150993"><ele>513.3333333333334</ele><time>2026-04-08T17:15:51Z</time></trkpt><trkpt lat="44.38900440501346" lon="7.571566393957633"><ele>513.0</ele><time>2026-04-08T17:15:52Z</time></trkpt><trkpt lat="44.38917039602391" lon="7.5717773400065544"><ele>512.5</ele><time>2026-04-08T17:15:53Z</time></trkpt><trkpt lat="44.389334129628544" lon="7.572001835115039"><ele>512.0</ele><time>2026-04-08T17:15:54Z</time></trkpt><trkpt lat="44.389488574449544" lon="7.572236025688073"><ele>511.66666666666663</ele><time>2026-04-08T17:15:55Z</time></trkpt><trkpt lat="44.389630116343874" lon="7.572476629808026"><ele>511.33333333333337</ele><time>2026-04-08T17:15:56Z</time></trkpt><trkpt lat="44.389751060277355" lon="7.572709997436961"><ele>511.0</ele><time>2026-04-08T17:15:57Z</time></trkpt><trkpt lat="44.38985002569325" lon="7.572928896608095"><ele>512.3333333333334</ele><time>2026-04-08T17:15:58Z</time></trkpt><trkpt lat="44.389935162546124" lon="7.573129254070549"><ele>513.6666666666666</ele><time>2026-04-08T17:15:59Z</time></trkpt><trkpt lat="44.390015252730635" lon="7.573302234651068"><ele>515.0</ele><time>2026-04-08T17:16:00Z</time></trkpt><trkpt lat="44.39008875188014" lon="7.573463762504612"><ele>515.0</ele><time>2026-04-08T17:16:01Z</time></trkpt><trkpt lat="44.390145070051496" lon="7.573608066167097"><ele>515.0</ele><time>2026-04-08T17:16:02Z</time></trkpt><trkpt lat="44.39017967650776" lon="7.573723312400746"><ele>515.0</ele><time>2026-04-08T17:16:03Z</time></trkpt><trkpt lat="44.390215022595434" lon="7.573870035476603"><ele>515.0</ele><time>2026-04-08T17:16:05Z</time></trkpt><trkpt lat="44.3902261210954" lon="7.573978265337084"><ele>515.0</ele><time>2026-04-08T17:16:07Z</time></trkpt><trkpt lat="44.3902077867228" lon="7.574069591356028"><ele>515.6666666666666</ele><time>2026-04-08T17:16:08Z</time></trkpt><trkpt lat="44.39018264153195" lon="7.574193267696677"><ele>516.3333333333333</ele><time>2026-04-08T17:16:09Z</time></trkpt><trkpt lat="44.39017062511491" lon="7.574312521774354"><ele>517.0</ele><time>2026-04-08T17:16:10Z</time></trkpt><trkpt lat="44.39017462492679" lon="7.574400441305704"><ele>517.6666666666666</ele><time>2026-04-08T17:16:11Z</time></trkpt><trkpt lat="44.390192747198135" lon="7.574492233017918"><ele>518.3333333333334</ele><time>2026-04-08T17:16:12Z</time></trkpt><trkpt lat="44.390207517767145" lon="7.574597910888121"><ele>519.0</ele><time>2026-04-08T17:16:13Z</time></trkpt><trkpt lat="44.39027795956077" lon="7.574699885062614"><ele>519.25</ele><time>2026-04-08T17:16:14Z</time></trkpt><trkpt lat="44.39028469688385" lon="7.574858626439806"><ele>519.5</ele><time>2026-04-08T17:16:15Z</time></trkpt><trkpt lat="44.39028262523452" lon="7.575010042913398"><ele>519.75</ele><time>2026-04-08T17:16:16Z</time></trkpt><trkpt lat="44.39026221526252" lon="7.575160296406254"><ele>520.0</ele><time>2026-04-08T17:16:17Z</time></trkpt><trkpt lat="44.3902304080815" lon="7.575341339491846"><ele>521.0</ele><time>2026-04-08T17:16:18Z</time></trkpt><trkpt lat="44.390179297129144" lon="7.5755420043065556"><ele>522.0</ele><time>2026-04-08T17:16:19Z</time></trkpt><trkpt lat="44.390107509539405" lon="7.575781059277843"><ele>523.0</ele><time>2026-04-08T17:16:20Z</time></trkpt><trkpt lat="44.39003421761017" lon="7.576045067215364"><ele>522.3333333333334</ele><time>2026-04-08T17:16:21Z</time></trkpt><trkpt lat="44.389971738357865" lon="7.576282150078434"><ele>521.6666666666666</ele><time>2026-04-08T17:16:22Z</time></trkpt><trkpt lat="44.38991701171341" lon="7.576483706458285"><ele>521.0</ele><time>2026-04-08T17:16:23Z</time></trkpt><trkpt lat="44.389868459283875" lon="7.57665437396916"><ele>521.0</ele><time>2026-04-08T17:16:24Z</time></trkpt><trkpt lat="44.38982408702533" lon="7.576810553333698"><ele>521.0</ele><time>2026-04-08T17:16:25Z</time></trkpt><trkpt lat="44.38979154771098" lon="7.576946809282799"><ele>521.0</ele><time>2026-04-08T17:16:26Z</time></trkpt><trkpt lat="44.38975644720778" lon="7.577075975401298"><ele>521.0</ele><time>2026-04-08T17:16:27Z</time></trkpt><trkpt lat="44.38971810377532" lon="7.577235756419038"><ele>521.0</ele><time>2026-04-08T17:16:28Z</time></trkpt><trkpt lat="44.38967138173816" lon="7.577424406950586"><ele>520.6666666666666</ele><time>2026-04-08T17:16:29Z</time></trkpt><trkpt lat="44.389610989722804" lon="7.577648006797611"><ele>520.3333333333334</ele><time>2026-04-08T17:16:30Z</time></trkpt><trkpt lat="44.38954460137031" lon="7.577900051591146"><ele>520.0</ele><time>2026-04-08T17:16:31Z</time></trkpt><trkpt lat="44.38948282535807" lon="7.578144871664604"><ele>520.0</ele><time>2026-04-08T17:16:32Z</time></trkpt><trkpt lat="44.38943354059577" lon="7.578356525260748"><ele>520.0</ele><time>2026-04-08T17:16:33Z</time></trkpt><trkpt lat="44.389386035525725" lon="7.578538853087423"><ele>520.0</ele><time>2026-04-08T17:16:34Z</time></trkpt><trkpt lat="44.38933993339264" lon="7.578711976284635"><ele>520.0</ele><time>2026-04-08T17:16:35Z</time></trkpt><trkpt lat="44.38928793201982" lon="7.57890919475914"><ele>520.0</ele><time>2026-04-08T17:16:36Z</time></trkpt><trkpt lat="44.38923033057594" lon="7.579139020616153"><ele>520.0</ele><time>2026-04-08T17:16:37Z</time></trkpt><trkpt lat="44.389171344509045" lon="7.579401406997713"><ele>520.0</ele><time>2026-04-08T17:16:38Z</time></trkpt><trkpt lat="44.38911143190737" lon="7.579634166230831"><ele>520.3333333333334</ele><time>2026-04-08T17:16:39Z</time></trkpt><trkpt lat="44.38905142046857" lon="7.5798735156749695"><ele>520.6666666666666</ele><time>2026-04-08T17:16:40Z</time></trkpt><trkpt lat="44.38898910344442" lon="7.580162815843401"><ele>521.0</ele><time>2026-04-08T17:16:41Z</time></trkpt><trkpt lat="44.3889238844453" lon="7.580432193094281"><ele>520.25</ele><time>2026-04-08T17:16:42Z</time></trkpt><trkpt lat="44.38886454834963" lon="7.580655008350672"><ele>519.5</ele><time>2026-04-08T17:16:43Z</time></trkpt><trkpt lat="44.388817957394394" lon="7.5808427790899255"><ele>518.75</ele><time>2026-04-08T17:16:44Z</time></trkpt><trkpt lat="44.38877922243244" lon="7.581010426503353"><ele>518.0</ele><time>2026-04-08T17:16:45Z</time></trkpt><trkpt lat="44.38874786419285" lon="7.581162543914588"><ele>518.1666666666666</ele><time>2026-04-08T17:16:46Z</time></trkpt><trkpt lat="44.388714731649706" lon="7.581294529177442"><ele>518.3333333333333</ele><time>2026-04-08T17:16:47Z</time></trkpt><trkpt lat="44.38868508842682" lon="7.581423172165989"><ele>518.5</ele><time>2026-04-08T17:16:48Z</time></trkpt><trkpt lat="44.38865831101824" lon="7.581525365672414"><ele>518.6666666666666</ele><time>2026-04-08T17:16:49Z</time></trkpt><trkpt lat="44.388635418175646" lon="7.5816146294188815"><ele>518.8333333333334</ele><time>2026-04-08T17:16:50Z</time></trkpt><trkpt lat="44.388603870102806" lon="7.581718272291847"><ele>519.0</ele><time>2026-04-08T17:16:52Z</time></trkpt><trkpt lat="44.388549328083045" lon="7.5818671477786745"><ele>519.0</ele><time>2026-04-08T17:16:56Z</time></trkpt><trkpt lat="44.38851911073429" lon="7.581947975899447"><ele>519.0</ele><time>2026-04-08T17:16:57Z</time></trkpt><trkpt lat="44.388562909251796" lon="7.582105201579716"><ele>519.0</ele><time>2026-04-08T17:16:59Z</time></trkpt><trkpt lat="44.388613638766685" lon="7.582211538263461"><ele>519.0</ele><time>2026-04-08T17:17:00Z</time></trkpt><trkpt lat="44.388685850395184" lon="7.58234958096636"><ele>519.0</ele><time>2026-04-08T17:17:01Z</time></trkpt><trkpt lat="44.38876250860789" lon="7.582510730764532"><ele>518.3333333333334</ele><time>2026-04-08T17:17:02Z</time></trkpt><trkpt lat="44.388852966592786" lon="7.582673067870991"><ele>517.6666666666667</ele><time>2026-04-08T17:17:03Z</time></trkpt><trkpt lat="44.3889703482824" lon="7.582810640727372"><ele>517.0</ele><time>2026-04-08T17:17:04Z</time></trkpt><trkpt lat="44.389103446595776" lon="7.582926690192343"><ele>516.3333333333334</ele><time>2026-04-08T17:17:05Z</time></trkpt><trkpt lat="44.389266691646185" lon="7.583045324227188"><ele>515.6666666666666</ele><time>2026-04-08T17:17:06Z</time></trkpt><trkpt lat="44.389467314293334" lon="7.58319480933646"><ele>515.0</ele><time>2026-04-08T17:17:07Z</time></trkpt><trkpt lat="44.389710448207836" lon="7.583387225965606"><ele>515.0</ele><time>2026-04-08T17:17:08Z</time></trkpt><trkpt lat="44.3899669619654" lon="7.583595992673893"><ele>515.0</ele><time>2026-04-08T17:17:09Z</time></trkpt><trkpt lat="44.39022727826113" lon="7.58381262815614"><ele>514.5</ele><time>2026-04-08T17:17:10Z</time></trkpt><trkpt lat="44.39045610839273" lon="7.584053914273161"><ele>514.0</ele><time>2026-04-08T17:17:11Z</time></trkpt><trkpt lat="44.39068672820242" lon="7.584236866120785"><ele>513.0</ele><time>2026-04-08T17:17:12Z</time></trkpt><trkpt lat="44.39089902302306" lon="7.584415141360926"><ele>512.0</ele><time>2026-04-08T17:17:13Z</time></trkpt><trkpt lat="44.39111403905695" lon="7.584592462054099"><ele>512.0</ele><time>2026-04-08T17:17:14Z</time></trkpt><trkpt lat="44.39134099612865" lon="7.584781297517158"><ele>512.0</ele><time>2026-04-08T17:17:15Z</time></trkpt><trkpt lat="44.39157851925709" lon="7.58498366962415"><ele>512.0</ele><time>2026-04-08T17:17:16Z</time></trkpt><trkpt lat="44.39182234330383" lon="7.5851811562197975"><ele>512.0</ele><time>2026-04-08T17:17:17Z</time></trkpt><trkpt lat="44.39203601699751" lon="7.585351476155108"><ele>512.0</ele><time>2026-04-08T17:17:18Z</time></trkpt><trkpt lat="44.39222230515795" lon="7.585499723580657"><ele>512.0</ele><time>2026-04-08T17:17:19Z</time></trkpt><trkpt lat="44.39237604844221" lon="7.585633964166545"><ele>512.0</ele><time>2026-04-08T17:17:20Z</time></trkpt><trkpt lat="44.39251444233662" lon="7.585748643132881"><ele>512.0</ele><time>2026-04-08T17:17:21Z</time></trkpt><trkpt lat="44.39264466451409" lon="7.585859581986932"><ele>512.0</ele><time>2026-04-08T17:17:22Z</time></trkpt><trkpt lat="44.39275086261259" lon="7.5859586223372455"><ele>512.0</ele><time>2026-04-08T17:17:23Z</time></trkpt><trkpt lat="44.392830531371175" lon="7.5860433746715055"><ele>512.0</ele><time>2026-04-08T17:17:24Z</time></trkpt><trkpt lat="44.39289117144429" lon="7.58614169035586"><ele>512.0</ele><time>2026-04-08T17:17:25Z</time></trkpt><trkpt lat="44.39294407111688" lon="7.586254341632951"><ele>512.0</ele><time>2026-04-08T17:17:26Z</time></trkpt><trkpt lat="44.39299149575294" lon="7.5863685164393475"><ele>512.0</ele><time>2026-04-08T17:17:27Z</time></trkpt><trkpt lat="44.393048609979175" lon="7.586450829371891"><ele>512.0</ele><time>2026-04-08T17:17:28Z</time></trkpt><trkpt lat="44.39310506374718" lon="7.586525204039156"><ele>512.0</ele><time>2026-04-08T17:17:29Z</time></trkpt><trkpt lat="44.393208090595486" lon="7.586531599755859"><ele>511.6</ele><time>2026-04-08T17:17:30Z</time></trkpt><trkpt lat="44.39331192520645" lon="7.586538789002202"><ele>511.20000000000005</ele><time>2026-04-08T17:17:31Z</time></trkpt><trkpt lat="44.39341914624188" lon="7.586541673550883"><ele>510.8</ele><time>2026-04-08T17:17:32Z</time></trkpt><trkpt lat="44.39352790673718" lon="7.586572215170357"><ele>510.4</ele><time>2026-04-08T17:17:33Z</time></trkpt><trkpt lat="44.393633883009855" lon="7.586648040250378"><ele>510.0</ele><time>2026-04-08T17:17:34Z</time></trkpt><trkpt lat="44.39376756613898" lon="7.586772081071905"><ele>509.66666666666663</ele><time>2026-04-08T17:17:35Z</time></trkpt><trkpt lat="44.39393890606111" lon="7.586930411735378"><ele>509.3333333333333</ele><time>2026-04-08T17:17:36Z</time></trkpt><trkpt lat="44.394143236878556" lon="7.587094990074896"><ele>509.0</ele><time>2026-04-08T17:17:37Z</time></trkpt><trkpt lat="44.394367257904115" lon="7.587280553768811"><ele>509.0</ele><time>2026-04-08T17:17:38Z</time></trkpt><trkpt lat="44.394593243299674" lon="7.587459123999166"><ele>509.0</ele><time>2026-04-08T17:17:39Z</time></trkpt><trkpt lat="44.39478504036035" lon="7.587605062285792"><ele>509.3333333333333</ele><time>2026-04-08T17:17:40Z</time></trkpt><trkpt lat="44.39495648652148" lon="7.5877374260469805"><ele>509.66666666666663</ele><time>2026-04-08T17:17:41Z</time></trkpt><trkpt lat="44.395112463587445" lon="7.58784863428045"><ele>510.0</ele><time>2026-04-08T17:17:42Z</time></trkpt><trkpt lat="44.395261954513735" lon="7.5879529835579245"><ele>509.6</ele><time>2026-04-08T17:17:43Z</time></trkpt><trkpt lat="44.39538544115673" lon="7.5880488680055596"><ele>509.2</ele><time>2026-04-08T17:17:44Z</time></trkpt><trkpt lat="44.39548050907149" lon="7.588144432924502"><ele>508.79999999999995</ele><time>2026-04-08T17:17:45Z</time></trkpt><trkpt lat="44.39553992216843" lon="7.588229847602433"><ele>508.4</ele><time>2026-04-08T17:17:46Z</time></trkpt><trkpt lat="44.39561064579296" lon="7.5883061060913475"><ele>508.0</ele><time>2026-04-08T17:17:47Z</time></trkpt><trkpt lat="44.39564179036272" lon="7.588429937616725"><ele>508.0</ele><time>2026-04-08T17:17:48Z</time></trkpt><trkpt lat="44.395696522033745" lon="7.5885136384898635"><ele>507.99999999999994</ele><time>2026-04-08T17:17:49Z</time></trkpt><trkpt lat="44.395761399598086" lon="7.588588347111041"><ele>507.99999999999994</ele><time>2026-04-08T17:17:50Z</time></trkpt><trkpt lat="44.39578010330811" lon="7.588743715474461"><ele>508.0</ele><time>2026-04-08T17:17:51Z</time></trkpt><trkpt lat="44.39580341592521" lon="7.588884290641775"><ele>508.0</ele><time>2026-04-08T17:17:52Z</time></trkpt><trkpt lat="44.39582338376709" lon="7.589043615475589"><ele>507.75</ele><time>2026-04-08T17:17:53Z</time></trkpt><trkpt lat="44.39584189496008" lon="7.589227254785852"><ele>507.5</ele><time>2026-04-08T17:17:54Z</time></trkpt><trkpt lat="44.395853976572106" lon="7.589426168622063"><ele>507.25</ele><time>2026-04-08T17:17:55Z</time></trkpt><trkpt lat="44.39585830491789" lon="7.589658219149322"><ele>507.0</ele><time>2026-04-08T17:17:56Z</time></trkpt><trkpt lat="44.39582414180609" lon="7.589917500331149"><ele>507.0</ele><time>2026-04-08T17:17:57Z</time></trkpt><trkpt lat="44.395800107509324" lon="7.590239565094287"><ele>507.0</ele><time>2026-04-08T17:17:58Z</time></trkpt><trkpt lat="44.39573472267331" lon="7.5906366850490405"><ele>506.5</ele><time>2026-04-08T17:17:59Z</time></trkpt><trkpt lat="44.39568116276239" lon="7.591031776596204"><ele>506.0</ele><time>2026-04-08T17:18:00Z</time></trkpt><trkpt lat="44.395638814660124" lon="7.591392613669137"><ele>505.5</ele><time>2026-04-08T17:18:01Z</time></trkpt><trkpt lat="44.39557590477902" lon="7.5918443622324885"><ele>505.0</ele><time>2026-04-08T17:18:02Z</time></trkpt><trkpt lat="44.395508053291444" lon="7.592318694084984"><ele>505.5</ele><time>2026-04-08T17:18:03Z</time></trkpt><trkpt lat="44.39544488181143" lon="7.5928017249406725"><ele>506.0</ele><time>2026-04-08T17:18:04Z</time></trkpt><trkpt lat="44.39538442404099" lon="7.593280076576425"><ele>505.5</ele><time>2026-04-08T17:18:05Z</time></trkpt><trkpt lat="44.39532442142776" lon="7.593759434980139"><ele>505.0</ele><time>2026-04-08T17:18:06Z</time></trkpt><trkpt lat="44.39526818822615" lon="7.594252373053844"><ele>504.5</ele><time>2026-04-08T17:18:07Z</time></trkpt><trkpt lat="44.39521116198483" lon="7.594761886385123"><ele>504.0</ele><time>2026-04-08T17:18:08Z</time></trkpt><trkpt lat="44.39515589207897" lon="7.59528734196343"><ele>504.0</ele><time>2026-04-08T17:18:09Z</time></trkpt><trkpt lat="44.39510771921741" lon="7.59580162186852"><ele>504.0</ele><time>2026-04-08T17:18:10Z</time></trkpt><trkpt lat="44.39506141139485" lon="7.596285171661524"><ele>504.5</ele><time>2026-04-08T17:18:11Z</time></trkpt><trkpt lat="44.39502059894258" lon="7.596739858685197"><ele>505.0</ele><time>2026-04-08T17:18:12Z</time></trkpt><trkpt lat="44.39497716795103" lon="7.597195031695752"><ele>505.0</ele><time>2026-04-08T17:18:13Z</time></trkpt><trkpt lat="44.39492670578269" lon="7.597636998644998"><ele>505.0</ele><time>2026-04-08T17:18:14Z</time></trkpt><trkpt lat="44.39487357818234" lon="7.598076956765624"><ele>504.0</ele><time>2026-04-08T17:18:15Z</time></trkpt><trkpt lat="44.394817592319505" lon="7.598512371082062"><ele>503.0</ele><time>2026-04-08T17:18:16Z</time></trkpt><trkpt lat="44.39475948157559" lon="7.598926382966385"><ele>502.5</ele><time>2026-04-08T17:18:17Z</time></trkpt><trkpt lat="44.394708417666564" lon="7.599314194022005"><ele>502.0</ele><time>2026-04-08T17:18:18Z</time></trkpt><trkpt lat="44.39466227687886" lon="7.599686500578348"><ele>503.0</ele><time>2026-04-08T17:18:19Z</time></trkpt><trkpt lat="44.39462254123066" lon="7.600071377935349"><ele>504.0</ele><time>2026-04-08T17:18:20Z</time></trkpt><trkpt lat="44.39458460575299" lon="7.600477425463849"><ele>504.0</ele><time>2026-04-08T17:18:21Z</time></trkpt><trkpt lat="44.394547185891945" lon="7.600911001923086"><ele>504.0</ele><time>2026-04-08T17:18:22Z</time></trkpt><trkpt lat="44.39451038788524" lon="7.601341682333155"><ele>502.5</ele><time>2026-04-08T17:18:23Z</time></trkpt><trkpt lat="44.39447607883133" lon="7.6017592179436075"><ele>501.0</ele><time>2026-04-08T17:18:24Z</time></trkpt><trkpt lat="44.39443770958082" lon="7.602173252671141"><ele>501.0</ele><time>2026-04-08T17:18:25Z</time></trkpt><trkpt lat="44.39439072299874" lon="7.602596381857641"><ele>501.0</ele><time>2026-04-08T17:18:26Z</time></trkpt><trkpt lat="44.39434090620857" lon="7.603035941622176"><ele>501.0</ele><time>2026-04-08T17:18:27Z</time></trkpt><trkpt lat="44.39429741316935" lon="7.603476346519324"><ele>501.0</ele><time>2026-04-08T17:18:28Z</time></trkpt><trkpt lat="44.3942556505263" lon="7.603910621805427"><ele>500.5</ele><time>2026-04-08T17:18:29Z</time></trkpt><trkpt lat="44.39421368897562" lon="7.604338128844177"><ele>500.0</ele><time>2026-04-08T17:18:30Z</time></trkpt><trkpt lat="44.394171490845594" lon="7.604747217061178"><ele>499.5</ele><time>2026-04-08T17:18:31Z</time></trkpt><trkpt lat="44.394124838552024" lon="7.605136122401905"><ele>499.0</ele><time>2026-04-08T17:18:32Z</time></trkpt><trkpt lat="44.394072896646904" lon="7.605500334831197"><ele>499.0</ele><time>2026-04-08T17:18:33Z</time></trkpt><trkpt lat="44.394023459468166" lon="7.605859447634573"><ele>499.0</ele><time>2026-04-08T17:18:34Z</time></trkpt><trkpt lat="44.39397914104039" lon="7.606217571811081"><ele>498.5</ele><time>2026-04-08T17:18:35Z</time></trkpt><trkpt lat="44.393933055921615" lon="7.606572716239719"><ele>498.0</ele><time>2026-04-08T17:18:36Z</time></trkpt><trkpt lat="44.39388664546444" lon="7.606927474740367"><ele>498.0</ele><time>2026-04-08T17:18:37Z</time></trkpt><trkpt lat="44.39384891602676" lon="7.607282714206911"><ele>498.0</ele><time>2026-04-08T17:18:38Z</time></trkpt><trkpt lat="44.39382313656109" lon="7.607623659438305"><ele>498.0</ele><time>2026-04-08T17:18:39Z</time></trkpt><trkpt lat="44.39380657027572" lon="7.607966166348874"><ele>498.0</ele><time>2026-04-08T17:18:40Z</time></trkpt><trkpt lat="44.39379315243788" lon="7.608327439700295"><ele>498.0</ele><time>2026-04-08T17:18:41Z</time></trkpt><trkpt lat="44.393779174243974" lon="7.60872420828515"><ele>498.0</ele><time>2026-04-08T17:18:42Z</time></trkpt><trkpt lat="44.3937677630532" lon="7.609125478543563"><ele>498.0</ele><time>2026-04-08T17:18:43Z</time></trkpt><trkpt lat="44.39375518551081" lon="7.609491269461974"><ele>498.0</ele><time>2026-04-08T17:18:44Z</time></trkpt><trkpt lat="44.39374449388575" lon="7.6098620373783685"><ele>498.0</ele><time>2026-04-08T17:18:45Z</time></trkpt><trkpt lat="44.393738726661105" lon="7.6102647734643"><ele>498.0</ele><time>2026-04-08T17:18:46Z</time></trkpt><trkpt lat="44.39372949039135" lon="7.610712607162655"><ele>497.5</ele><time>2026-04-08T17:18:47Z</time></trkpt><trkpt lat="44.39371218681284" lon="7.611183369633586"><ele>497.0</ele><time>2026-04-08T17:18:48Z</time></trkpt><trkpt lat="44.39369435270838" lon="7.611677160473815"><ele>496.5</ele><time>2026-04-08T17:18:49Z</time></trkpt><trkpt lat="44.393679664988355" lon="7.612164576740331"><ele>496.0</ele><time>2026-04-08T17:18:50Z</time></trkpt><trkpt lat="44.39366900021652" lon="7.612644868775631"><ele>495.5</ele><time>2026-04-08T17:18:51Z</time></trkpt><trkpt lat="44.393659466343316" lon="7.613124386567461"><ele>495.0</ele><time>2026-04-08T17:18:52Z</time></trkpt><trkpt lat="44.393649908353765" lon="7.613598111765483"><ele>495.0</ele><time>2026-04-08T17:18:53Z</time></trkpt><trkpt lat="44.393637803702056" lon="7.6140750958563554"><ele>495.0</ele><time>2026-04-08T17:18:54Z</time></trkpt><trkpt lat="44.39362029205799" lon="7.614556372731032"><ele>494.5</ele><time>2026-04-08T17:18:55Z</time></trkpt><trkpt lat="44.39360327805724" lon="7.615039540181449"><ele>494.0</ele><time>2026-04-08T17:18:56Z</time></trkpt><trkpt lat="44.39358731977878" lon="7.615528688373391"><ele>493.5</ele><time>2026-04-08T17:18:57Z</time></trkpt><trkpt lat="44.39357016770284" lon="7.616025333829332"><ele>493.0</ele><time>2026-04-08T17:18:58Z</time></trkpt><trkpt lat="44.39355615194996" lon="7.61652030436287"><ele>492.5</ele><time>2026-04-08T17:18:59Z</time></trkpt><trkpt lat="44.393540714786994" lon="7.617019544645283"><ele>492.0</ele><time>2026-04-08T17:19:00Z</time></trkpt><trkpt lat="44.39352249985436" lon="7.617523905703621"><ele>492.0</ele><time>2026-04-08T17:19:01Z</time></trkpt><trkpt lat="44.39350563720538" lon="7.618033059153261"><ele>492.0</ele><time>2026-04-08T17:19:02Z</time></trkpt><trkpt lat="44.39348933304311" lon="7.618538788631465"><ele>491.0</ele><time>2026-04-08T17:19:03Z</time></trkpt><trkpt lat="44.39347196751275" lon="7.619025733112248"><ele>490.0</ele><time>2026-04-08T17:19:04Z</time></trkpt><trkpt lat="44.393456474011025" lon="7.619503306117131"><ele>490.0</ele><time>2026-04-08T17:19:05Z</time></trkpt><trkpt lat="44.39344191747226" lon="7.619977793625952"><ele>490.0</ele><time>2026-04-08T17:19:06Z</time></trkpt><trkpt lat="44.3934266405409" lon="7.620455308050829"><ele>490.0</ele><time>2026-04-08T17:19:07Z</time></trkpt><trkpt lat="44.39341258683842" lon="7.6209366118249005"><ele>490.0</ele><time>2026-04-08T17:19:08Z</time></trkpt><trkpt lat="44.39339872781081" lon="7.621406612464064"><ele>490.0</ele><time>2026-04-08T17:19:09Z</time></trkpt><trkpt lat="44.39338264908044" lon="7.6218660792789805"><ele>490.0</ele><time>2026-04-08T17:19:10Z</time></trkpt><trkpt lat="44.393366978818754" lon="7.622329601931533"><ele>490.0</ele><time>2026-04-08T17:19:11Z</time></trkpt><trkpt lat="44.393354485744204" lon="7.622797160191582"><ele>490.0</ele><time>2026-04-08T17:19:12Z</time></trkpt><trkpt lat="44.39334090808055" lon="7.623248690292456"><ele>489.5</ele><time>2026-04-08T17:19:13Z</time></trkpt><trkpt lat="44.39332798264591" lon="7.6236764024463515"><ele>489.0</ele><time>2026-04-08T17:19:14Z</time></trkpt><trkpt lat="44.39331742448833" lon="7.624065771211593"><ele>489.0</ele><time>2026-04-08T17:19:15Z</time></trkpt><trkpt lat="44.393303959380404" lon="7.624432745073477"><ele>489.0</ele><time>2026-04-08T17:19:16Z</time></trkpt><trkpt lat="44.39329296045626" lon="7.624780518884208"><ele>488.5</ele><time>2026-04-08T17:19:17Z</time></trkpt><trkpt lat="44.39328311196395" lon="7.625120488720771"><ele>488.0</ele><time>2026-04-08T17:19:18Z</time></trkpt><trkpt lat="44.39327149923509" lon="7.625469225249611"><ele>488.0</ele><time>2026-04-08T17:19:19Z</time></trkpt><trkpt lat="44.39326055282453" lon="7.625842209544114"><ele>488.0</ele><time>2026-04-08T17:19:20Z</time></trkpt><trkpt lat="44.39324496161025" lon="7.62623144674683"><ele>488.5</ele><time>2026-04-08T17:19:21Z</time></trkpt><trkpt lat="44.39322917553964" lon="7.626616519840917"><ele>489.0</ele><time>2026-04-08T17:19:22Z</time></trkpt><trkpt lat="44.393214257762786" lon="7.626976508742359"><ele>487.5</ele><time>2026-04-08T17:19:23Z</time></trkpt><trkpt lat="44.39319968733388" lon="7.627313422825792"><ele>486.0</ele><time>2026-04-08T17:19:24Z</time></trkpt><trkpt lat="44.393188402813756" lon="7.627642277364009"><ele>486.0</ele><time>2026-04-08T17:19:25Z</time></trkpt><trkpt lat="44.39318072672958" lon="7.6279718179781755"><ele>486.0</ele><time>2026-04-08T17:19:26Z</time></trkpt><trkpt lat="44.39317799636907" lon="7.6283026987725195"><ele>486.0</ele><time>2026-04-08T17:19:27Z</time></trkpt><trkpt lat="44.39317557903442" lon="7.628638625129024"><ele>486.0</ele><time>2026-04-08T17:19:28Z</time></trkpt><trkpt lat="44.393173831418615" lon="7.628983042270803"><ele>486.0</ele><time>2026-04-08T17:19:29Z</time></trkpt><trkpt lat="44.39317533001705" lon="7.629341202091134"><ele>486.0</ele><time>2026-04-08T17:19:30Z</time></trkpt><trkpt lat="44.393178265990926" lon="7.6296873403828815"><ele>486.0</ele><time>2026-04-08T17:19:31Z</time></trkpt><trkpt lat="44.39317721636375" lon="7.630006120129969"><ele>486.0</ele><time>2026-04-08T17:19:32Z</time></trkpt><trkpt lat="44.393182845612394" lon="7.630298655942168"><ele>486.0</ele><time>2026-04-08T17:19:33Z</time></trkpt><trkpt lat="44.393193209279175" lon="7.630601924543978"><ele>486.5</ele><time>2026-04-08T17:19:34Z</time></trkpt><trkpt lat="44.39320700530989" lon="7.630918228405746"><ele>487.0</ele><time>2026-04-08T17:19:35Z</time></trkpt><trkpt lat="44.39321612304006" lon="7.631263560547704"><ele>486.5</ele><time>2026-04-08T17:19:36Z</time></trkpt><trkpt lat="44.39321434730503" lon="7.6316155159822445"><ele>486.0</ele><time>2026-04-08T17:19:37Z</time></trkpt><trkpt lat="44.39322112750476" lon="7.631997740617689"><ele>486.0</ele><time>2026-04-08T17:19:38Z</time></trkpt><trkpt lat="44.39323944174539" lon="7.632412964009573"><ele>486.0</ele><time>2026-04-08T17:19:39Z</time></trkpt><trkpt lat="44.39326735460452" lon="7.6328318206135055"><ele>485.0</ele><time>2026-04-08T17:19:40Z</time></trkpt><trkpt lat="44.39330721938104" lon="7.633238680064757"><ele>484.0</ele><time>2026-04-08T17:19:41Z</time></trkpt><trkpt lat="44.39333820995743" lon="7.633634232347396"><ele>484.0</ele><time>2026-04-08T17:19:42Z</time></trkpt><trkpt lat="44.39336559276081" lon="7.634031939606781"><ele>484.0</ele><time>2026-04-08T17:19:43Z</time></trkpt><trkpt lat="44.393394101476716" lon="7.634399289620575"><ele>484.5</ele><time>2026-04-08T17:19:44Z</time></trkpt><trkpt lat="44.393421324010895" lon="7.634723659030914"><ele>485.0</ele><time>2026-04-08T17:19:45Z</time></trkpt><trkpt lat="44.39344423861402" lon="7.635032865267519"><ele>484.66666666666663</ele><time>2026-04-08T17:19:46Z</time></trkpt><trkpt lat="44.393463580217336" lon="7.635324818598342"><ele>484.33333333333337</ele><time>2026-04-08T17:19:47Z</time></trkpt><trkpt lat="44.39347841805435" lon="7.635596157621417"><ele>484.0</ele><time>2026-04-08T17:19:48Z</time></trkpt><trkpt lat="44.39348115466825" lon="7.6358545931637405"><ele>484.0</ele><time>2026-04-08T17:19:49Z</time></trkpt><trkpt lat="44.39347271304709" lon="7.636120666861886"><ele>484.0</ele><time>2026-04-08T17:19:50Z</time></trkpt><trkpt lat="44.39344224382983" lon="7.63639592878664"><ele>484.0</ele><time>2026-04-08T17:19:51Z</time></trkpt><trkpt lat="44.39341120604" lon="7.63665084995636"><ele>483.6666666666667</ele><time>2026-04-08T17:19:52Z</time></trkpt><trkpt lat="44.393384018179795" lon="7.636890706977703"><ele>483.33333333333337</ele><time>2026-04-08T17:19:53Z</time></trkpt><trkpt lat="44.393359868371796" lon="7.637117533640403"><ele>483.0</ele><time>2026-04-08T17:19:54Z</time></trkpt><trkpt lat="44.393345895232315" lon="7.637363181262606"><ele>483.0</ele><time>2026-04-08T17:19:55Z</time></trkpt><trkpt lat="44.39333114109393" lon="7.637649047233331"><ele>483.0</ele><time>2026-04-08T17:19:56Z</time></trkpt><trkpt lat="44.39331300099482" lon="7.637929913601293"><ele>483.0</ele><time>2026-04-08T17:19:57Z</time></trkpt><trkpt lat="44.39329168367768" lon="7.638174694648808"><ele>483.0</ele><time>2026-04-08T17:19:58Z</time></trkpt><trkpt lat="44.39327152013129" lon="7.6383776920832815"><ele>483.0</ele><time>2026-04-08T17:19:59Z</time></trkpt><trkpt lat="44.39325556241655" lon="7.63856273920573"><ele>483.0</ele><time>2026-04-08T17:20:00Z</time></trkpt><trkpt lat="44.393233912732825" lon="7.638721798890966"><ele>483.0</ele><time>2026-04-08T17:20:01Z</time></trkpt><trkpt lat="44.39320444813792" lon="7.638836564319813"><ele>483.0</ele><time>2026-04-08T17:20:02Z</time></trkpt><trkpt lat="44.39318167199005" lon="7.638953407387593"><ele>483.0</ele><time>2026-04-08T17:20:04Z</time></trkpt><trkpt lat="44.39317316448071" lon="7.639058861836762"><ele>483.0</ele><time>2026-04-08T17:20:07Z</time></trkpt><trkpt lat="44.39317225785896" lon="7.639220668635649"><ele>483.0</ele><time>2026-04-08T17:20:08Z</time></trkpt><trkpt lat="44.39317471716388" lon="7.639461171500427"><ele>482.66666666666663</ele><time>2026-04-08T17:20:09Z</time></trkpt><trkpt lat="44.39318864511278" lon="7.639753989310702"><ele>482.3333333333333</ele><time>2026-04-08T17:20:10Z</time></trkpt><trkpt lat="44.39319717958062" lon="7.64007956331689"><ele>482.0</ele><time>2026-04-08T17:20:11Z</time></trkpt><trkpt lat="44.39322102360682" lon="7.64046921206362"><ele>482.0</ele><time>2026-04-08T17:20:12Z</time></trkpt><trkpt lat="44.39321624163077" lon="7.640880618739728"><ele>482.0</ele><time>2026-04-08T17:20:13Z</time></trkpt><trkpt lat="44.393221149380416" lon="7.641303383110748"><ele>481.5</ele><time>2026-04-08T17:20:14Z</time></trkpt><trkpt lat="44.3932273258017" lon="7.641751056818492"><ele>481.0</ele><time>2026-04-08T17:20:15Z</time></trkpt><trkpt lat="44.39323206868884" lon="7.642207541870379"><ele>480.0</ele><time>2026-04-08T17:20:16Z</time></trkpt><trkpt lat="44.393236388604194" lon="7.642675582882919"><ele>479.0</ele><time>2026-04-08T17:20:17Z</time></trkpt><trkpt lat="44.39324009272429" lon="7.643140835921815"><ele>478.5</ele><time>2026-04-08T17:20:18Z</time></trkpt><trkpt lat="44.39324393876515" lon="7.643615040809532"><ele>478.0</ele><time>2026-04-08T17:20:19Z</time></trkpt><trkpt lat="44.393245131219786" lon="7.644085378311667"><ele>478.0</ele><time>2026-04-08T17:20:20Z</time></trkpt><trkpt lat="44.393242033055735" lon="7.644555284390641"><ele>478.0</ele><time>2026-04-08T17:20:21Z</time></trkpt><trkpt lat="44.393237669891484" lon="7.64501420021555"><ele>478.0</ele><time>2026-04-08T17:20:22Z</time></trkpt><trkpt lat="44.39323817108041" lon="7.645478656247819"><ele>478.0</ele><time>2026-04-08T17:20:23Z</time></trkpt><trkpt lat="44.39323943600666" lon="7.645908366767782"><ele>477.0</ele><time>2026-04-08T17:20:24Z</time></trkpt><trkpt lat="44.39324379600715" lon="7.646310484978982"><ele>476.0</ele><time>2026-04-08T17:20:25Z</time></trkpt><trkpt lat="44.3932449397517" lon="7.6467175886643854"><ele>475.5</ele><time>2026-04-08T17:20:26Z</time></trkpt><trkpt lat="44.393246520109464" lon="7.647101766989137"><ele>475.0</ele><time>2026-04-08T17:20:27Z</time></trkpt><trkpt lat="44.39325022984834" lon="7.6474525272665375"><ele>475.0</ele><time>2026-04-08T17:20:28Z</time></trkpt><trkpt lat="44.3932512220624" lon="7.647781347316375"><ele>475.0</ele><time>2026-04-08T17:20:29Z</time></trkpt><trkpt lat="44.39325154605113" lon="7.648104174930838"><ele>476.0</ele><time>2026-04-08T17:20:30Z</time></trkpt><trkpt lat="44.39324788668542" lon="7.648447930357131"><ele>477.0</ele><time>2026-04-08T17:20:31Z</time></trkpt><trkpt lat="44.39323477506641" lon="7.648783783486535"><ele>477.0</ele><time>2026-04-08T17:20:32Z</time></trkpt><trkpt lat="44.393207119619255" lon="7.649136530846143"><ele>477.0</ele><time>2026-04-08T17:20:33Z</time></trkpt><trkpt lat="44.393164209869646" lon="7.6495263639038145"><ele>476.5</ele><time>2026-04-08T17:20:34Z</time></trkpt><trkpt lat="44.39312675717673" lon="7.649930634466901"><ele>476.0</ele><time>2026-04-08T17:20:35Z</time></trkpt><trkpt lat="44.393089603880284" lon="7.650334997263853"><ele>476.0</ele><time>2026-04-08T17:20:36Z</time></trkpt><trkpt lat="44.393054164633824" lon="7.650734106840724"><ele>476.0</ele><time>2026-04-08T17:20:37Z</time></trkpt><trkpt lat="44.39301695987361" lon="7.651134798039679"><ele>477.0</ele><time>2026-04-08T17:20:38Z</time></trkpt><trkpt lat="44.39297714273292" lon="7.651532895691083"><ele>478.0</ele><time>2026-04-08T17:20:39Z</time></trkpt><trkpt lat="44.39294062921283" lon="7.6519162457917576"><ele>478.0</ele><time>2026-04-08T17:20:40Z</time></trkpt><trkpt lat="44.392907931443496" lon="7.652288865629817"><ele>478.0</ele><time>2026-04-08T17:20:41Z</time></trkpt><trkpt lat="44.39287225899717" lon="7.652675525833229"><ele>476.0</ele><time>2026-04-08T17:20:42Z</time></trkpt><trkpt lat="44.39283401707036" lon="7.653077572224816"><ele>474.0</ele><time>2026-04-08T17:20:43Z</time></trkpt><trkpt lat="44.3927962137673" lon="7.653495159793633"><ele>473.0</ele><time>2026-04-08T17:20:44Z</time></trkpt><trkpt lat="44.3927543215378" lon="7.653931344609106"><ele>472.0</ele><time>2026-04-08T17:20:45Z</time></trkpt><trkpt lat="44.39271429986918" lon="7.654370920502893"><ele>471.5</ele><time>2026-04-08T17:20:46Z</time></trkpt><trkpt lat="44.39267852445424" lon="7.654807088302434"><ele>471.0</ele><time>2026-04-08T17:20:47Z</time></trkpt><trkpt lat="44.39263930892046" lon="7.655244823782691"><ele>470.0</ele><time>2026-04-08T17:20:48Z</time></trkpt><trkpt lat="44.39259741906642" lon="7.655678198559108"><ele>469.0</ele><time>2026-04-08T17:20:49Z</time></trkpt><trkpt lat="44.39255887469434" lon="7.656109343822907"><ele>469.5</ele><time>2026-04-08T17:20:50Z</time></trkpt><trkpt lat="44.39251777461861" lon="7.656519247645825"><ele>470.0</ele><time>2026-04-08T17:20:51Z</time></trkpt><trkpt lat="44.39248008500477" lon="7.656888152933595"><ele>470.0</ele><time>2026-04-08T17:20:52Z</time></trkpt><trkpt lat="44.39244038935717" lon="7.657270822076384"><ele>470.0</ele><time>2026-04-08T17:20:53Z</time></trkpt><trkpt lat="44.39241071171633" lon="7.657593007216109"><ele>469.66666666666663</ele><time>2026-04-08T17:20:54Z</time></trkpt><trkpt lat="44.39238288728153" lon="7.657894202374633"><ele>469.33333333333337</ele><time>2026-04-08T17:20:55Z</time></trkpt><trkpt lat="44.392358173003394" lon="7.658175208285679"><ele>469.0</ele><time>2026-04-08T17:20:56Z</time></trkpt><trkpt lat="44.39233232375218" lon="7.658470150154499"><ele>468.6666666666667</ele><time>2026-04-08T17:20:57Z</time></trkpt><trkpt lat="44.39230539149279" lon="7.658760201710765"><ele>468.33333333333337</ele><time>2026-04-08T17:20:58Z</time></trkpt><trkpt lat="44.3922853568599" lon="7.659017682854174"><ele>468.0</ele><time>2026-04-08T17:20:59Z</time></trkpt><trkpt lat="44.39227346443976" lon="7.659239750811821"><ele>468.33333333333337</ele><time>2026-04-08T17:21:00Z</time></trkpt><trkpt lat="44.3922727762131" lon="7.659462229670976"><ele>468.6666666666667</ele><time>2026-04-08T17:21:01Z</time></trkpt><trkpt lat="44.39228789163953" lon="7.659681561196003"><ele>469.0</ele><time>2026-04-08T17:21:02Z</time></trkpt><trkpt lat="44.39232782392196" lon="7.659910924367626"><ele>469.0</ele><time>2026-04-08T17:21:03Z</time></trkpt><trkpt lat="44.392389301510306" lon="7.660134986286985"><ele>469.0</ele><time>2026-04-08T17:21:04Z</time></trkpt><trkpt lat="44.39245790631268" lon="7.660361691534593"><ele>469.0</ele><time>2026-04-08T17:21:05Z</time></trkpt><trkpt lat="44.392539128791654" lon="7.660577932591775"><ele>468.6666666666667</ele><time>2026-04-08T17:21:06Z</time></trkpt><trkpt lat="44.39263732037606" lon="7.660794141200863"><ele>468.33333333333337</ele><time>2026-04-08T17:21:07Z</time></trkpt><trkpt lat="44.39275305546295" lon="7.66103039700825"><ele>468.0</ele><time>2026-04-08T17:21:08Z</time></trkpt><trkpt lat="44.392866974580976" lon="7.661261671199933"><ele>468.0</ele><time>2026-04-08T17:21:09Z</time></trkpt><trkpt lat="44.39297496198147" lon="7.661495809996756"><ele>468.0</ele><time>2026-04-08T17:21:10Z</time></trkpt><trkpt lat="44.393082162403445" lon="7.661734917365977"><ele>468.0</ele><time>2026-04-08T17:21:11Z</time></trkpt><trkpt lat="44.39319304811664" lon="7.661973751368648"><ele>467.5</ele><time>2026-04-08T17:21:12Z</time></trkpt><trkpt lat="44.3933198169739" lon="7.662241950390179"><ele>467.0</ele><time>2026-04-08T17:21:13Z</time></trkpt><trkpt lat="44.39346045460615" lon="7.662566591374063"><ele>466.0</ele><time>2026-04-08T17:21:14Z</time></trkpt><trkpt lat="44.39361831988214" lon="7.662914045808297"><ele>465.0</ele><time>2026-04-08T17:21:15Z</time></trkpt><trkpt lat="44.39380374667559" lon="7.66330846305386"><ele>464.5</ele><time>2026-04-08T17:21:16Z</time></trkpt><trkpt lat="44.39397841417541" lon="7.6636886696146815"><ele>464.0</ele><time>2026-04-08T17:21:17Z</time></trkpt><trkpt lat="44.39416089729361" lon="7.664082337528949"><ele>464.5</ele><time>2026-04-08T17:21:18Z</time></trkpt><trkpt lat="44.394346424424235" lon="7.664484681049755"><ele>465.0</ele><time>2026-04-08T17:21:19Z</time></trkpt><trkpt lat="44.39452902985385" lon="7.664879261956466"><ele>464.5</ele><time>2026-04-08T17:21:20Z</time></trkpt><trkpt lat="44.3947105592321" lon="7.66527627989264"><ele>464.0</ele><time>2026-04-08T17:21:21Z</time></trkpt><trkpt lat="44.394884670247286" lon="7.665659683762148"><ele>464.0</ele><time>2026-04-08T17:21:22Z</time></trkpt><trkpt lat="44.395046919206926" lon="7.666020339146463"><ele>464.0</ele><time>2026-04-08T17:21:23Z</time></trkpt><trkpt lat="44.39519955865848" lon="7.666353500995333"><ele>462.0</ele><time>2026-04-08T17:21:24Z</time></trkpt><trkpt lat="44.39534295082525" lon="7.666660461703563"><ele>460.0</ele><time>2026-04-08T17:21:25Z</time></trkpt><trkpt lat="44.395473618444726" lon="7.6669430033881705"><ele>460.0</ele><time>2026-04-08T17:21:26Z</time></trkpt><trkpt lat="44.395590325134094" lon="7.667211214336781"><ele>460.0</ele><time>2026-04-08T17:21:27Z</time></trkpt><trkpt lat="44.39569501911003" lon="7.667475499735201"><ele>460.0</ele><time>2026-04-08T17:21:28Z</time></trkpt><trkpt lat="44.39579286531193" lon="7.667775439198852"><ele>460.0</ele><time>2026-04-08T17:21:29Z</time></trkpt><trkpt lat="44.395871776828436" lon="7.66810818623049"><ele>460.0</ele><time>2026-04-08T17:21:30Z</time></trkpt><trkpt lat="44.39593385443956" lon="7.668461578678796"><ele>460.0</ele><time>2026-04-08T17:21:31Z</time></trkpt><trkpt lat="44.3959846821224" lon="7.668812179721321"><ele>460.0</ele><time>2026-04-08T17:21:32Z</time></trkpt><trkpt lat="44.396039962940904" lon="7.669151025970313"><ele>460.0</ele><time>2026-04-08T17:21:33Z</time></trkpt><trkpt lat="44.39609586287289" lon="7.6694795262268425"><ele>460.0</ele><time>2026-04-08T17:21:34Z</time></trkpt><trkpt lat="44.396146986781666" lon="7.6697879293300035"><ele>460.0</ele><time>2026-04-08T17:21:35Z</time></trkpt><trkpt lat="44.396199319113954" lon="7.6700767941319725"><ele>460.0</ele><time>2026-04-08T17:21:36Z</time></trkpt><trkpt lat="44.3962472011056" lon="7.670347681646659"><ele>460.0</ele><time>2026-04-08T17:21:37Z</time></trkpt><trkpt lat="44.39629000751757" lon="7.6706033409656635"><ele>460.0</ele><time>2026-04-08T17:21:38Z</time></trkpt><trkpt lat="44.39633055636009" lon="7.670866814654219"><ele>460.0</ele><time>2026-04-08T17:21:39Z</time></trkpt><trkpt lat="44.396385102003755" lon="7.671135161338775"><ele>460.0</ele><time>2026-04-08T17:21:40Z</time></trkpt><trkpt lat="44.396458652632134" lon="7.671420173560889"><ele>459.33333333333337</ele><time>2026-04-08T17:21:41Z</time></trkpt><trkpt lat="44.396550858351006" lon="7.67168918649802"><ele>458.66666666666663</ele><time>2026-04-08T17:21:42Z</time></trkpt><trkpt lat="44.39665601394266" lon="7.6719284429602554"><ele>458.0</ele><time>2026-04-08T17:21:43Z</time></trkpt><trkpt lat="44.396757060607236" lon="7.672152487755465"><ele>458.0</ele><time>2026-04-08T17:21:44Z</time></trkpt><trkpt lat="44.396845347859355" lon="7.672361487943342"><ele>458.0</ele><time>2026-04-08T17:21:45Z</time></trkpt><trkpt lat="44.39692871176188" lon="7.672560813030172"><ele>458.0</ele><time>2026-04-08T17:21:46Z</time></trkpt><trkpt lat="44.39701719546174" lon="7.672777466726589"><ele>458.0</ele><time>2026-04-08T17:21:47Z</time></trkpt><trkpt lat="44.39710737335146" lon="7.672995288213592"><ele>458.0</ele><time>2026-04-08T17:21:48Z</time></trkpt><trkpt lat="44.39720005473096" lon="7.6732127762877695"><ele>458.0</ele><time>2026-04-08T17:21:49Z</time></trkpt><trkpt lat="44.39729249508417" lon="7.673438473535712"><ele>458.0</ele><time>2026-04-08T17:21:50Z</time></trkpt><trkpt lat="44.39738472694897" lon="7.673669703215367"><ele>458.0</ele><time>2026-04-08T17:21:51Z</time></trkpt><trkpt lat="44.39748195581689" lon="7.6739015132061965"><ele>458.0</ele><time>2026-04-08T17:21:52Z</time></trkpt><trkpt lat="44.39757335429671" lon="7.674123609666509"><ele>458.0</ele><time>2026-04-08T17:21:53Z</time></trkpt><trkpt lat="44.39766528105832" lon="7.674356657856282"><ele>458.0</ele><time>2026-04-08T17:21:54Z</time></trkpt><trkpt lat="44.39776675935413" lon="7.674607117931834"><ele>458.0</ele><time>2026-04-08T17:21:55Z</time></trkpt><trkpt lat="44.39787358562194" lon="7.674859877171478"><ele>458.3333333333333</ele><time>2026-04-08T17:21:56Z</time></trkpt><trkpt lat="44.39798138842146" lon="7.675113806150754"><ele>458.66666666666663</ele><time>2026-04-08T17:21:57Z</time></trkpt><trkpt lat="44.398085012996155" lon="7.675371854928635"><ele>459.0</ele><time>2026-04-08T17:21:58Z</time></trkpt><trkpt lat="44.3981791235303" lon="7.675606269002852"><ele>458.33333333333337</ele><time>2026-04-08T17:21:59Z</time></trkpt><trkpt lat="44.39827805854995" lon="7.675842779202943"><ele>457.6666666666667</ele><time>2026-04-08T17:22:00Z</time></trkpt><trkpt lat="44.3983822475078" lon="7.676085050420485"><ele>457.0</ele><time>2026-04-08T17:22:01Z</time></trkpt><trkpt lat="44.39847823396761" lon="7.676328002882406"><ele>456.6666666666667</ele><time>2026-04-08T17:22:02Z</time></trkpt><trkpt lat="44.39858141225169" lon="7.67657660666311"><ele>456.33333333333337</ele><time>2026-04-08T17:22:03Z</time></trkpt><trkpt lat="44.39868696616452" lon="7.676829003830665"><ele>456.0</ele><time>2026-04-08T17:22:04Z</time></trkpt><trkpt lat="44.39879275600165" lon="7.677081527456121"><ele>456.0</ele><time>2026-04-08T17:22:05Z</time></trkpt><trkpt lat="44.39890062511512" lon="7.677344270466375"><ele>456.0</ele><time>2026-04-08T17:22:06Z</time></trkpt><trkpt lat="44.39900847068816" lon="7.677605469445512"><ele>456.0</ele><time>2026-04-08T17:22:07Z</time></trkpt><trkpt lat="44.39911632729002" lon="7.677877140301699"><ele>456.0</ele><time>2026-04-08T17:22:08Z</time></trkpt><trkpt lat="44.39922831669413" lon="7.67815057027208"><ele>456.0</ele><time>2026-04-08T17:22:09Z</time></trkpt><trkpt lat="44.39933340477674" lon="7.678401661808681"><ele>456.0</ele><time>2026-04-08T17:22:10Z</time></trkpt><trkpt lat="44.399432726270184" lon="7.6786413641220745"><ele>456.0</ele><time>2026-04-08T17:22:11Z</time></trkpt><trkpt lat="44.39952135059904" lon="7.678857338291941"><ele>456.0</ele><time>2026-04-08T17:22:12Z</time></trkpt><trkpt lat="44.39961322831778" lon="7.679063204912428"><ele>456.0</ele><time>2026-04-08T17:22:13Z</time></trkpt><trkpt lat="44.39971866684993" lon="7.679270557719772"><ele>455.33333333333337</ele><time>2026-04-08T17:22:14Z</time></trkpt><trkpt lat="44.39983282012954" lon="7.679479510747964"><ele>454.6666666666667</ele><time>2026-04-08T17:22:15Z</time></trkpt><trkpt lat="44.39994822879964" lon="7.6796625790584505"><ele>454.0</ele><time>2026-04-08T17:22:16Z</time></trkpt><trkpt lat="44.400059011338" lon="7.67984031436738"><ele>454.0</ele><time>2026-04-08T17:22:17Z</time></trkpt><trkpt lat="44.40014385748402" lon="7.680021519150162"><ele>454.0</ele><time>2026-04-08T17:22:18Z</time></trkpt><trkpt lat="44.40023673494047" lon="7.680182196626186"><ele>454.0</ele><time>2026-04-08T17:22:19Z</time></trkpt><trkpt lat="44.40032583254859" lon="7.68033633496583"><ele>454.0</ele><time>2026-04-08T17:22:20Z</time></trkpt><trkpt lat="44.40041234315247" lon="7.680485997984177"><ele>453.75</ele><time>2026-04-08T17:22:21Z</time></trkpt><trkpt lat="44.40050358740313" lon="7.68061593752554"><ele>453.5</ele><time>2026-04-08T17:22:22Z</time></trkpt><trkpt lat="44.40057696911448" lon="7.680755180214486"><ele>453.25</ele><time>2026-04-08T17:22:23Z</time></trkpt><trkpt lat="44.400655343038665" lon="7.680878008534219"><ele>453.0</ele><time>2026-04-08T17:22:24Z</time></trkpt><trkpt lat="44.40072390275582" lon="7.681006927114894"><ele>452.5</ele><time>2026-04-08T17:22:25Z</time></trkpt><trkpt lat="44.40078647488978" lon="7.681132555940409"><ele>452.0</ele><time>2026-04-08T17:22:26Z</time></trkpt><trkpt lat="44.40085743893868" lon="7.681269646731665"><ele>451.5</ele><time>2026-04-08T17:22:27Z</time></trkpt><trkpt lat="44.400935756404124" lon="7.681421738492318"><ele>451.0</ele><time>2026-04-08T17:22:28Z</time></trkpt><trkpt lat="44.40102366946125" lon="7.681577141864385"><ele>451.0</ele><time>2026-04-08T17:22:29Z</time></trkpt><trkpt lat="44.40111632904087" lon="7.681732400766812"><ele>451.0</ele><time>2026-04-08T17:22:30Z</time></trkpt><trkpt lat="44.40121194744966" lon="7.681880828180658"><ele>451.0</ele><time>2026-04-08T17:22:31Z</time></trkpt><trkpt lat="44.40131949639712" lon="7.682018509905533"><ele>451.0</ele><time>2026-04-08T17:22:32Z</time></trkpt><trkpt lat="44.40142851576839" lon="7.682152889833398"><ele>451.0</ele><time>2026-04-08T17:22:33Z</time></trkpt><trkpt lat="44.401526367651755" lon="7.682282681227331"><ele>451.0</ele><time>2026-04-08T17:22:34Z</time></trkpt><trkpt lat="44.401613253411604" lon="7.682404979324876"><ele>451.0</ele><time>2026-04-08T17:22:35Z</time></trkpt><trkpt lat="44.401698493453836" lon="7.682523876475274"><ele>451.0</ele><time>2026-04-08T17:22:36Z</time></trkpt><trkpt lat="44.40178817730436" lon="7.682639691667778"><ele>451.0</ele><time>2026-04-08T17:22:37Z</time></trkpt><trkpt lat="44.40187126993802" lon="7.68275749826464"><ele>451.0</ele><time>2026-04-08T17:22:38Z</time></trkpt><trkpt lat="44.40194423051767" lon="7.682875664697058"><ele>451.0</ele><time>2026-04-08T17:22:39Z</time></trkpt><trkpt lat="44.402006149586626" lon="7.682999086964877"><ele>451.0</ele><time>2026-04-08T17:22:40Z</time></trkpt><trkpt lat="44.40206447320615" lon="7.6831417595459275"><ele>451.0</ele><time>2026-04-08T17:22:41Z</time></trkpt><trkpt lat="44.40212282088124" lon="7.6832933462954"><ele>451.0</ele><time>2026-04-08T17:22:42Z</time></trkpt><trkpt lat="44.40218652583113" lon="7.683443732996821"><ele>451.0</ele><time>2026-04-08T17:22:43Z</time></trkpt><trkpt lat="44.4022447486005" lon="7.68358591221163"><ele>451.0</ele><time>2026-04-08T17:22:44Z</time></trkpt><trkpt lat="44.40229153453705" lon="7.683713541388717"><ele>451.20000000000005</ele><time>2026-04-08T17:22:45Z</time></trkpt><trkpt lat="44.40232899515139" lon="7.683829871062636"><ele>451.40000000000003</ele><time>2026-04-08T17:22:46Z</time></trkpt><trkpt lat="44.40237587823852" lon="7.683955541539453"><ele>451.6</ele><time>2026-04-08T17:22:47Z</time></trkpt><trkpt lat="44.40242399522354" lon="7.684097676810685"><ele>451.8</ele><time>2026-04-08T17:22:48Z</time></trkpt><trkpt lat="44.4024640551215" lon="7.684263425684039"><ele>452.0</ele><time>2026-04-08T17:22:49Z</time></trkpt><trkpt lat="44.40250857691758" lon="7.684440659258204"><ele>452.25</ele><time>2026-04-08T17:22:50Z</time></trkpt><trkpt lat="44.402565526021526" lon="7.684643598708715"><ele>452.5</ele><time>2026-04-08T17:22:51Z</time></trkpt><trkpt lat="44.40259106270812" lon="7.684840261996628"><ele>452.75</ele><time>2026-04-08T17:22:52Z</time></trkpt><trkpt lat="44.402631548138906" lon="7.684974517070495"><ele>453.0</ele><time>2026-04-08T17:22:53Z</time></trkpt><trkpt lat="44.40266149295764" lon="7.685082405337095"><ele>453.0</ele><time>2026-04-08T17:22:54Z</time></trkpt><trkpt lat="44.402699426079465" lon="7.685164657386223"><ele>452.99999999999994</ele><time>2026-04-08T17:22:55Z</time></trkpt><trkpt lat="44.40280176902686" lon="7.685270993516138"><ele>452.99999999999994</ele><time>2026-04-08T17:22:57Z</time></trkpt><trkpt lat="44.40286767587492" lon="7.685313009249672"><ele>453.0</ele><time>2026-04-08T17:22:58Z</time></trkpt><trkpt lat="44.40298047962533" lon="7.685250634340533"><ele>453.0</ele><time>2026-04-08T17:22:59Z</time></trkpt><trkpt lat="44.403102386083276" lon="7.685196092523981"><ele>451.66666666666663</ele><time>2026-04-08T17:23:00Z</time></trkpt><trkpt lat="44.40327232619293" lon="7.685158023956813"><ele>450.3333333333333</ele><time>2026-04-08T17:23:01Z</time></trkpt><trkpt lat="44.40346446108015" lon="7.685150915845772"><ele>449.0</ele><time>2026-04-08T17:23:02Z</time></trkpt><trkpt lat="44.403608301546235" lon="7.68509346701044"><ele>449.0</ele><time>2026-04-08T17:23:03Z</time></trkpt><trkpt lat="44.40374117584284" lon="7.685053485230202"><ele>449.0</ele><time>2026-04-08T17:23:04Z</time></trkpt><trkpt lat="44.40386394867803" lon="7.685023220793847"><ele>449.0</ele><time>2026-04-08T17:23:05Z</time></trkpt><trkpt lat="44.40397959059786" lon="7.6849986956172796"><ele>449.0</ele><time>2026-04-08T17:23:06Z</time></trkpt><trkpt lat="44.404099240921816" lon="7.684990096633137"><ele>448.75</ele><time>2026-04-08T17:23:07Z</time></trkpt><trkpt lat="44.404228686042245" lon="7.685019677285535"><ele>448.5</ele><time>2026-04-08T17:23:08Z</time></trkpt><trkpt lat="44.40437045295718" lon="7.685072514676389"><ele>448.25</ele><time>2026-04-08T17:23:09Z</time></trkpt><trkpt lat="44.40451790488173" lon="7.685152561071609"><ele>448.0</ele><time>2026-04-08T17:23:10Z</time></trkpt><trkpt lat="44.40467904294822" lon="7.685282375592925"><ele>448.0</ele><time>2026-04-08T17:23:11Z</time></trkpt><trkpt lat="44.4048377782066" lon="7.685427682339003"><ele>448.0</ele><time>2026-04-08T17:23:12Z</time></trkpt><trkpt lat="44.404975457895596" lon="7.685562446888671"><ele>448.0</ele><time>2026-04-08T17:23:13Z</time></trkpt><trkpt lat="44.40508535292203" lon="7.685674244690067"><ele>448.0</ele><time>2026-04-08T17:23:14Z</time></trkpt><trkpt lat="44.40518381788456" lon="7.685833688897554"><ele>448.0</ele><time>2026-04-08T17:23:15Z</time></trkpt><trkpt lat="44.40530926465843" lon="7.686029359066519"><ele>448.0</ele><time>2026-04-08T17:23:16Z</time></trkpt><trkpt lat="44.405461753936436" lon="7.686263486213919"><ele>448.5</ele><time>2026-04-08T17:23:17Z</time></trkpt><trkpt lat="44.405635091063964" lon="7.686512549057836"><ele>449.0</ele><time>2026-04-08T17:23:18Z</time></trkpt><trkpt lat="44.40581220489532" lon="7.686745021555772"><ele>448.5</ele><time>2026-04-08T17:23:19Z</time></trkpt><trkpt lat="44.4059950042422" lon="7.686981505604222"><ele>448.0</ele><time>2026-04-08T17:23:20Z</time></trkpt><trkpt lat="44.406181035987515" lon="7.687221655951497"><ele>447.0</ele><time>2026-04-08T17:23:21Z</time></trkpt><trkpt lat="44.40636669204546" lon="7.687456209253148"><ele>446.0</ele><time>2026-04-08T17:23:22Z</time></trkpt><trkpt lat="44.40653865412688" lon="7.687665895676286"><ele>446.0</ele><time>2026-04-08T17:23:23Z</time></trkpt><trkpt lat="44.40670223344271" lon="7.687875652712401"><ele>446.0</ele><time>2026-04-08T17:23:24Z</time></trkpt><trkpt lat="44.40687282885118" lon="7.688119316215462"><ele>446.0</ele><time>2026-04-08T17:23:25Z</time></trkpt><trkpt lat="44.407046742676116" lon="7.6884018551195705"><ele>446.0</ele><time>2026-04-08T17:23:26Z</time></trkpt><trkpt lat="44.40723583212621" lon="7.688727601588232"><ele>446.0</ele><time>2026-04-08T17:23:27Z</time></trkpt><trkpt lat="44.40743068965626" lon="7.689058098058885"><ele>446.0</ele><time>2026-04-08T17:23:28Z</time></trkpt><trkpt lat="44.40762909272768" lon="7.689389914978673"><ele>445.0</ele><time>2026-04-08T17:23:29Z</time></trkpt><trkpt lat="44.40782506627949" lon="7.6897238803692085"><ele>444.0</ele><time>2026-04-08T17:23:30Z</time></trkpt><trkpt lat="44.408020299005656" lon="7.690063363931663"><ele>443.5</ele><time>2026-04-08T17:23:31Z</time></trkpt><trkpt lat="44.40821424471118" lon="7.690401970959715"><ele>443.0</ele><time>2026-04-08T17:23:32Z</time></trkpt><trkpt lat="44.40840078330796" lon="7.690728424895799"><ele>443.0</ele><time>2026-04-08T17:23:33Z</time></trkpt><trkpt lat="44.40856912791227" lon="7.691025812718904"><ele>443.0</ele><time>2026-04-08T17:23:34Z</time></trkpt><trkpt lat="44.40872791862356" lon="7.691301375770174"><ele>443.0</ele><time>2026-04-08T17:23:35Z</time></trkpt><trkpt lat="44.40889298570882" lon="7.691582665523558"><ele>443.0</ele><time>2026-04-08T17:23:36Z</time></trkpt><trkpt lat="44.40904431212561" lon="7.691888465465475"><ele>442.0</ele><time>2026-04-08T17:23:37Z</time></trkpt><trkpt lat="44.40921200322058" lon="7.692171335042335"><ele>441.0</ele><time>2026-04-08T17:23:38Z</time></trkpt><trkpt lat="44.40935678717755" lon="7.692472719285848"><ele>441.0</ele><time>2026-04-08T17:23:39Z</time></trkpt><trkpt lat="44.40950598601761" lon="7.692795562989976"><ele>441.0</ele><time>2026-04-08T17:23:40Z</time></trkpt><trkpt lat="44.40964685762826" lon="7.693120684921703"><ele>441.0</ele><time>2026-04-08T17:23:41Z</time></trkpt><trkpt lat="44.409769546196316" lon="7.69341959918958"><ele>441.0</ele><time>2026-04-08T17:23:42Z</time></trkpt><trkpt lat="44.40989185593905" lon="7.693705210495921"><ele>440.5</ele><time>2026-04-08T17:23:43Z</time></trkpt><trkpt lat="44.41000841529064" lon="7.693997284995585"><ele>440.0</ele><time>2026-04-08T17:23:44Z</time></trkpt><trkpt lat="44.41015478988319" lon="7.694272562810176"><ele>439.5</ele><time>2026-04-08T17:23:45Z</time></trkpt><trkpt lat="44.41030296672774" lon="7.694537731879711"><ele>439.0</ele><time>2026-04-08T17:23:46Z</time></trkpt><trkpt lat="44.41044978451749" lon="7.69478494379216"><ele>439.5</ele><time>2026-04-08T17:23:47Z</time></trkpt><trkpt lat="44.4105979497087" lon="7.695018068418831"><ele>440.0</ele><time>2026-04-08T17:23:48Z</time></trkpt><trkpt lat="44.41076157657201" lon="7.695245765983951"><ele>440.0</ele><time>2026-04-08T17:23:49Z</time></trkpt><trkpt lat="44.41094335702904" lon="7.69546502798494"><ele>440.0</ele><time>2026-04-08T17:23:50Z</time></trkpt><trkpt lat="44.41115777832588" lon="7.695674402821746"><ele>440.0</ele><time>2026-04-08T17:23:51Z</time></trkpt><trkpt lat="44.41138608682494" lon="7.695872343397942"><ele>440.0</ele><time>2026-04-08T17:23:52Z</time></trkpt><trkpt lat="44.41160442969041" lon="7.696059092653738"><ele>439.66666666666663</ele><time>2026-04-08T17:23:53Z</time></trkpt><trkpt lat="44.41179621180853" lon="7.696222833210103"><ele>439.33333333333337</ele><time>2026-04-08T17:23:54Z</time></trkpt><trkpt lat="44.4119674888754" lon="7.696371030493239"><ele>439.0</ele><time>2026-04-08T17:23:55Z</time></trkpt><trkpt lat="44.41212703166786" lon="7.696515746161153"><ele>439.33333333333337</ele><time>2026-04-08T17:23:56Z</time></trkpt><trkpt lat="44.41228768132657" lon="7.6966479858083225"><ele>439.66666666666663</ele><time>2026-04-08T17:23:57Z</time></trkpt><trkpt lat="44.41244329372796" lon="7.69683932018561"><ele>440.0</ele><time>2026-04-08T17:23:58Z</time></trkpt><trkpt lat="44.41260367166425" lon="7.697077355212816"><ele>439.0</ele><time>2026-04-08T17:23:59Z</time></trkpt><trkpt lat="44.41276608374409" lon="7.697343176136279"><ele>438.0</ele><time>2026-04-08T17:24:00Z</time></trkpt><trkpt lat="44.41293591831427" lon="7.697626871895773"><ele>437.0</ele><time>2026-04-08T17:24:01Z</time></trkpt><trkpt lat="44.41309896532306" lon="7.697905936363488"><ele>436.0</ele><time>2026-04-08T17:24:02Z</time></trkpt><trkpt lat="44.41326312047491" lon="7.698183962684024"><ele>436.0</ele><time>2026-04-08T17:24:03Z</time></trkpt><trkpt lat="44.41342873179534" lon="7.698455064086369"><ele>436.0</ele><time>2026-04-08T17:24:04Z</time></trkpt><trkpt lat="44.41358320589833" lon="7.698718206259813"><ele>436.5</ele><time>2026-04-08T17:24:05Z</time></trkpt><trkpt lat="44.41372557740031" lon="7.698990777876869"><ele>437.0</ele><time>2026-04-08T17:24:06Z</time></trkpt><trkpt lat="44.413901369771544" lon="7.699222919459242"><ele>437.0</ele><time>2026-04-08T17:24:07Z</time></trkpt><trkpt lat="44.4140695684625" lon="7.699467443856267"><ele>437.0</ele><time>2026-04-08T17:24:08Z</time></trkpt><trkpt lat="44.41425025076245" lon="7.699713790405911"><ele>437.0</ele><time>2026-04-08T17:24:09Z</time></trkpt><trkpt lat="44.41444233102848" lon="7.699956164781353"><ele>437.0</ele><time>2026-04-08T17:24:10Z</time></trkpt><trkpt lat="44.41464292146687" lon="7.700206417638762"><ele>436.0</ele><time>2026-04-08T17:24:11Z</time></trkpt><trkpt lat="44.41484868253106" lon="7.700455965239762"><ele>435.0</ele><time>2026-04-08T17:24:12Z</time></trkpt><trkpt lat="44.4150535413148" lon="7.7006847922937425"><ele>435.0</ele><time>2026-04-08T17:24:13Z</time></trkpt><trkpt lat="44.415243978608956" lon="7.700905515313718"><ele>435.0</ele><time>2026-04-08T17:24:14Z</time></trkpt><trkpt lat="44.41543373100651" lon="7.701132384790999"><ele>435.0</ele><time>2026-04-08T17:24:15Z</time></trkpt><trkpt lat="44.41562726095134" lon="7.70135490812841"><ele>435.0</ele><time>2026-04-08T17:24:16Z</time></trkpt><trkpt lat="44.415817784043206" lon="7.701566857601324"><ele>435.0</ele><time>2026-04-08T17:24:17Z</time></trkpt><trkpt lat="44.415999366345496" lon="7.701762042243964"><ele>435.0</ele><time>2026-04-08T17:24:18Z</time></trkpt><trkpt lat="44.41618399604728" lon="7.701945438179573"><ele>435.0</ele><time>2026-04-08T17:24:19Z</time></trkpt><trkpt lat="44.416383356295256" lon="7.7021230348847"><ele>435.0</ele><time>2026-04-08T17:24:20Z</time></trkpt><trkpt lat="44.41660057531477" lon="7.702304202825002"><ele>435.0</ele><time>2026-04-08T17:24:21Z</time></trkpt><trkpt lat="44.41683831419273" lon="7.702488970700977"><ele>435.0</ele><time>2026-04-08T17:24:22Z</time></trkpt><trkpt lat="44.41707748729993" lon="7.702657991561788"><ele>435.0</ele><time>2026-04-08T17:24:23Z</time></trkpt><trkpt lat="44.41734075216262" lon="7.702836933171412"><ele>435.0</ele><time>2026-04-08T17:24:24Z</time></trkpt><trkpt lat="44.417613952067214" lon="7.7030172590351"><ele>435.0</ele><time>2026-04-08T17:24:25Z</time></trkpt><trkpt lat="44.417881204438956" lon="7.703188771850037"><ele>435.0</ele><time>2026-04-08T17:24:26Z</time></trkpt><trkpt lat="44.418119574403136" lon="7.70333647243816"><ele>435.0</ele><time>2026-04-08T17:24:27Z</time></trkpt><trkpt lat="44.418335169830065" lon="7.703472615157581"><ele>435.0</ele><time>2026-04-08T17:24:28Z</time></trkpt><trkpt lat="44.418536212430936" lon="7.703602474178466"><ele>435.0</ele><time>2026-04-08T17:24:29Z</time></trkpt><trkpt lat="44.41872019269697" lon="7.703720365669957"><ele>435.0</ele><time>2026-04-08T17:24:30Z</time></trkpt><trkpt lat="44.4188859313768" lon="7.703827642281691"><ele>435.0</ele><time>2026-04-08T17:24:31Z</time></trkpt><trkpt lat="44.41902760655172" lon="7.7039243919531755"><ele>434.66666666666663</ele><time>2026-04-08T17:24:32Z</time></trkpt><trkpt lat="44.41918920837126" lon="7.704030698432878"><ele>434.3333333333333</ele><time>2026-04-08T17:24:33Z</time></trkpt><trkpt lat="44.41935871266223" lon="7.704125307124754"><ele>434.0</ele><time>2026-04-08T17:24:34Z</time></trkpt><trkpt lat="44.419528024381" lon="7.70422267400657"><ele>434.0</ele><time>2026-04-08T17:24:35Z</time></trkpt><trkpt lat="44.41968012426586" lon="7.7043188577316775"><ele>434.0</ele><time>2026-04-08T17:24:36Z</time></trkpt><trkpt lat="44.419818205936366" lon="7.704401666329762"><ele>434.0</ele><time>2026-04-08T17:24:37Z</time></trkpt><trkpt lat="44.41994651723168" lon="7.70447683611591"><ele>434.0</ele><time>2026-04-08T17:24:38Z</time></trkpt><trkpt lat="44.42006953391246" lon="7.704553478416426"><ele>434.0</ele><time>2026-04-08T17:24:39Z</time></trkpt><trkpt lat="44.420191319925806" lon="7.704628700817306"><ele>434.0</ele><time>2026-04-08T17:24:40Z</time></trkpt><trkpt lat="44.42029852470658" lon="7.704693963112306"><ele>434.0</ele><time>2026-04-08T17:24:41Z</time></trkpt><trkpt lat="44.420415748903025" lon="7.704777024788353"><ele>434.0</ele><time>2026-04-08T17:24:42Z</time></trkpt><trkpt lat="44.420518569016366" lon="7.70486170202496"><ele>434.0</ele><time>2026-04-08T17:24:43Z</time></trkpt><trkpt lat="44.42063295885567" lon="7.7049670055896415"><ele>434.0</ele><time>2026-04-08T17:24:44Z</time></trkpt><trkpt lat="44.42074041171006" lon="7.705087959534598"><ele>434.0</ele><time>2026-04-08T17:24:45Z</time></trkpt><trkpt lat="44.42085087983712" lon="7.705232017270577"><ele>433.66666666666663</ele><time>2026-04-08T17:24:46Z</time></trkpt><trkpt lat="44.42097850219313" lon="7.705388811278903"><ele>433.33333333333337</ele><time>2026-04-08T17:24:47Z</time></trkpt><trkpt lat="44.421062235286506" lon="7.705512918557715"><ele>433.0</ele><time>2026-04-08T17:24:48Z</time></trkpt><trkpt lat="44.42118642153243" lon="7.705698816158914"><ele>433.0</ele><time>2026-04-08T17:24:49Z</time></trkpt><trkpt lat="44.42130888516763" lon="7.705886889672844"><ele>433.0</ele><time>2026-04-08T17:24:50Z</time></trkpt><trkpt lat="44.42143179961225" lon="7.706062949156362"><ele>433.0</ele><time>2026-04-08T17:24:51Z</time></trkpt><trkpt lat="44.42155190927026" lon="7.7062275251799806"><ele>432.6666666666667</ele><time>2026-04-08T17:24:52Z</time></trkpt><trkpt lat="44.42166272531213" lon="7.706395735018392"><ele>432.33333333333337</ele><time>2026-04-08T17:24:53Z</time></trkpt><trkpt lat="44.42177171902922" lon="7.706552060163695"><ele>432.0</ele><time>2026-04-08T17:24:54Z</time></trkpt><trkpt lat="44.421875488673734" lon="7.706689790518149"><ele>432.0</ele><time>2026-04-08T17:24:55Z</time></trkpt><trkpt lat="44.42197118739246" lon="7.706813440611506"><ele>432.00000000000006</ele><time>2026-04-08T17:24:56Z</time></trkpt><trkpt lat="44.42205954256104" lon="7.7069239822648745"><ele>432.00000000000006</ele><time>2026-04-08T17:24:57Z</time></trkpt><trkpt lat="44.422122431180284" lon="7.707018791069138"><ele>432.0</ele><time>2026-04-08T17:24:58Z</time></trkpt><trkpt lat="44.42217004130415" lon="7.707091099719803"><ele>432.0</ele><time>2026-04-08T17:24:59Z</time></trkpt><trkpt lat="44.42222138232249" lon="7.7071731208295144"><ele>431.8</ele><time>2026-04-08T17:25:00Z</time></trkpt><trkpt lat="44.42226689436357" lon="7.707242616403132"><ele>431.6</ele><time>2026-04-08T17:25:01Z</time></trkpt><trkpt lat="44.42231918078837" lon="7.707310926186062"><ele>431.40000000000003</ele><time>2026-04-08T17:25:02Z</time></trkpt><trkpt lat="44.42236533704545" lon="7.707379946214405"><ele>431.20000000000005</ele><time>2026-04-08T17:25:03Z</time></trkpt><trkpt lat="44.42242894665535" lon="7.707490595917406"><ele>431.0</ele><time>2026-04-08T17:25:04Z</time></trkpt><trkpt lat="44.42251102250131" lon="7.707679862025882"><ele>431.66666666666663</ele><time>2026-04-08T17:25:05Z</time></trkpt><trkpt lat="44.4226000855671" lon="7.707952402521625"><ele>432.33333333333337</ele><time>2026-04-08T17:25:06Z</time></trkpt><trkpt lat="44.42267273685435" lon="7.708215931143238"><ele>433.0</ele><time>2026-04-08T17:25:07Z</time></trkpt><trkpt lat="44.42273822028351" lon="7.7084244018253605"><ele>432.75</ele><time>2026-04-08T17:25:08Z</time></trkpt><trkpt lat="44.42279872029972" lon="7.708612379318661"><ele>432.5</ele><time>2026-04-08T17:25:09Z</time></trkpt><trkpt lat="44.42283718166762" lon="7.708773928180259"><ele>432.25</ele><time>2026-04-08T17:25:10Z</time></trkpt><trkpt lat="44.42288636474887" lon="7.708929421137402"><ele>432.0</ele><time>2026-04-08T17:25:11Z</time></trkpt><trkpt lat="44.4229349372369" lon="7.709096038020371"><ele>431.33333333333337</ele><time>2026-04-08T17:25:12Z</time></trkpt><trkpt lat="44.42298605360288" lon="7.709291234051058"><ele>430.6666666666667</ele><time>2026-04-08T17:25:13Z</time></trkpt><trkpt lat="44.42305448904355" lon="7.7095027932898414"><ele>430.0</ele><time>2026-04-08T17:25:14Z</time></trkpt><trkpt lat="44.423113208588354" lon="7.709705980255739"><ele>429.75</ele><time>2026-04-08T17:25:15Z</time></trkpt><trkpt lat="44.42314410936238" lon="7.70984880891995"><ele>429.5</ele><time>2026-04-08T17:25:16Z</time></trkpt><trkpt lat="44.423174745230774" lon="7.7099539327853"><ele>429.25</ele><time>2026-04-08T17:25:17Z</time></trkpt><trkpt lat="44.42320632999233" lon="7.710062008928561"><ele>429.0</ele><time>2026-04-08T17:25:19Z</time></trkpt><trkpt lat="44.423476251514984" lon="7.709998432213028"><ele>429.0</ele><time>2026-04-08T17:25:23Z</time></trkpt><trkpt lat="44.423653595461325" lon="7.709941280947764"><ele>429.0</ele><time>2026-04-08T17:25:24Z</time></trkpt><trkpt lat="44.42383369293301" lon="7.709882672612795"><ele>429.0</ele><time>2026-04-08T17:25:25Z</time></trkpt><trkpt lat="44.42401475062362" lon="7.70982296985542"><ele>429.33333333333337</ele><time>2026-04-08T17:25:26Z</time></trkpt><trkpt lat="44.42419082410953" lon="7.7097647778293785"><ele>429.6666666666667</ele><time>2026-04-08T17:25:27Z</time></trkpt><trkpt lat="44.424348283126946" lon="7.709708486658091"><ele>430.0</ele><time>2026-04-08T17:25:28Z</time></trkpt><trkpt lat="44.42448957761324" lon="7.709636297390684"><ele>430.0</ele><time>2026-04-08T17:25:29Z</time></trkpt><trkpt lat="44.42463714625558" lon="7.709584453647537"><ele>430.0</ele><time>2026-04-08T17:25:30Z</time></trkpt><trkpt lat="44.42478988702602" lon="7.709526001391046"><ele>430.0</ele><time>2026-04-08T17:25:31Z</time></trkpt><trkpt lat="44.42493762338394" lon="7.709466175986138"><ele>430.6666666666667</ele><time>2026-04-08T17:25:32Z</time></trkpt><trkpt lat="44.42510225271627" lon="7.709395028089571"><ele>431.33333333333337</ele><time>2026-04-08T17:25:33Z</time></trkpt><trkpt lat="44.42526055330292" lon="7.709312381993052"><ele>432.0</ele><time>2026-04-08T17:25:34Z</time></trkpt><trkpt lat="44.425416632757965" lon="7.709252171491581"><ele>431.33333333333337</ele><time>2026-04-08T17:25:35Z</time></trkpt><trkpt lat="44.42554863126978" lon="7.709160721741986"><ele>430.6666666666667</ele><time>2026-04-08T17:25:36Z</time></trkpt><trkpt lat="44.425688184851744" lon="7.709085984180397"><ele>430.0</ele><time>2026-04-08T17:25:37Z</time></trkpt><trkpt lat="44.42584808464642" lon="7.708999297445074"><ele>430.0</ele><time>2026-04-08T17:25:38Z</time></trkpt><trkpt lat="44.42601663603079" lon="7.708888801856043"><ele>430.0</ele><time>2026-04-08T17:25:39Z</time></trkpt><trkpt lat="44.426181840753" lon="7.708751365251988"><ele>430.0</ele><time>2026-04-08T17:25:40Z</time></trkpt><trkpt lat="44.42633210086237" lon="7.708616546640191"><ele>430.0</ele><time>2026-04-08T17:25:41Z</time></trkpt><trkpt lat="44.42647911529262" lon="7.708464416019374"><ele>430.0</ele><time>2026-04-08T17:25:42Z</time></trkpt><trkpt lat="44.4266379607838" lon="7.7082811461809895"><ele>430.0</ele><time>2026-04-08T17:25:43Z</time></trkpt><trkpt lat="44.426794211058656" lon="7.708092226094315"><ele>430.0</ele><time>2026-04-08T17:25:44Z</time></trkpt><trkpt lat="44.42697930160834" lon="7.707856803386274"><ele>430.0</ele><time>2026-04-08T17:25:45Z</time></trkpt><trkpt lat="44.42720026181958" lon="7.707592198613438"><ele>429.5</ele><time>2026-04-08T17:25:46Z</time></trkpt><trkpt lat="44.42743387878698" lon="7.707316987339951"><ele>429.0</ele><time>2026-04-08T17:25:47Z</time></trkpt><trkpt lat="44.427677752439685" lon="7.70703897758346"><ele>428.5</ele><time>2026-04-08T17:25:48Z</time></trkpt><trkpt lat="44.427923764477306" lon="7.7067591358234635"><ele>428.0</ele><time>2026-04-08T17:25:49Z</time></trkpt><trkpt lat="44.428173369305135" lon="7.70647772995553"><ele>428.0</ele><time>2026-04-08T17:25:50Z</time></trkpt><trkpt lat="44.42843076113746" lon="7.706223708095316"><ele>428.0</ele><time>2026-04-08T17:25:51Z</time></trkpt><trkpt lat="44.42866644303256" lon="7.705969280794103"><ele>428.5</ele><time>2026-04-08T17:25:52Z</time></trkpt><trkpt lat="44.42888243022514" lon="7.705736114686925"><ele>429.0</ele><time>2026-04-08T17:25:53Z</time></trkpt><trkpt lat="44.4290741125752" lon="7.70552537272438"><ele>429.0</ele><time>2026-04-08T17:25:54Z</time></trkpt><trkpt lat="44.42924474015752" lon="7.705311424077232"><ele>429.0</ele><time>2026-04-08T17:25:55Z</time></trkpt><trkpt lat="44.42941580956306" lon="7.7051567974798445"><ele>429.0</ele><time>2026-04-08T17:25:56Z</time></trkpt><trkpt lat="44.42955215440859" lon="7.705013580136352"><ele>429.0</ele><time>2026-04-08T17:25:57Z</time></trkpt><trkpt lat="44.429673927078966" lon="7.704878657586662"><ele>429.0</ele><time>2026-04-08T17:25:58Z</time></trkpt><trkpt lat="44.42978708456898" lon="7.704749295773113"><ele>429.0</ele><time>2026-04-08T17:25:59Z</time></trkpt><trkpt lat="44.429886215202714" lon="7.704629104358185"><ele>429.0</ele><time>2026-04-08T17:26:00Z</time></trkpt><trkpt lat="44.4299640771008" lon="7.704484841333693"><ele>428.66666666666663</ele><time>2026-04-08T17:26:01Z</time></trkpt><trkpt lat="44.43006393085917" lon="7.70430967356028"><ele>428.3333333333333</ele><time>2026-04-08T17:26:02Z</time></trkpt><trkpt lat="44.43017624655032" lon="7.704078397280045"><ele>428.0</ele><time>2026-04-08T17:26:03Z</time></trkpt><trkpt lat="44.43031176287912" lon="7.7038155669611"><ele>428.0</ele><time>2026-04-08T17:26:04Z</time></trkpt><trkpt lat="44.430433716169624" lon="7.7035394574627105"><ele>428.0</ele><time>2026-04-08T17:26:05Z</time></trkpt><trkpt lat="44.4305302470951" lon="7.703318616335975"><ele>428.0</ele><time>2026-04-08T17:26:06Z</time></trkpt><trkpt lat="44.430607621223515" lon="7.7031195313203735"><ele>428.3333333333333</ele><time>2026-04-08T17:26:07Z</time></trkpt><trkpt lat="44.43066631082275" lon="7.702913833832043"><ele>428.66666666666663</ele><time>2026-04-08T17:26:08Z</time></trkpt><trkpt lat="44.430714996300054" lon="7.702671284342303"><ele>429.0</ele><time>2026-04-08T17:26:09Z</time></trkpt><trkpt lat="44.43075269459633" lon="7.702402832943386"><ele>429.0</ele><time>2026-04-08T17:26:10Z</time></trkpt><trkpt lat="44.43076576111072" lon="7.702100249332896"><ele>429.0</ele><time>2026-04-08T17:26:11Z</time></trkpt><trkpt lat="44.430811527262065" lon="7.701784168770241"><ele>429.0</ele><time>2026-04-08T17:26:12Z</time></trkpt><trkpt lat="44.430846247217936" lon="7.701420684633443"><ele>430.0</ele><time>2026-04-08T17:26:13Z</time></trkpt><trkpt lat="44.4308809714126" lon="7.701030576988402"><ele>431.0</ele><time>2026-04-08T17:26:14Z</time></trkpt><trkpt lat="44.43091742505165" lon="7.700620907567102"><ele>431.0</ele><time>2026-04-08T17:26:15Z</time></trkpt><trkpt lat="44.430955020927" lon="7.700202312124022"><ele>431.0</ele><time>2026-04-08T17:26:16Z</time></trkpt><trkpt lat="44.43099328919264" lon="7.699787359382872"><ele>431.0</ele><time>2026-04-08T17:26:17Z</time></trkpt><trkpt lat="44.43102835243463" lon="7.699383546071444"><ele>431.0</ele><time>2026-04-08T17:26:18Z</time></trkpt><trkpt lat="44.431056534590944" lon="7.698988695725879"><ele>431.0</ele><time>2026-04-08T17:26:19Z</time></trkpt><trkpt lat="44.431079945182304" lon="7.6986284885565235"><ele>431.0</ele><time>2026-04-08T17:26:20Z</time></trkpt><trkpt lat="44.43109782715687" lon="7.6983028099164255"><ele>431.0</ele><time>2026-04-08T17:26:21Z</time></trkpt><trkpt lat="44.43111457855868" lon="7.69801042222279"><ele>431.0</ele><time>2026-04-08T17:26:22Z</time></trkpt><trkpt lat="44.431119836305164" lon="7.697737387751258"><ele>431.0</ele><time>2026-04-08T17:26:23Z</time></trkpt><trkpt lat="44.43113956733916" lon="7.697477488230668"><ele>431.0</ele><time>2026-04-08T17:26:24Z</time></trkpt><trkpt lat="44.43116880069845" lon="7.6971999694300655"><ele>431.0</ele><time>2026-04-08T17:26:25Z</time></trkpt><trkpt lat="44.43123858791473" lon="7.69690518205396"><ele>431.0</ele><time>2026-04-08T17:26:26Z</time></trkpt><trkpt lat="44.43131469420041" lon="7.696591456326578"><ele>431.0</ele><time>2026-04-08T17:26:27Z</time></trkpt><trkpt lat="44.43141070174641" lon="7.696261573513928"><ele>431.0</ele><time>2026-04-08T17:26:28Z</time></trkpt><trkpt lat="44.43151961073047" lon="7.69591626280382"><ele>431.5</ele><time>2026-04-08T17:26:29Z</time></trkpt><trkpt lat="44.43163294430814" lon="7.695562713088691"><ele>432.0</ele><time>2026-04-08T17:26:30Z</time></trkpt><trkpt lat="44.43173042772306" lon="7.695258608417196"><ele>432.0</ele><time>2026-04-08T17:26:31Z</time></trkpt><trkpt lat="44.43181669536489" lon="7.6949851813838235"><ele>432.0</ele><time>2026-04-08T17:26:32Z</time></trkpt><trkpt lat="44.43187194143727" lon="7.6947386331199965"><ele>432.0</ele><time>2026-04-08T17:26:33Z</time></trkpt><trkpt lat="44.43192834867567" lon="7.694505014198116"><ele>432.0</ele><time>2026-04-08T17:26:34Z</time></trkpt><trkpt lat="44.43196925815262" lon="7.694244647939868"><ele>432.0</ele><time>2026-04-08T17:26:35Z</time></trkpt><trkpt lat="44.43201975493738" lon="7.693952320394631"><ele>432.0</ele><time>2026-04-08T17:26:36Z</time></trkpt><trkpt lat="44.432067824833325" lon="7.693603242640136"><ele>432.5</ele><time>2026-04-08T17:26:37Z</time></trkpt><trkpt lat="44.432122630807996" lon="7.693205224582822"><ele>433.0</ele><time>2026-04-08T17:26:38Z</time></trkpt><trkpt lat="44.432164592921445" lon="7.692777823566805"><ele>433.0</ele><time>2026-04-08T17:26:39Z</time></trkpt><trkpt lat="44.43222350204997" lon="7.6923447116069505"><ele>433.0</ele><time>2026-04-08T17:26:40Z</time></trkpt><trkpt lat="44.43228661792679" lon="7.691906058037496"><ele>433.0</ele><time>2026-04-08T17:26:41Z</time></trkpt><trkpt lat="44.43234933240232" lon="7.691468972078276"><ele>433.0</ele><time>2026-04-08T17:26:42Z</time></trkpt><trkpt lat="44.432416718900186" lon="7.691019213888646"><ele>433.0</ele><time>2026-04-08T17:26:43Z</time></trkpt><trkpt lat="44.43248342566613" lon="7.690568431344529"><ele>433.0</ele><time>2026-04-08T17:26:44Z</time></trkpt><trkpt lat="44.43254809166722" lon="7.690119940474394"><ele>433.0</ele><time>2026-04-08T17:26:45Z</time></trkpt><trkpt lat="44.432607945455985" lon="7.689692545149247"><ele>433.0</ele><time>2026-04-08T17:26:46Z</time></trkpt><trkpt lat="44.43267122569197" lon="7.689267798738662"><ele>433.0</ele><time>2026-04-08T17:26:47Z</time></trkpt><trkpt lat="44.432734074907295" lon="7.6888561679089715"><ele>433.0</ele><time>2026-04-08T17:26:48Z</time></trkpt><trkpt lat="44.4327882227537" lon="7.688483701918533"><ele>433.0</ele><time>2026-04-08T17:26:49Z</time></trkpt><trkpt lat="44.432835778648155" lon="7.688141989355691"><ele>433.0</ele><time>2026-04-08T17:26:50Z</time></trkpt><trkpt lat="44.4328824107039" lon="7.687826186323071"><ele>432.6666666666667</ele><time>2026-04-08T17:26:51Z</time></trkpt><trkpt lat="44.43292140797584" lon="7.687555054344637"><ele>432.33333333333337</ele><time>2026-04-08T17:26:52Z</time></trkpt><trkpt lat="44.43295519753522" lon="7.687311164796334"><ele>432.0</ele><time>2026-04-08T17:26:53Z</time></trkpt><trkpt lat="44.432980087579224" lon="7.687096054886119"><ele>432.0</ele><time>2026-04-08T17:26:54Z</time></trkpt><trkpt lat="44.432993026509315" lon="7.686890103802807"><ele>432.0</ele><time>2026-04-08T17:26:55Z</time></trkpt><trkpt lat="44.43298721005422" lon="7.686689670653127"><ele>432.0</ele><time>2026-04-08T17:26:56Z</time></trkpt><trkpt lat="44.432962472808" lon="7.686452952648779"><ele>432.0</ele><time>2026-04-08T17:26:57Z</time></trkpt><trkpt lat="44.43291243737863" lon="7.686175943573791"><ele>432.0</ele><time>2026-04-08T17:26:58Z</time></trkpt><trkpt lat="44.43284380388946" lon="7.685867526336657"><ele>432.0</ele><time>2026-04-08T17:26:59Z</time></trkpt><trkpt lat="44.43276863196968" lon="7.685516816778783"><ele>432.5</ele><time>2026-04-08T17:27:00Z</time></trkpt><trkpt lat="44.43268317412854" lon="7.685115150173438"><ele>433.0</ele><time>2026-04-08T17:27:01Z</time></trkpt><trkpt lat="44.43259311709851" lon="7.684671763898856"><ele>434.0</ele><time>2026-04-08T17:27:02Z</time></trkpt><trkpt lat="44.43249575779994" lon="7.684195564826363"><ele>435.0</ele><time>2026-04-08T17:27:03Z</time></trkpt><trkpt lat="44.432390218780036" lon="7.683701728157014"><ele>435.0</ele><time>2026-04-08T17:27:04Z</time></trkpt><trkpt lat="44.432283902789656" lon="7.6831872218788115"><ele>435.0</ele><time>2026-04-08T17:27:05Z</time></trkpt><trkpt lat="44.43218037488212" lon="7.682699306681422"><ele>435.0</ele><time>2026-04-08T17:27:06Z</time></trkpt><trkpt lat="44.432080578960075" lon="7.682233264159502"><ele>435.0</ele><time>2026-04-08T17:27:07Z</time></trkpt><trkpt lat="44.431986230329194" lon="7.681788882526407"><ele>435.0</ele><time>2026-04-08T17:27:08Z</time></trkpt><trkpt lat="44.43190007427751" lon="7.681377944357036"><ele>435.0</ele><time>2026-04-08T17:27:09Z</time></trkpt><trkpt lat="44.431816441510314" lon="7.68098304838365"><ele>435.0</ele><time>2026-04-08T17:27:10Z</time></trkpt><trkpt lat="44.431730677691746" lon="7.680590638175462"><ele>435.0</ele><time>2026-04-08T17:27:11Z</time></trkpt><trkpt lat="44.43164588011889" lon="7.680198813043569"><ele>435.0</ele><time>2026-04-08T17:27:12Z</time></trkpt><trkpt lat="44.43157049601682" lon="7.679840760659228"><ele>435.0</ele><time>2026-04-08T17:27:13Z</time></trkpt><trkpt lat="44.43150153797903" lon="7.679507574818602"><ele>436.0</ele><time>2026-04-08T17:27:14Z</time></trkpt><trkpt lat="44.43143769574378" lon="7.6791937069267115"><ele>437.0</ele><time>2026-04-08T17:27:15Z</time></trkpt><trkpt lat="44.4313864044847" lon="7.6788775837694265"><ele>437.0</ele><time>2026-04-08T17:27:16Z</time></trkpt><trkpt lat="44.43134050189929" lon="7.678520953820239"><ele>437.0</ele><time>2026-04-08T17:27:17Z</time></trkpt><trkpt lat="44.431306545411665" lon="7.678129374373505"><ele>438.5</ele><time>2026-04-08T17:27:18Z</time></trkpt><trkpt lat="44.431279805284326" lon="7.677718681795804"><ele>440.0</ele><time>2026-04-08T17:27:19Z</time></trkpt><trkpt lat="44.43125415478229" lon="7.677296960817974"><ele>440.5</ele><time>2026-04-08T17:27:20Z</time></trkpt><trkpt lat="44.43122113803013" lon="7.676888455093253"><ele>441.0</ele><time>2026-04-08T17:27:21Z</time></trkpt><trkpt lat="44.431191973474206" lon="7.676525768633431"><ele>441.0</ele><time>2026-04-08T17:27:22Z</time></trkpt><trkpt lat="44.43117092681463" lon="7.676208477855411"><ele>441.0</ele><time>2026-04-08T17:27:23Z</time></trkpt><trkpt lat="44.43114944175785" lon="7.675932814367314"><ele>441.0</ele><time>2026-04-08T17:27:24Z</time></trkpt><trkpt lat="44.431135009172166" lon="7.675677184763289"><ele>441.0</ele><time>2026-04-08T17:27:25Z</time></trkpt><trkpt lat="44.43112880806939" lon="7.675443180895663"><ele>441.0</ele><time>2026-04-08T17:27:26Z</time></trkpt><trkpt lat="44.431138771147616" lon="7.6751913278316835"><ele>441.0</ele><time>2026-04-08T17:27:27Z</time></trkpt><trkpt lat="44.43116977146219" lon="7.674893199320103"><ele>441.5</ele><time>2026-04-08T17:27:28Z</time></trkpt><trkpt lat="44.43122680654854" lon="7.674561140059097"><ele>442.0</ele><time>2026-04-08T17:27:29Z</time></trkpt><trkpt lat="44.43130611103934" lon="7.67419111338276"><ele>441.0</ele><time>2026-04-08T17:27:30Z</time></trkpt><trkpt lat="44.4313957608134" lon="7.67378991125281"><ele>440.0</ele><time>2026-04-08T17:27:31Z</time></trkpt><trkpt lat="44.43149393390864" lon="7.6733626013107115"><ele>440.0</ele><time>2026-04-08T17:27:32Z</time></trkpt><trkpt lat="44.431593374905496" lon="7.672927130709858"><ele>440.0</ele><time>2026-04-08T17:27:33Z</time></trkpt><trkpt lat="44.43169268650942" lon="7.672485469302161"><ele>439.5</ele><time>2026-04-08T17:27:34Z</time></trkpt><trkpt lat="44.431789293773775" lon="7.672062198849303"><ele>439.0</ele><time>2026-04-08T17:27:35Z</time></trkpt><trkpt lat="44.431872755291394" lon="7.671688621636441"><ele>440.5</ele><time>2026-04-08T17:27:36Z</time></trkpt><trkpt lat="44.43194896913449" lon="7.671343330700283"><ele>442.0</ele><time>2026-04-08T17:27:37Z</time></trkpt><trkpt lat="44.43202232615916" lon="7.6710401116905125"><ele>442.5</ele><time>2026-04-08T17:27:38Z</time></trkpt><trkpt lat="44.432101751508924" lon="7.6707291474509915"><ele>443.0</ele><time>2026-04-08T17:27:39Z</time></trkpt><trkpt lat="44.432190936699726" lon="7.670413413772975"><ele>443.0</ele><time>2026-04-08T17:27:40Z</time></trkpt><trkpt lat="44.43229350679766" lon="7.670107435485763"><ele>443.0</ele><time>2026-04-08T17:27:41Z</time></trkpt><trkpt lat="44.43241770518222" lon="7.66978420159054"><ele>443.0</ele><time>2026-04-08T17:27:42Z</time></trkpt><trkpt lat="44.43253918660394" lon="7.669471100786064"><ele>443.0</ele><time>2026-04-08T17:27:43Z</time></trkpt><trkpt lat="44.432651599243904" lon="7.669196833915107"><ele>442.66666666666663</ele><time>2026-04-08T17:27:44Z</time></trkpt><trkpt lat="44.432778932386036" lon="7.668945514314291"><ele>442.33333333333337</ele><time>2026-04-08T17:27:45Z</time></trkpt><trkpt lat="44.43288981433417" lon="7.668677722593424"><ele>442.0</ele><time>2026-04-08T17:27:46Z</time></trkpt><trkpt lat="44.43300299977644" lon="7.668405846703427"><ele>441.5</ele><time>2026-04-08T17:27:47Z</time></trkpt><trkpt lat="44.43311639821392" lon="7.668127981722483"><ele>441.0</ele><time>2026-04-08T17:27:48Z</time></trkpt><trkpt lat="44.43322587619758" lon="7.667856161764561"><ele>441.0</ele><time>2026-04-08T17:27:49Z</time></trkpt><trkpt lat="44.43334119310505" lon="7.667574628517255"><ele>441.0</ele><time>2026-04-08T17:27:50Z</time></trkpt><trkpt lat="44.43346116546038" lon="7.667288850946975"><ele>441.0</ele><time>2026-04-08T17:27:51Z</time></trkpt><trkpt lat="44.43358245600593" lon="7.667010119598239"><ele>441.0</ele><time>2026-04-08T17:27:52Z</time></trkpt><trkpt lat="44.433706979897664" lon="7.666736443459513"><ele>440.5</ele><time>2026-04-08T17:27:53Z</time></trkpt><trkpt lat="44.43384721726375" lon="7.666441432654812"><ele>440.0</ele><time>2026-04-08T17:27:54Z</time></trkpt><trkpt lat="44.43400698090372" lon="7.666118014830909"><ele>439.5</ele><time>2026-04-08T17:27:55Z</time></trkpt><trkpt lat="44.434177853312406" lon="7.665777545169993"><ele>439.0</ele><time>2026-04-08T17:27:56Z</time></trkpt><trkpt lat="44.434348345730584" lon="7.665438478670814"><ele>439.5</ele><time>2026-04-08T17:27:57Z</time></trkpt><trkpt lat="44.434523381103574" lon="7.665090377560491"><ele>440.0</ele><time>2026-04-08T17:27:58Z</time></trkpt><trkpt lat="44.43469592776355" lon="7.664748125550664"><ele>440.0</ele><time>2026-04-08T17:27:59Z</time></trkpt><trkpt lat="44.434872000390165" lon="7.664405874180019"><ele>440.0</ele><time>2026-04-08T17:28:00Z</time></trkpt><trkpt lat="44.43504791377128" lon="7.664065251500876"><ele>440.0</ele><time>2026-04-08T17:28:01Z</time></trkpt><trkpt lat="44.43521138713087" lon="7.663738949169291"><ele>440.0</ele><time>2026-04-08T17:28:02Z</time></trkpt><trkpt lat="44.435357692448356" lon="7.663442198657825"><ele>440.0</ele><time>2026-04-08T17:28:03Z</time></trkpt><trkpt lat="44.435492866655466" lon="7.663170607545831"><ele>440.0</ele><time>2026-04-08T17:28:04Z</time></trkpt><trkpt lat="44.43561444147525" lon="7.662915665608727"><ele>440.0</ele><time>2026-04-08T17:28:05Z</time></trkpt><trkpt lat="44.435724751258306" lon="7.66267118609164"><ele>440.0</ele><time>2026-04-08T17:28:06Z</time></trkpt><trkpt lat="44.43583226663884" lon="7.662425513845823"><ele>440.0</ele><time>2026-04-08T17:28:07Z</time></trkpt><trkpt lat="44.43593055542568" lon="7.662176083326772"><ele>440.5</ele><time>2026-04-08T17:28:08Z</time></trkpt><trkpt lat="44.43602468751562" lon="7.661902429468508"><ele>441.0</ele><time>2026-04-08T17:28:09Z</time></trkpt><trkpt lat="44.43612071600893" lon="7.661602511901403"><ele>441.0</ele><time>2026-04-08T17:28:10Z</time></trkpt><trkpt lat="44.43621506072922" lon="7.661288644469348"><ele>441.0</ele><time>2026-04-08T17:28:11Z</time></trkpt><trkpt lat="44.43629934773372" lon="7.660989338014922"><ele>441.5</ele><time>2026-04-08T17:28:12Z</time></trkpt><trkpt lat="44.4363802712635" lon="7.660671239414933"><ele>442.0</ele><time>2026-04-08T17:28:13Z</time></trkpt><trkpt lat="44.43646173363722" lon="7.660323822018868"><ele>442.5</ele><time>2026-04-08T17:28:14Z</time></trkpt><trkpt lat="44.43653124337364" lon="7.660003213613457"><ele>443.0</ele><time>2026-04-08T17:28:15Z</time></trkpt><trkpt lat="44.436589353347955" lon="7.659702305733637"><ele>442.66666666666663</ele><time>2026-04-08T17:28:16Z</time></trkpt><trkpt lat="44.436632444948344" lon="7.659398663973186"><ele>442.33333333333337</ele><time>2026-04-08T17:28:17Z</time></trkpt><trkpt lat="44.43667032206914" lon="7.659114658447828"><ele>442.0</ele><time>2026-04-08T17:28:18Z</time></trkpt><trkpt lat="44.436710548143985" lon="7.658815093763465"><ele>442.5</ele><time>2026-04-08T17:28:19Z</time></trkpt><trkpt lat="44.43675602249145" lon="7.658478800717209"><ele>443.0</ele><time>2026-04-08T17:28:20Z</time></trkpt><trkpt lat="44.43680444132039" lon="7.658120732023438"><ele>443.0</ele><time>2026-04-08T17:28:21Z</time></trkpt><trkpt lat="44.43685130304851" lon="7.657758976477652"><ele>443.0</ele><time>2026-04-08T17:28:22Z</time></trkpt><trkpt lat="44.436901115878236" lon="7.657404997638086"><ele>443.0</ele><time>2026-04-08T17:28:23Z</time></trkpt><trkpt lat="44.43696875330245" lon="7.657050192838582"><ele>443.0</ele><time>2026-04-08T17:28:24Z</time></trkpt><trkpt lat="44.43705942929099" lon="7.656699722091248"><ele>442.5</ele><time>2026-04-08T17:28:25Z</time></trkpt><trkpt lat="44.43716336861469" lon="7.656350562673985"><ele>442.0</ele><time>2026-04-08T17:28:26Z</time></trkpt><trkpt lat="44.437260961185736" lon="7.656022159915597"><ele>441.5</ele><time>2026-04-08T17:28:27Z</time></trkpt><trkpt lat="44.43733965528601" lon="7.655670237909907"><ele>441.0</ele><time>2026-04-08T17:28:28Z</time></trkpt><trkpt lat="44.43740244263403" lon="7.655290227269386"><ele>442.0</ele><time>2026-04-08T17:28:29Z</time></trkpt><trkpt lat="44.437459452497805" lon="7.654885227293084"><ele>443.0</ele><time>2026-04-08T17:28:30Z</time></trkpt><trkpt lat="44.43751826885415" lon="7.654483194196099"><ele>443.5</ele><time>2026-04-08T17:28:31Z</time></trkpt><trkpt lat="44.4375809457244" lon="7.65406495698176"><ele>444.0</ele><time>2026-04-08T17:28:32Z</time></trkpt><trkpt lat="44.437639105633835" lon="7.6536711824348025"><ele>443.5</ele><time>2026-04-08T17:28:33Z</time></trkpt><trkpt lat="44.437689920934325" lon="7.653327043427039"><ele>443.0</ele><time>2026-04-08T17:28:34Z</time></trkpt><trkpt lat="44.43772046984806" lon="7.6530160411444434"><ele>443.66666666666663</ele><time>2026-04-08T17:28:35Z</time></trkpt><trkpt lat="44.4377750766801" lon="7.652728010523141"><ele>444.33333333333337</ele><time>2026-04-08T17:28:36Z</time></trkpt><trkpt lat="44.43783240654301" lon="7.6524641712894805"><ele>445.0</ele><time>2026-04-08T17:28:37Z</time></trkpt><trkpt lat="44.437924057312294" lon="7.652203483252431"><ele>444.0</ele><time>2026-04-08T17:28:38Z</time></trkpt><trkpt lat="44.43802942027655" lon="7.651911349152207"><ele>443.0</ele><time>2026-04-08T17:28:39Z</time></trkpt><trkpt lat="44.43815069308266" lon="7.65159651833269"><ele>443.0</ele><time>2026-04-08T17:28:40Z</time></trkpt><trkpt lat="44.43829373392064" lon="7.651248148326147"><ele>443.0</ele><time>2026-04-08T17:28:41Z</time></trkpt><trkpt lat="44.4384424551858" lon="7.650883864659108"><ele>444.0</ele><time>2026-04-08T17:28:42Z</time></trkpt><trkpt lat="44.43857852969607" lon="7.650506673482576"><ele>445.0</ele><time>2026-04-08T17:28:43Z</time></trkpt><trkpt lat="44.43871424929717" lon="7.65016765983245"><ele>444.5</ele><time>2026-04-08T17:28:44Z</time></trkpt><trkpt lat="44.43883530902201" lon="7.649863434905295"><ele>444.0</ele><time>2026-04-08T17:28:45Z</time></trkpt><trkpt lat="44.43895769458924" lon="7.649580556317557"><ele>444.66666666666663</ele><time>2026-04-08T17:28:46Z</time></trkpt><trkpt lat="44.43909446364322" lon="7.649338358090569"><ele>445.3333333333333</ele><time>2026-04-08T17:28:47Z</time></trkpt><trkpt lat="44.43922507498809" lon="7.649104391820383"><ele>446.0</ele><time>2026-04-08T17:28:48Z</time></trkpt><trkpt lat="44.439384443473536" lon="7.648868158467692"><ele>446.0</ele><time>2026-04-08T17:28:49Z</time></trkpt><trkpt lat="44.439563116556656" lon="7.648653272097956"><ele>446.0</ele><time>2026-04-08T17:28:50Z</time></trkpt><trkpt lat="44.43973016351933" lon="7.648461632081563"><ele>446.0</ele><time>2026-04-08T17:28:51Z</time></trkpt><trkpt lat="44.439878604031335" lon="7.648280760623099"><ele>446.0</ele><time>2026-04-08T17:28:52Z</time></trkpt><trkpt lat="44.44002652072275" lon="7.648078812081567"><ele>446.0</ele><time>2026-04-08T17:28:53Z</time></trkpt><trkpt lat="44.44017047923463" lon="7.647831769052677"><ele>445.5</ele><time>2026-04-08T17:28:54Z</time></trkpt><trkpt lat="44.44030445182806" lon="7.647555364214191"><ele>445.0</ele><time>2026-04-08T17:28:55Z</time></trkpt><trkpt lat="44.440435151142275" lon="7.647257667230835"><ele>445.0</ele><time>2026-04-08T17:28:56Z</time></trkpt><trkpt lat="44.44056632021284" lon="7.646947852876862"><ele>445.0</ele><time>2026-04-08T17:28:57Z</time></trkpt><trkpt lat="44.44068625608042" lon="7.646664570728541"><ele>445.0</ele><time>2026-04-08T17:28:58Z</time></trkpt><trkpt lat="44.44080235555359" lon="7.646390191202764"><ele>445.0</ele><time>2026-04-08T17:28:59Z</time></trkpt><trkpt lat="44.4409086957526" lon="7.646104496310709"><ele>445.0</ele><time>2026-04-08T17:29:00Z</time></trkpt><trkpt lat="44.44103270214743" lon="7.645824102738676"><ele>445.0</ele><time>2026-04-08T17:29:01Z</time></trkpt><trkpt lat="44.441154720896215" lon="7.645544118507725"><ele>445.33333333333337</ele><time>2026-04-08T17:29:02Z</time></trkpt><trkpt lat="44.44126585647762" lon="7.645279318030459"><ele>445.66666666666663</ele><time>2026-04-08T17:29:03Z</time></trkpt><trkpt lat="44.44135747544959" lon="7.6450695258568695"><ele>446.0</ele><time>2026-04-08T17:29:04Z</time></trkpt><trkpt lat="44.44143460228214" lon="7.644901394735198"><ele>446.0</ele><time>2026-04-08T17:29:05Z</time></trkpt><trkpt lat="44.44149671178505" lon="7.644761248728488"><ele>446.0</ele><time>2026-04-08T17:29:06Z</time></trkpt><trkpt lat="44.44155411968443" lon="7.644637318078983"><ele>446.0</ele><time>2026-04-08T17:29:07Z</time></trkpt><trkpt lat="44.44160595273255" lon="7.644536843911276"><ele>446.0</ele><time>2026-04-08T17:29:08Z</time></trkpt><trkpt lat="44.44166346868547" lon="7.644466191361934"><ele>446.0</ele><time>2026-04-08T17:29:09Z</time></trkpt><trkpt lat="44.44174191369842" lon="7.644399049045826"><ele>446.3333333333333</ele><time>2026-04-08T17:29:10Z</time></trkpt><trkpt lat="44.44181854949412" lon="7.644331023685754"><ele>446.66666666666663</ele><time>2026-04-08T17:29:11Z</time></trkpt><trkpt lat="44.44187111216521" lon="7.644235107371017"><ele>447.0</ele><time>2026-04-08T17:29:12Z</time></trkpt><trkpt lat="44.44188911659021" lon="7.644127398670892"><ele>447.33333333333337</ele><time>2026-04-08T17:29:13Z</time></trkpt><trkpt lat="44.441869755355256" lon="7.6440327660238285"><ele>447.6666666666667</ele><time>2026-04-08T17:29:14Z</time></trkpt><trkpt lat="44.441841673762546" lon="7.643939942663216"><ele>448.0</ele><time>2026-04-08T17:29:15Z</time></trkpt><trkpt lat="44.441756667221206" lon="7.643881544911983"><ele>448.0</ele><time>2026-04-08T17:29:16Z</time></trkpt><trkpt lat="44.441669558812066" lon="7.643810355950219"><ele>448.0</ele><time>2026-04-08T17:29:17Z</time></trkpt><trkpt lat="44.44157248267449" lon="7.643700497852661"><ele>448.0</ele><time>2026-04-08T17:29:18Z</time></trkpt><trkpt lat="44.44147882600106" lon="7.643509936360458"><ele>448.0</ele><time>2026-04-08T17:29:19Z</time></trkpt><trkpt lat="44.441375571679096" lon="7.643250411886633"><ele>449.0</ele><time>2026-04-08T17:29:20Z</time></trkpt><trkpt lat="44.44127328933639" lon="7.64295335997669"><ele>450.0</ele><time>2026-04-08T17:29:21Z</time></trkpt><trkpt lat="44.44114054968256" lon="7.6426850764822385"><ele>450.0</ele><time>2026-04-08T17:29:22Z</time></trkpt><trkpt lat="44.441028598107" lon="7.642422345611472"><ele>450.0</ele><time>2026-04-08T17:29:23Z</time></trkpt><trkpt lat="44.440934673632995" lon="7.642197611419347"><ele>450.0</ele><time>2026-04-08T17:29:24Z</time></trkpt><trkpt lat="44.44085670665215" lon="7.64197821063417"><ele>449.66666666666663</ele><time>2026-04-08T17:29:25Z</time></trkpt><trkpt lat="44.44075487600228" lon="7.641745026010603"><ele>449.3333333333333</ele><time>2026-04-08T17:29:26Z</time></trkpt><trkpt lat="44.440626575953836" lon="7.641469414508088"><ele>449.0</ele><time>2026-04-08T17:29:27Z</time></trkpt><trkpt lat="44.44049396685658" lon="7.641118373332845"><ele>448.5</ele><time>2026-04-08T17:29:28Z</time></trkpt><trkpt lat="44.44035376321575" lon="7.640755209791431"><ele>448.0</ele><time>2026-04-08T17:29:29Z</time></trkpt><trkpt lat="44.440209128099056" lon="7.640404187755176"><ele>448.0</ele><time>2026-04-08T17:29:30Z</time></trkpt><trkpt lat="44.440070154020695" lon="7.640060948428245"><ele>448.0</ele><time>2026-04-08T17:29:31Z</time></trkpt><trkpt lat="44.43994290480278" lon="7.639749560881576"><ele>448.0</ele><time>2026-04-08T17:29:32Z</time></trkpt><trkpt lat="44.43982380994772" lon="7.6394596296456605"><ele>448.0</ele><time>2026-04-08T17:29:33Z</time></trkpt><trkpt lat="44.4397156208062" lon="7.639192593324186"><ele>448.33333333333337</ele><time>2026-04-08T17:29:34Z</time></trkpt><trkpt lat="44.43961568029176" lon="7.638942074062389"><ele>448.66666666666663</ele><time>2026-04-08T17:29:35Z</time></trkpt><trkpt lat="44.4395109707035" lon="7.638686133627464"><ele>449.0</ele><time>2026-04-08T17:29:36Z</time></trkpt><trkpt lat="44.43940720617375" lon="7.6384300763898345"><ele>449.0</ele><time>2026-04-08T17:29:37Z</time></trkpt><trkpt lat="44.43930638795616" lon="7.638180351440507"><ele>449.0</ele><time>2026-04-08T17:29:38Z</time></trkpt><trkpt lat="44.43920971614923" lon="7.637941660844591"><ele>449.0</ele><time>2026-04-08T17:29:39Z</time></trkpt><trkpt lat="44.439101254217036" lon="7.637668582039613"><ele>449.0</ele><time>2026-04-08T17:29:40Z</time></trkpt><trkpt lat="44.43900473639241" lon="7.637428518886216"><ele>449.0</ele><time>2026-04-08T17:29:41Z</time></trkpt><trkpt lat="44.43890185582792" lon="7.637180440968571"><ele>449.0</ele><time>2026-04-08T17:29:42Z</time></trkpt><trkpt lat="44.438794728317625" lon="7.636918239101552"><ele>448.5</ele><time>2026-04-08T17:29:43Z</time></trkpt><trkpt lat="44.43867840537302" lon="7.636636048405673"><ele>448.0</ele><time>2026-04-08T17:29:44Z</time></trkpt><trkpt lat="44.4385522377063" lon="7.636331916058464"><ele>447.5</ele><time>2026-04-08T17:29:45Z</time></trkpt><trkpt lat="44.438423731289625" lon="7.636009535191812"><ele>447.0</ele><time>2026-04-08T17:29:46Z</time></trkpt><trkpt lat="44.438288558403585" lon="7.635682910566579"><ele>447.0</ele><time>2026-04-08T17:29:47Z</time></trkpt><trkpt lat="44.43815865027514" lon="7.635360987871675"><ele>447.0</ele><time>2026-04-08T17:29:48Z</time></trkpt><trkpt lat="44.43804328714397" lon="7.63507684086538"><ele>448.5</ele><time>2026-04-08T17:29:49Z</time></trkpt><trkpt lat="44.43793054957914" lon="7.634780197500998"><ele>450.0</ele><time>2026-04-08T17:29:50Z</time></trkpt><trkpt lat="44.43780267244925" lon="7.634471762369764"><ele>450.0</ele><time>2026-04-08T17:29:51Z</time></trkpt><trkpt lat="44.43768390174855" lon="7.6341922197665175"><ele>450.0</ele><time>2026-04-08T17:29:52Z</time></trkpt><trkpt lat="44.43758179947202" lon="7.633937462771821"><ele>450.0</ele><time>2026-04-08T17:29:53Z</time></trkpt><trkpt lat="44.43749584891746" lon="7.63372107666355"><ele>449.75</ele><time>2026-04-08T17:29:54Z</time></trkpt><trkpt lat="44.43741778210241" lon="7.633528799274313"><ele>449.5</ele><time>2026-04-08T17:29:55Z</time></trkpt><trkpt lat="44.43735435782262" lon="7.633359029857556"><ele>449.25</ele><time>2026-04-08T17:29:56Z</time></trkpt><trkpt lat="44.437321100798215" lon="7.63322498467826"><ele>449.0</ele><time>2026-04-08T17:29:57Z</time></trkpt><trkpt lat="44.43730898395299" lon="7.633102871015203"><ele>448.99999999999994</ele><time>2026-04-08T17:29:58Z</time></trkpt><trkpt lat="44.43734289333154" lon="7.632981384406081"><ele>449.0</ele><time>2026-04-08T17:29:59Z</time></trkpt><trkpt lat="44.43733705490316" lon="7.632861844059273"><ele>449.0</ele><time>2026-04-08T17:30:00Z</time></trkpt><trkpt lat="44.437300056099005" lon="7.632760874905428"><ele>449.0</ele><time>2026-04-08T17:30:01Z</time></trkpt><trkpt lat="44.43724640645194" lon="7.632701685604637"><ele>448.99999999999994</ele><time>2026-04-08T17:30:02Z</time></trkpt><trkpt lat="44.43716228683198" lon="7.632619739190493"><ele>449.0</ele><time>2026-04-08T17:30:03Z</time></trkpt><trkpt lat="44.43706412117342" lon="7.632533286664039"><ele>450.0</ele><time>2026-04-08T17:30:04Z</time></trkpt><trkpt lat="44.436975010447185" lon="7.632415832787432"><ele>451.0</ele><time>2026-04-08T17:30:05Z</time></trkpt><trkpt lat="44.43688997621511" lon="7.632227524927936"><ele>452.0</ele><time>2026-04-08T17:30:06Z</time></trkpt><trkpt lat="44.43678664234521" lon="7.631976207294386"><ele>451.5</ele><time>2026-04-08T17:30:07Z</time></trkpt><trkpt lat="44.43666237318506" lon="7.631675769966405"><ele>451.0</ele><time>2026-04-08T17:30:08Z</time></trkpt><trkpt lat="44.436521897802216" lon="7.631338834203892"><ele>451.5</ele><time>2026-04-08T17:30:09Z</time></trkpt><trkpt lat="44.43637825092842" lon="7.630985826162285"><ele>452.0</ele><time>2026-04-08T17:30:10Z</time></trkpt><trkpt lat="44.436235114758844" lon="7.6306335786511585"><ele>453.0</ele><time>2026-04-08T17:30:11Z</time></trkpt><trkpt lat="44.436085528182105" lon="7.63026963841743"><ele>454.0</ele><time>2026-04-08T17:30:12Z</time></trkpt><trkpt lat="44.43593341931684" lon="7.629893228997196"><ele>454.0</ele><time>2026-04-08T17:30:13Z</time></trkpt><trkpt lat="44.43577777321357" lon="7.629514478714538"><ele>454.0</ele><time>2026-04-08T17:30:14Z</time></trkpt><trkpt lat="44.43561938892937" lon="7.6291303110767785"><ele>455.0</ele><time>2026-04-08T17:30:15Z</time></trkpt><trkpt lat="44.43545811105997" lon="7.628743953304859"><ele>456.0</ele><time>2026-04-08T17:30:16Z</time></trkpt><trkpt lat="44.43530040609364" lon="7.628374903314845"><ele>456.0</ele><time>2026-04-08T17:30:17Z</time></trkpt><trkpt lat="44.43514931165351" lon="7.628019792545265"><ele>456.0</ele><time>2026-04-08T17:30:18Z</time></trkpt><trkpt lat="44.434998855567" lon="7.627666472813251"><ele>456.0</ele><time>2026-04-08T17:30:19Z</time></trkpt><trkpt lat="44.434843785101236" lon="7.627320426526505"><ele>456.0</ele><time>2026-04-08T17:30:20Z</time></trkpt><trkpt lat="44.434703064651565" lon="7.626957941588542"><ele>456.0</ele><time>2026-04-08T17:30:21Z</time></trkpt><trkpt lat="44.4345271081337" lon="7.62662079437577"><ele>456.0</ele><time>2026-04-08T17:30:22Z</time></trkpt><trkpt lat="44.434364767948104" lon="7.626263758555877"><ele>455.5</ele><time>2026-04-08T17:30:23Z</time></trkpt><trkpt lat="44.43419655253149" lon="7.625910255491986"><ele>455.0</ele><time>2026-04-08T17:30:24Z</time></trkpt><trkpt lat="44.434033252292124" lon="7.625569678395846"><ele>456.0</ele><time>2026-04-08T17:30:25Z</time></trkpt><trkpt lat="44.43388292663914" lon="7.625254170098913"><ele>457.0</ele><time>2026-04-08T17:30:26Z</time></trkpt><trkpt lat="44.43373739770727" lon="7.624937017501848"><ele>457.0</ele><time>2026-04-08T17:30:27Z</time></trkpt><trkpt lat="44.43359454117944" lon="7.624608548919545"><ele>457.0</ele><time>2026-04-08T17:30:28Z</time></trkpt><trkpt lat="44.43346192588724" lon="7.6242748123000155"><ele>458.0</ele><time>2026-04-08T17:30:29Z</time></trkpt><trkpt lat="44.43334467160682" lon="7.623949330953617"><ele>459.0</ele><time>2026-04-08T17:30:30Z</time></trkpt><trkpt lat="44.433237809644" lon="7.623653075292986"><ele>459.0</ele><time>2026-04-08T17:30:31Z</time></trkpt><trkpt lat="44.43312810110744" lon="7.62336848905005"><ele>459.0</ele><time>2026-04-08T17:30:32Z</time></trkpt><trkpt lat="44.43300406371639" lon="7.623088742217475"><ele>459.0</ele><time>2026-04-08T17:30:33Z</time></trkpt><trkpt lat="44.43287298501494" lon="7.622837967054967"><ele>459.0</ele><time>2026-04-08T17:30:34Z</time></trkpt><trkpt lat="44.43274083481904" lon="7.622609327609066"><ele>459.0</ele><time>2026-04-08T17:30:35Z</time></trkpt><trkpt lat="44.43258942744141" lon="7.622377080070595"><ele>459.5</ele><time>2026-04-08T17:30:36Z</time></trkpt><trkpt lat="44.43241308396829" lon="7.622129199884785"><ele>460.0</ele><time>2026-04-08T17:30:37Z</time></trkpt><trkpt lat="44.4322155008413" lon="7.621873297753064"><ele>460.5</ele><time>2026-04-08T17:30:38Z</time></trkpt><trkpt lat="44.43200917921596" lon="7.621607495761724"><ele>461.0</ele><time>2026-04-08T17:30:39Z</time></trkpt><trkpt lat="44.43180396496736" lon="7.621338044341547"><ele>460.0</ele><time>2026-04-08T17:30:40Z</time></trkpt><trkpt lat="44.43161743367002" lon="7.62109435401833"><ele>459.0</ele><time>2026-04-08T17:30:41Z</time></trkpt><trkpt lat="44.43145090665485" lon="7.620872894744936"><ele>459.66666666666663</ele><time>2026-04-08T17:30:42Z</time></trkpt><trkpt lat="44.431304254765706" lon="7.620680266553926"><ele>460.3333333333333</ele><time>2026-04-08T17:30:43Z</time></trkpt><trkpt lat="44.43116759880608" lon="7.620502290256094"><ele>461.0</ele><time>2026-04-08T17:30:44Z</time></trkpt><trkpt lat="44.431032340179385" lon="7.620341486905092"><ele>461.0</ele><time>2026-04-08T17:30:45Z</time></trkpt><trkpt lat="44.430883247560814" lon="7.620194520217413"><ele>461.0</ele><time>2026-04-08T17:30:46Z</time></trkpt><trkpt lat="44.43070566812462" lon="7.620050787245734"><ele>461.0</ele><time>2026-04-08T17:30:47Z</time></trkpt><trkpt lat="44.43049956932261" lon="7.619912359410336"><ele>461.0</ele><time>2026-04-08T17:30:48Z</time></trkpt><trkpt lat="44.430274700404624" lon="7.619776422194993"><ele>461.0</ele><time>2026-04-08T17:30:49Z</time></trkpt><trkpt lat="44.430033737878794" lon="7.619630110219375"><ele>461.0</ele><time>2026-04-08T17:30:50Z</time></trkpt><trkpt lat="44.42979509707486" lon="7.619475278485358"><ele>461.0</ele><time>2026-04-08T17:30:51Z</time></trkpt><trkpt lat="44.429551811471526" lon="7.619317692143011"><ele>461.66666666666663</ele><time>2026-04-08T17:30:52Z</time></trkpt><trkpt lat="44.42933317120346" lon="7.619179660023787"><ele>462.33333333333337</ele><time>2026-04-08T17:30:53Z</time></trkpt><trkpt lat="44.42914491662914" lon="7.619055355958419"><ele>463.0</ele><time>2026-04-08T17:30:54Z</time></trkpt><trkpt lat="44.42896146129802" lon="7.61893977983837"><ele>463.33333333333337</ele><time>2026-04-08T17:30:55Z</time></trkpt><trkpt lat="44.42877796397838" lon="7.618807835940441"><ele>463.66666666666663</ele><time>2026-04-08T17:30:56Z</time></trkpt><trkpt lat="44.4285996255741" lon="7.6186439253828055"><ele>464.0</ele><time>2026-04-08T17:30:57Z</time></trkpt><trkpt lat="44.42841595032275" lon="7.618441094291148"><ele>464.0</ele><time>2026-04-08T17:30:58Z</time></trkpt><trkpt lat="44.428226735512375" lon="7.618203528262125"><ele>464.0</ele><time>2026-04-08T17:30:59Z</time></trkpt><trkpt lat="44.42802396616454" lon="7.6179522841427545"><ele>464.5</ele><time>2026-04-08T17:31:00Z</time></trkpt><trkpt lat="44.42782379973392" lon="7.6176953197349"><ele>465.0</ele><time>2026-04-08T17:31:01Z</time></trkpt><trkpt lat="44.42759416525413" lon="7.617467057887708"><ele>465.0</ele><time>2026-04-08T17:31:02Z</time></trkpt><trkpt lat="44.427341166357515" lon="7.61725280598119"><ele>465.0</ele><time>2026-04-08T17:31:03Z</time></trkpt><trkpt lat="44.42710483934248" lon="7.617027964858028"><ele>465.5</ele><time>2026-04-08T17:31:04Z</time></trkpt><trkpt lat="44.4268868902423" lon="7.6168204809411915"><ele>466.0</ele><time>2026-04-08T17:31:05Z</time></trkpt><trkpt lat="44.42667417812952" lon="7.6166076790912784"><ele>466.0</ele><time>2026-04-08T17:31:06Z</time></trkpt><trkpt lat="44.42646735769591" lon="7.6163948406329895"><ele>466.0</ele><time>2026-04-08T17:31:07Z</time></trkpt><trkpt lat="44.426259386477696" lon="7.616171728435253"><ele>467.5</ele><time>2026-04-08T17:31:08Z</time></trkpt><trkpt lat="44.426048059049656" lon="7.615925907869505"><ele>469.0</ele><time>2026-04-08T17:31:09Z</time></trkpt><trkpt lat="44.42584687374407" lon="7.615668196661197"><ele>469.0</ele><time>2026-04-08T17:31:10Z</time></trkpt><trkpt lat="44.425653213829506" lon="7.615409936647832"><ele>469.0</ele><time>2026-04-08T17:31:11Z</time></trkpt><trkpt lat="44.4254802682387" lon="7.615168452510065"><ele>470.0</ele><time>2026-04-08T17:31:12Z</time></trkpt><trkpt lat="44.42532432867576" lon="7.614946773648187"><ele>471.0</ele><time>2026-04-08T17:31:13Z</time></trkpt><trkpt lat="44.42517106580962" lon="7.614729623317629"><ele>472.0</ele><time>2026-04-08T17:31:14Z</time></trkpt><trkpt lat="44.42500236328022" lon="7.614492268629234"><ele>472.0</ele><time>2026-04-08T17:31:15Z</time></trkpt><trkpt lat="44.424820021972565" lon="7.614236603769309"><ele>472.0</ele><time>2026-04-08T17:31:16Z</time></trkpt><trkpt lat="44.42463343049184" lon="7.613958071606522"><ele>472.0</ele><time>2026-04-08T17:31:17Z</time></trkpt><trkpt lat="44.42446555423811" lon="7.613699803539556"><ele>472.0</ele><time>2026-04-08T17:31:18Z</time></trkpt><trkpt lat="44.42430359686776" lon="7.613456592875615"><ele>472.0</ele><time>2026-04-08T17:31:19Z</time></trkpt><trkpt lat="44.42414037527139" lon="7.613208794522736"><ele>472.0</ele><time>2026-04-08T17:31:20Z</time></trkpt><trkpt lat="44.423984315912904" lon="7.612952802499248"><ele>472.0</ele><time>2026-04-08T17:31:21Z</time></trkpt><trkpt lat="44.42383243758277" lon="7.612686313010866"><ele>472.0</ele><time>2026-04-08T17:31:22Z</time></trkpt><trkpt lat="44.423684151465835" lon="7.612402051837502"><ele>472.0</ele><time>2026-04-08T17:31:23Z</time></trkpt><trkpt lat="44.42354451359546" lon="7.612108790317315"><ele>472.0</ele><time>2026-04-08T17:31:24Z</time></trkpt><trkpt lat="44.42341086069832" lon="7.611813390524733"><ele>472.5</ele><time>2026-04-08T17:31:25Z</time></trkpt><trkpt lat="44.4232749959846" lon="7.61151876698267"><ele>473.0</ele><time>2026-04-08T17:31:26Z</time></trkpt><trkpt lat="44.42313460468622" lon="7.611230620827833"><ele>472.0</ele><time>2026-04-08T17:31:27Z</time></trkpt><trkpt lat="44.42298991717142" lon="7.610938982472501"><ele>471.0</ele><time>2026-04-08T17:31:28Z</time></trkpt><trkpt lat="44.42285434249269" lon="7.610642977153747"><ele>472.0</ele><time>2026-04-08T17:31:29Z</time></trkpt><trkpt lat="44.422724006370174" lon="7.610339562846677"><ele>473.0</ele><time>2026-04-08T17:31:30Z</time></trkpt><trkpt lat="44.422595724604" lon="7.610046376133969"><ele>473.0</ele><time>2026-04-08T17:31:31Z</time></trkpt><trkpt lat="44.42246484870354" lon="7.609753981378505"><ele>473.0</ele><time>2026-04-08T17:31:32Z</time></trkpt><trkpt lat="44.42233633544836" lon="7.609464723526762"><ele>473.5</ele><time>2026-04-08T17:31:33Z</time></trkpt><trkpt lat="44.422210256128636" lon="7.6091784811121155"><ele>474.0</ele><time>2026-04-08T17:31:34Z</time></trkpt><trkpt lat="44.422081454121624" lon="7.608885901339279"><ele>474.5</ele><time>2026-04-08T17:31:35Z</time></trkpt><trkpt lat="44.42195338682463" lon="7.6085920383489585"><ele>475.0</ele><time>2026-04-08T17:31:36Z</time></trkpt><trkpt lat="44.421837169454804" lon="7.608311625469174"><ele>475.0</ele><time>2026-04-08T17:31:37Z</time></trkpt><trkpt lat="44.42171984801106" lon="7.60801674825529"><ele>475.0</ele><time>2026-04-08T17:31:38Z</time></trkpt><trkpt lat="44.4216026256459" lon="7.607684392303435"><ele>475.0</ele><time>2026-04-08T17:31:39Z</time></trkpt><trkpt lat="44.42150180192225" lon="7.607358614183153"><ele>475.0</ele><time>2026-04-08T17:31:40Z</time></trkpt><trkpt lat="44.42142026183786" lon="7.607067774850349"><ele>474.6666666666667</ele><time>2026-04-08T17:31:41Z</time></trkpt><trkpt lat="44.42134856740904" lon="7.606809384336473"><ele>474.33333333333337</ele><time>2026-04-08T17:31:42Z</time></trkpt><trkpt lat="44.42127701799529" lon="7.60657281571462"><ele>474.0</ele><time>2026-04-08T17:31:43Z</time></trkpt><trkpt lat="44.421187207875306" lon="7.6063388291346765"><ele>475.33333333333337</ele><time>2026-04-08T17:31:44Z</time></trkpt><trkpt lat="44.421078701476546" lon="7.606106256811247"><ele>476.6666666666667</ele><time>2026-04-08T17:31:45Z</time></trkpt><trkpt lat="44.42096088398871" lon="7.605873656934022"><ele>478.0</ele><time>2026-04-08T17:31:46Z</time></trkpt><trkpt lat="44.4208282750056" lon="7.60564387030731"><ele>478.0</ele><time>2026-04-08T17:31:47Z</time></trkpt><trkpt lat="44.42067970034151" lon="7.605407909535529"><ele>478.0</ele><time>2026-04-08T17:31:48Z</time></trkpt><trkpt lat="44.42053070530956" lon="7.605173162887936"><ele>478.0</ele><time>2026-04-08T17:31:49Z</time></trkpt><trkpt lat="44.42037832940756" lon="7.60492705569178"><ele>478.5</ele><time>2026-04-08T17:31:50Z</time></trkpt><trkpt lat="44.42022189887586" lon="7.604680809952247"><ele>479.0</ele><time>2026-04-08T17:31:51Z</time></trkpt><trkpt lat="44.420062937441266" lon="7.604436001487355"><ele>479.0</ele><time>2026-04-08T17:31:52Z</time></trkpt><trkpt lat="44.419905976791014" lon="7.604190742549075"><ele>479.0</ele><time>2026-04-08T17:31:53Z</time></trkpt><trkpt lat="44.41974713125637" lon="7.603938925588723"><ele>479.5</ele><time>2026-04-08T17:31:54Z</time></trkpt><trkpt lat="44.41959004643842" lon="7.603693254600662"><ele>480.0</ele><time>2026-04-08T17:31:55Z</time></trkpt><trkpt lat="44.419431195593305" lon="7.603446918178024"><ele>480.0</ele><time>2026-04-08T17:31:56Z</time></trkpt><trkpt lat="44.41928496060653" lon="7.603216848634837"><ele>480.0</ele><time>2026-04-08T17:31:57Z</time></trkpt><trkpt lat="44.41915286683087" lon="7.603008556719649"><ele>480.0</ele><time>2026-04-08T17:31:58Z</time></trkpt><trkpt lat="44.41902022600461" lon="7.602797666340233"><ele>480.33333333333337</ele><time>2026-04-08T17:31:59Z</time></trkpt><trkpt lat="44.418879022808376" lon="7.602569769284804"><ele>480.6666666666667</ele><time>2026-04-08T17:32:00Z</time></trkpt><trkpt lat="44.418731910697815" lon="7.602337635208612"><ele>481.0</ele><time>2026-04-08T17:32:01Z</time></trkpt><trkpt lat="44.41858309107684" lon="7.602099388535109"><ele>480.6666666666667</ele><time>2026-04-08T17:32:02Z</time></trkpt><trkpt lat="44.41845734330664" lon="7.601861947272527"><ele>480.33333333333337</ele><time>2026-04-08T17:32:03Z</time></trkpt><trkpt lat="44.41833220196299" lon="7.60165899302586"><ele>480.0</ele><time>2026-04-08T17:32:04Z</time></trkpt><trkpt lat="44.41821695570882" lon="7.601472086527719"><ele>480.0</ele><time>2026-04-08T17:32:05Z</time></trkpt><trkpt lat="44.41810852364477" lon="7.601296231377884"><ele>480.0</ele><time>2026-04-08T17:32:06Z</time></trkpt><trkpt lat="44.41800563717142" lon="7.601128961290409"><ele>480.0</ele><time>2026-04-08T17:32:07Z</time></trkpt><trkpt lat="44.417913805289864" lon="7.600979632689109"><ele>480.6</ele><time>2026-04-08T17:32:08Z</time></trkpt><trkpt lat="44.41783027442168" lon="7.600843802501636"><ele>481.2</ele><time>2026-04-08T17:32:09Z</time></trkpt><trkpt lat="44.417755906751225" lon="7.600722872609648"><ele>481.79999999999995</ele><time>2026-04-08T17:32:10Z</time></trkpt><trkpt lat="44.41770198653006" lon="7.600635192482601"><ele>482.4</ele><time>2026-04-08T17:32:11Z</time></trkpt><trkpt lat="44.41762242841064" lon="7.60050582240767"><ele>483.0</ele><time>2026-04-08T17:32:13Z</time></trkpt><trkpt lat="44.41758083391422" lon="7.600438185229194"><ele>483.0</ele><time>2026-04-08T17:32:14Z</time></trkpt><trkpt lat="44.41753936553883" lon="7.600370753193674"><ele>483.0</ele><time>2026-04-08T17:32:15Z</time></trkpt><trkpt lat="44.41749285869474" lon="7.600295128008666"><ele>483.0</ele><time>2026-04-08T17:32:16Z</time></trkpt><trkpt lat="44.417449434065816" lon="7.600224514883568"><ele>483.0</ele><time>2026-04-08T17:32:17Z</time></trkpt><trkpt lat="44.417392438900855" lon="7.600131834580825"><ele>483.0</ele><time>2026-04-08T17:32:18Z</time></trkpt><trkpt lat="44.4173356965077" lon="7.600039565309743"><ele>483.0</ele><time>2026-04-08T17:32:19Z</time></trkpt><trkpt lat="44.417279355922325" lon="7.5999479494275555"><ele>483.0</ele><time>2026-04-08T17:32:20Z</time></trkpt><trkpt lat="44.41721695627183" lon="7.59984648084167"><ele>483.0</ele><time>2026-04-08T17:32:21Z</time></trkpt><trkpt lat="44.417151011741936" lon="7.599740166848023"><ele>483.0</ele><time>2026-04-08T17:32:22Z</time></trkpt><trkpt lat="44.41706131940364" lon="7.5995960677466075"><ele>483.0</ele><time>2026-04-08T17:32:23Z</time></trkpt><trkpt lat="44.41693978283014" lon="7.599400807872862"><ele>483.66666666666663</ele><time>2026-04-08T17:32:24Z</time></trkpt><trkpt lat="44.416803340929036" lon="7.59917913507746"><ele>484.3333333333333</ele><time>2026-04-08T17:32:25Z</time></trkpt><trkpt lat="44.41668452284324" lon="7.5989858373431325"><ele>485.0</ele><time>2026-04-08T17:32:26Z</time></trkpt><trkpt lat="44.416578993242034" lon="7.598814159916645"><ele>485.0</ele><time>2026-04-08T17:32:27Z</time></trkpt><trkpt lat="44.41646357404631" lon="7.598631062081373"><ele>485.0</ele><time>2026-04-08T17:32:28Z</time></trkpt><trkpt lat="44.41632508665022" lon="7.598441486287407"><ele>485.0</ele><time>2026-04-08T17:32:29Z</time></trkpt><trkpt lat="44.41623851469485" lon="7.598275189759605"><ele>485.0</ele><time>2026-04-08T17:32:30Z</time></trkpt><trkpt lat="44.41614469626251" lon="7.598128208989451"><ele>485.0</ele><time>2026-04-08T17:32:31Z</time></trkpt><trkpt lat="44.41606145649404" lon="7.598000213217858"><ele>485.0</ele><time>2026-04-08T17:32:32Z</time></trkpt><trkpt lat="44.41599114778332" lon="7.597893600352035"><ele>485.0</ele><time>2026-04-08T17:32:33Z</time></trkpt><trkpt lat="44.41590802578878" lon="7.597802443119815"><ele>485.0</ele><time>2026-04-08T17:32:34Z</time></trkpt><trkpt lat="44.415830882633934" lon="7.597690855761875"><ele>485.0</ele><time>2026-04-08T17:32:35Z</time></trkpt><trkpt lat="44.415751642309246" lon="7.597619859566493"><ele>485.0</ele><time>2026-04-08T17:32:36Z</time></trkpt><trkpt lat="44.41568574464447" lon="7.59753848551973"><ele>485.0</ele><time>2026-04-08T17:32:37Z</time></trkpt><trkpt lat="44.4156097993234" lon="7.597474208420414"><ele>485.0</ele><time>2026-04-08T17:32:38Z</time></trkpt><trkpt lat="44.415525834250744" lon="7.5974015802505726"><ele>485.2</ele><time>2026-04-08T17:32:39Z</time></trkpt><trkpt lat="44.4154514101015" lon="7.597322248012231"><ele>485.4</ele><time>2026-04-08T17:32:40Z</time></trkpt><trkpt lat="44.415403194244114" lon="7.597234599137094"><ele>485.6</ele><time>2026-04-08T17:32:41Z</time></trkpt><trkpt lat="44.41536703418472" lon="7.59712266528751"><ele>485.8</ele><time>2026-04-08T17:32:42Z</time></trkpt><trkpt lat="44.415323123750014" lon="7.5969716115869605"><ele>486.0</ele><time>2026-04-08T17:32:43Z</time></trkpt><trkpt lat="44.415261893283315" lon="7.596850620412383"><ele>486.33333333333337</ele><time>2026-04-08T17:32:44Z</time></trkpt><trkpt lat="44.4151785978267" lon="7.596688996166304"><ele>486.6666666666667</ele><time>2026-04-08T17:32:45Z</time></trkpt><trkpt lat="44.41511912092297" lon="7.596441259249578"><ele>487.0</ele><time>2026-04-08T17:32:46Z</time></trkpt><trkpt lat="44.41503845816227" lon="7.5962396830043595"><ele>486.75</ele><time>2026-04-08T17:32:47Z</time></trkpt><trkpt lat="44.414984910254944" lon="7.596092276100528"><ele>486.5</ele><time>2026-04-08T17:32:48Z</time></trkpt><trkpt lat="44.41494842117018" lon="7.595997899362956"><ele>486.25</ele><time>2026-04-08T17:32:49Z</time></trkpt><trkpt lat="44.414897848489346" lon="7.595885192663579"><ele>486.0</ele><time>2026-04-08T17:32:50Z</time></trkpt><trkpt lat="44.414806766575126" lon="7.595694079184913"><ele>486.0</ele><time>2026-04-08T17:32:51Z</time></trkpt><trkpt lat="44.41467335379765" lon="7.595401789308677"><ele>486.0</ele><time>2026-04-08T17:32:52Z</time></trkpt><trkpt lat="44.41452812276989" lon="7.59508328791818"><ele>487.5</ele><time>2026-04-08T17:32:53Z</time></trkpt><trkpt lat="44.41437169283872" lon="7.5947535285821965"><ele>489.0</ele><time>2026-04-08T17:32:54Z</time></trkpt><trkpt lat="44.41421125308184" lon="7.5944082528059536"><ele>489.5</ele><time>2026-04-08T17:32:55Z</time></trkpt><trkpt lat="44.41406994235583" lon="7.594052681220825"><ele>490.0</ele><time>2026-04-08T17:32:56Z</time></trkpt><trkpt lat="44.41391632511396" lon="7.593752966824632"><ele>490.33333333333337</ele><time>2026-04-08T17:32:57Z</time></trkpt><trkpt lat="44.41379182205877" lon="7.5934776034936995"><ele>490.66666666666663</ele><time>2026-04-08T17:32:58Z</time></trkpt><trkpt lat="44.41368234481447" lon="7.593236767137801"><ele>491.0</ele><time>2026-04-08T17:32:59Z</time></trkpt><trkpt lat="44.413592352025546" lon="7.593033759567711"><ele>491.0</ele><time>2026-04-08T17:33:00Z</time></trkpt><trkpt lat="44.413517324895075" lon="7.592862109925067"><ele>491.0</ele><time>2026-04-08T17:33:01Z</time></trkpt><trkpt lat="44.413441739018666" lon="7.592683878587746"><ele>491.0</ele><time>2026-04-08T17:33:02Z</time></trkpt><trkpt lat="44.41335861641319" lon="7.592498359097329"><ele>491.0</ele><time>2026-04-08T17:33:03Z</time></trkpt><trkpt lat="44.41326658934759" lon="7.592294580718223"><ele>491.0</ele><time>2026-04-08T17:33:04Z</time></trkpt><trkpt lat="44.413167939150725" lon="7.5920760381383605"><ele>491.0</ele><time>2026-04-08T17:33:05Z</time></trkpt><trkpt lat="44.413063791120294" lon="7.59181947669373"><ele>491.0</ele><time>2026-04-08T17:33:06Z</time></trkpt><trkpt lat="44.41297876440798" lon="7.59151889889923"><ele>491.3333333333333</ele><time>2026-04-08T17:33:07Z</time></trkpt><trkpt lat="44.41287650383319" lon="7.591234218486354"><ele>491.66666666666663</ele><time>2026-04-08T17:33:08Z</time></trkpt><trkpt lat="44.41279992331096" lon="7.590969366524943"><ele>492.0</ele><time>2026-04-08T17:33:09Z</time></trkpt><trkpt lat="44.41272494092159" lon="7.590742082279003"><ele>492.0</ele><time>2026-04-08T17:33:10Z</time></trkpt><trkpt lat="44.412654467018534" lon="7.590537733599358"><ele>492.0</ele><time>2026-04-08T17:33:11Z</time></trkpt><trkpt lat="44.412587206483614" lon="7.590347853138527"><ele>492.0</ele><time>2026-04-08T17:33:12Z</time></trkpt><trkpt lat="44.41252758391106" lon="7.590201434879536"><ele>492.0</ele><time>2026-04-08T17:33:13Z</time></trkpt><trkpt lat="44.412487771905546" lon="7.590110270296793"><ele>492.0</ele><time>2026-04-08T17:33:14Z</time></trkpt><trkpt lat="44.41244899246563" lon="7.589978033370505"><ele>492.0</ele><time>2026-04-08T17:33:16Z</time></trkpt><trkpt lat="44.412405515316834" lon="7.589878637652547"><ele>492.0</ele><time>2026-04-08T17:33:19Z</time></trkpt><trkpt lat="44.41236841423922" lon="7.589793818778325"><ele>492.0</ele><time>2026-04-08T17:33:22Z</time></trkpt><trkpt lat="44.412332941301244" lon="7.589713241850605"><ele>492.0</ele><time>2026-04-08T17:33:25Z</time></trkpt><trkpt lat="44.412253803272606" lon="7.589803357138351"><ele>492.0</ele><time>2026-04-08T17:35:53Z</time></trkpt><trkpt lat="44.41225471027071" lon="7.589632552479483"><ele>492.0</ele><time>2026-04-08T17:35:59Z</time></trkpt><trkpt lat="44.412210573681676" lon="7.589514492268014"><ele>492.0</ele><time>2026-04-08T17:36:00Z</time></trkpt><trkpt lat="44.41216728657596" lon="7.5893422946058875"><ele>492.0</ele><time>2026-04-08T17:36:01Z</time></trkpt><trkpt lat="44.41208726141578" lon="7.589165895741473"><ele>492.0</ele><time>2026-04-08T17:36:02Z</time></trkpt><trkpt lat="44.412014149073784" lon="7.589008322552365"><ele>492.0</ele><time>2026-04-08T17:36:03Z</time></trkpt><trkpt lat="44.4119066263329" lon="7.588778073939045"><ele>492.0</ele><time>2026-04-08T17:36:04Z</time></trkpt><trkpt lat="44.41180614277324" lon="7.588567049744671"><ele>492.0</ele><time>2026-04-08T17:36:05Z</time></trkpt><trkpt lat="44.41172131237991" lon="7.58839312014771"><ele>492.0</ele><time>2026-04-08T17:36:06Z</time></trkpt><trkpt lat="44.41164873688327" lon="7.588244569306138"><ele>492.0</ele><time>2026-04-08T17:36:07Z</time></trkpt><trkpt lat="44.41158510690076" lon="7.5881143287267845"><ele>492.0</ele><time>2026-04-08T17:36:08Z</time></trkpt><trkpt lat="44.41149645639894" lon="7.587983215030865"><ele>492.0</ele><time>2026-04-08T17:36:09Z</time></trkpt><trkpt lat="44.41140678686189" lon="7.5878032637663155"><ele>492.66666666666663</ele><time>2026-04-08T17:36:10Z</time></trkpt><trkpt lat="44.41127673080698" lon="7.5875717646293515"><ele>493.3333333333333</ele><time>2026-04-08T17:36:11Z</time></trkpt><trkpt lat="44.41114254204838" lon="7.5873215466145885"><ele>494.0</ele><time>2026-04-08T17:36:12Z</time></trkpt><trkpt lat="44.4110425841437" lon="7.587056041499471"><ele>494.0</ele><time>2026-04-08T17:36:13Z</time></trkpt><trkpt lat="44.41093406431723" lon="7.586790995961242"><ele>494.0</ele><time>2026-04-08T17:36:14Z</time></trkpt><trkpt lat="44.410790923092534" lon="7.586497370702269"><ele>494.0</ele><time>2026-04-08T17:36:15Z</time></trkpt><trkpt lat="44.410673904478514" lon="7.586191840979429"><ele>494.0</ele><time>2026-04-08T17:36:16Z</time></trkpt><trkpt lat="44.41056746607554" lon="7.585928538454023"><ele>494.66666666666663</ele><time>2026-04-08T17:36:17Z</time></trkpt><trkpt lat="44.410468641177445" lon="7.58568636408192"><ele>495.33333333333337</ele><time>2026-04-08T17:36:18Z</time></trkpt><trkpt lat="44.41035540689367" lon="7.585428347148828"><ele>496.0</ele><time>2026-04-08T17:36:19Z</time></trkpt><trkpt lat="44.41022402215893" lon="7.585178552433592"><ele>496.0</ele><time>2026-04-08T17:36:20Z</time></trkpt><trkpt lat="44.41007944515867" lon="7.5849315722937884"><ele>496.0</ele><time>2026-04-08T17:36:21Z</time></trkpt><trkpt lat="44.40992612062504" lon="7.58468467912463"><ele>497.0</ele><time>2026-04-08T17:36:22Z</time></trkpt><trkpt lat="44.40978064031292" lon="7.584438035264685"><ele>498.0</ele><time>2026-04-08T17:36:23Z</time></trkpt><trkpt lat="44.40965413849394" lon="7.584209638217355"><ele>499.0</ele><time>2026-04-08T17:36:24Z</time></trkpt><trkpt lat="44.40955027894374" lon="7.583956143642819"><ele>498.0</ele><time>2026-04-08T17:36:25Z</time></trkpt><trkpt lat="44.409415694570534" lon="7.58367091737715"><ele>497.0</ele><time>2026-04-08T17:36:26Z</time></trkpt><trkpt lat="44.40927907379143" lon="7.583352730278649"><ele>497.0</ele><time>2026-04-08T17:36:27Z</time></trkpt><trkpt lat="44.40914910526597" lon="7.583035748432999"><ele>497.0</ele><time>2026-04-08T17:36:28Z</time></trkpt><trkpt lat="44.409030759886754" lon="7.58274702782339"><ele>497.66666666666663</ele><time>2026-04-08T17:36:29Z</time></trkpt><trkpt lat="44.40892409289531" lon="7.58248879707384"><ele>498.33333333333337</ele><time>2026-04-08T17:36:30Z</time></trkpt><trkpt lat="44.408821043388855" lon="7.5822190578052675"><ele>499.0</ele><time>2026-04-08T17:36:31Z</time></trkpt><trkpt lat="44.4087194610742" lon="7.581921807511755"><ele>496.5</ele><time>2026-04-08T17:36:32Z</time></trkpt><trkpt lat="44.40860716779643" lon="7.581584593043064"><ele>494.0</ele><time>2026-04-08T17:36:33Z</time></trkpt><trkpt lat="44.40849018129906" lon="7.581240733474623"><ele>492.5</ele><time>2026-04-08T17:36:34Z</time></trkpt><trkpt lat="44.40836556284378" lon="7.580880284134517"><ele>491.0</ele><time>2026-04-08T17:36:35Z</time></trkpt><trkpt lat="44.40826030394558" lon="7.580505941377612"><ele>492.0</ele><time>2026-04-08T17:36:36Z</time></trkpt><trkpt lat="44.408141835093005" lon="7.580144215411435"><ele>493.0</ele><time>2026-04-08T17:36:37Z</time></trkpt><trkpt lat="44.408024987101115" lon="7.57978913367668"><ele>492.5</ele><time>2026-04-08T17:36:38Z</time></trkpt><trkpt lat="44.40791774671792" lon="7.579466466215442"><ele>492.0</ele><time>2026-04-08T17:36:39Z</time></trkpt><trkpt lat="44.40782119747156" lon="7.579176505566979"><ele>492.0</ele><time>2026-04-08T17:36:40Z</time></trkpt><trkpt lat="44.40773201298922" lon="7.578906697977936"><ele>492.0</ele><time>2026-04-08T17:36:41Z</time></trkpt><trkpt lat="44.4076501806525" lon="7.5786620289428335"><ele>492.0</ele><time>2026-04-08T17:36:42Z</time></trkpt><trkpt lat="44.407578089510544" lon="7.5784439199837"><ele>492.0</ele><time>2026-04-08T17:36:43Z</time></trkpt><trkpt lat="44.40751420091726" lon="7.5782354192008885"><ele>492.0</ele><time>2026-04-08T17:36:44Z</time></trkpt><trkpt lat="44.40746223035143" lon="7.578040601522605"><ele>492.0</ele><time>2026-04-08T17:36:45Z</time></trkpt><trkpt lat="44.40742991867395" lon="7.577859144137693"><ele>492.0</ele><time>2026-04-08T17:36:46Z</time></trkpt><trkpt lat="44.4074131018286" lon="7.577678307865574"><ele>491.66666666666663</ele><time>2026-04-08T17:36:47Z</time></trkpt><trkpt lat="44.40741241438077" lon="7.577475207568172"><ele>491.3333333333333</ele><time>2026-04-08T17:36:48Z</time></trkpt><trkpt lat="44.40743026459022" lon="7.577232630057506"><ele>491.0</ele><time>2026-04-08T17:36:49Z</time></trkpt><trkpt lat="44.407478962280265" lon="7.576965075462719"><ele>490.5</ele><time>2026-04-08T17:36:50Z</time></trkpt><trkpt lat="44.40755335408855" lon="7.57667973652079"><ele>490.0</ele><time>2026-04-08T17:36:51Z</time></trkpt><trkpt lat="44.40764478373613" lon="7.576366936826794"><ele>490.5</ele><time>2026-04-08T17:36:52Z</time></trkpt><trkpt lat="44.407743916498845" lon="7.5760328948266755"><ele>491.0</ele><time>2026-04-08T17:36:53Z</time></trkpt><trkpt lat="44.4078317775785" lon="7.5757368353443075"><ele>491.0</ele><time>2026-04-08T17:36:54Z</time></trkpt><trkpt lat="44.40789070362368" lon="7.575480583705554"><ele>491.0</ele><time>2026-04-08T17:36:55Z</time></trkpt><trkpt lat="44.40794979859973" lon="7.575297329634599"><ele>491.0</ele><time>2026-04-08T17:36:56Z</time></trkpt><trkpt lat="44.40799722839113" lon="7.575144211348943"><ele>490.6</ele><time>2026-04-08T17:36:57Z</time></trkpt><trkpt lat="44.40803099444091" lon="7.5750114231213965"><ele>490.20000000000005</ele><time>2026-04-08T17:36:58Z</time></trkpt><trkpt lat="44.40804245350846" lon="7.5748827229024025"><ele>489.79999999999995</ele><time>2026-04-08T17:36:59Z</time></trkpt><trkpt lat="44.40805661563269" lon="7.5747304480189435"><ele>489.4</ele><time>2026-04-08T17:37:00Z</time></trkpt><trkpt lat="44.40805235685895" lon="7.5745400650332195"><ele>489.0</ele><time>2026-04-08T17:37:01Z</time></trkpt><trkpt lat="44.40802891012449" lon="7.5743264611280825"><ele>489.33333333333337</ele><time>2026-04-08T17:37:02Z</time></trkpt><trkpt lat="44.40798284022626" lon="7.574113681824507"><ele>489.6666666666667</ele><time>2026-04-08T17:37:03Z</time></trkpt><trkpt lat="44.40790488291515" lon="7.573924510154639"><ele>490.0</ele><time>2026-04-08T17:37:04Z</time></trkpt><trkpt lat="44.40782248228955" lon="7.573743474528056"><ele>488.0</ele><time>2026-04-08T17:37:05Z</time></trkpt><trkpt lat="44.407714136080465" lon="7.573567386151304"><ele>486.0</ele><time>2026-04-08T17:37:06Z</time></trkpt><trkpt lat="44.40757694816132" lon="7.573379676448416"><ele>484.0</ele><time>2026-04-08T17:37:07Z</time></trkpt><trkpt lat="44.407404023877255" lon="7.573162082482183"><ele>484.0</ele><time>2026-04-08T17:37:08Z</time></trkpt><trkpt lat="44.40722060529547" lon="7.572900392165454"><ele>484.0</ele><time>2026-04-08T17:37:09Z</time></trkpt><trkpt lat="44.40700600703955" lon="7.572639842297141"><ele>483.0</ele><time>2026-04-08T17:37:10Z</time></trkpt><trkpt lat="44.406766713338754" lon="7.572360207264657"><ele>482.0</ele><time>2026-04-08T17:37:11Z</time></trkpt><trkpt lat="44.406519400380844" lon="7.572079414831909"><ele>481.5</ele><time>2026-04-08T17:37:12Z</time></trkpt><trkpt lat="44.406299513731724" lon="7.571832451201529"><ele>481.0</ele><time>2026-04-08T17:37:13Z</time></trkpt><trkpt lat="44.4061019882662" lon="7.571605906948205"><ele>481.0</ele><time>2026-04-08T17:37:14Z</time></trkpt><trkpt lat="44.40592786975662" lon="7.571396970860019"><ele>481.0</ele><time>2026-04-08T17:37:15Z</time></trkpt><trkpt lat="44.405786468787426" lon="7.5712194165087485"><ele>481.0</ele><time>2026-04-08T17:37:16Z</time></trkpt><trkpt lat="44.40568195848283" lon="7.571082038126507"><ele>481.0</ele><time>2026-04-08T17:37:17Z</time></trkpt><trkpt lat="44.405607613431535" lon="7.570982525632682"><ele>481.0</ele><time>2026-04-08T17:37:18Z</time></trkpt><trkpt lat="44.405546276613855" lon="7.570900424736557"><ele>481.0</ele><time>2026-04-08T17:37:19Z</time></trkpt><trkpt lat="44.40548783261048" lon="7.570821392711513"><ele>481.0</ele><time>2026-04-08T17:37:20Z</time></trkpt><trkpt lat="44.40541892851164" lon="7.570727648212135"><ele>481.0</ele><time>2026-04-08T17:37:21Z</time></trkpt><trkpt lat="44.40533350469412" lon="7.570611428467049"><ele>481.0</ele><time>2026-04-08T17:37:22Z</time></trkpt><trkpt lat="44.4052205487772" lon="7.570486070697408"><ele>481.0</ele><time>2026-04-08T17:37:23Z</time></trkpt><trkpt lat="44.40511261050525" lon="7.570297920561214"><ele>481.0</ele><time>2026-04-08T17:37:24Z</time></trkpt><trkpt lat="44.404980419986295" lon="7.5701210167151"><ele>481.0</ele><time>2026-04-08T17:37:25Z</time></trkpt><trkpt lat="44.40486034631238" lon="7.569903150362305"><ele>481.0</ele><time>2026-04-08T17:37:26Z</time></trkpt><trkpt lat="44.40474348352226" lon="7.569652340092373"><ele>481.0</ele><time>2026-04-08T17:37:27Z</time></trkpt><trkpt lat="44.40463780451239" lon="7.569372997234654"><ele>482.0</ele><time>2026-04-08T17:37:28Z</time></trkpt><trkpt lat="44.40452055047586" lon="7.569104010804715"><ele>483.0</ele><time>2026-04-08T17:37:29Z</time></trkpt><trkpt lat="44.40441961096081" lon="7.568880863974129"><ele>484.0</ele><time>2026-04-08T17:37:30Z</time></trkpt><trkpt lat="44.404345392136804" lon="7.568718937006379"><ele>484.33333333333337</ele><time>2026-04-08T17:37:31Z</time></trkpt><trkpt lat="44.4042477847513" lon="7.568577664283712"><ele>484.66666666666663</ele><time>2026-04-08T17:37:32Z</time></trkpt><trkpt lat="44.404142651160214" lon="7.568411054498234"><ele>485.0</ele><time>2026-04-08T17:37:33Z</time></trkpt><trkpt lat="44.404012796805546" lon="7.568248122801949"><ele>485.0</ele><time>2026-04-08T17:37:34Z</time></trkpt><trkpt lat="44.403861050388656" lon="7.568083790083359"><ele>485.0</ele><time>2026-04-08T17:37:35Z</time></trkpt><trkpt lat="44.403713139826266" lon="7.56791227309413"><ele>485.0</ele><time>2026-04-08T17:37:36Z</time></trkpt><trkpt lat="44.40356111261202" lon="7.567806183437879"><ele>484.3333333333333</ele><time>2026-04-08T17:37:37Z</time></trkpt><trkpt lat="44.40343467617885" lon="7.567699152727033"><ele>483.66666666666663</ele><time>2026-04-08T17:37:38Z</time></trkpt><trkpt lat="44.40329923986881" lon="7.567598338835812"><ele>483.0</ele><time>2026-04-08T17:37:39Z</time></trkpt><trkpt lat="44.403151775156594" lon="7.56750797703349"><ele>483.66666666666663</ele><time>2026-04-08T17:37:40Z</time></trkpt><trkpt lat="44.402992492125115" lon="7.567428682687569"><ele>484.3333333333333</ele><time>2026-04-08T17:37:41Z</time></trkpt><trkpt lat="44.4028299782624" lon="7.567349994136847"><ele>485.0</ele><time>2026-04-08T17:37:42Z</time></trkpt><trkpt lat="44.40263332067733" lon="7.567337705577482"><ele>485.0</ele><time>2026-04-08T17:37:43Z</time></trkpt><trkpt lat="44.40242574471757" lon="7.567298384749387"><ele>485.0</ele><time>2026-04-08T17:37:44Z</time></trkpt><trkpt lat="44.40222855031463" lon="7.567302082609172"><ele>485.0</ele><time>2026-04-08T17:37:45Z</time></trkpt><trkpt lat="44.40203247101083" lon="7.5672798053954"><ele>485.66666666666663</ele><time>2026-04-08T17:37:46Z</time></trkpt><trkpt lat="44.40182510364421" lon="7.567190946251139"><ele>486.33333333333337</ele><time>2026-04-08T17:37:47Z</time></trkpt><trkpt lat="44.40160874771222" lon="7.567126426160057"><ele>487.0</ele><time>2026-04-08T17:37:48Z</time></trkpt><trkpt lat="44.4013944523108" lon="7.5670342765203715"><ele>487.0</ele><time>2026-04-08T17:37:49Z</time></trkpt><trkpt lat="44.4012010722404" lon="7.566963752201683"><ele>487.0</ele><time>2026-04-08T17:37:50Z</time></trkpt><trkpt lat="44.40099336325212" lon="7.566906533296734"><ele>487.0</ele><time>2026-04-08T17:37:51Z</time></trkpt><trkpt lat="44.40076803955847" lon="7.566846525275376"><ele>487.0</ele><time>2026-04-08T17:37:52Z</time></trkpt><trkpt lat="44.40051496980159" lon="7.56682316925806"><ele>487.0</ele><time>2026-04-08T17:37:53Z</time></trkpt><trkpt lat="44.400252949409115" lon="7.566798398509936"><ele>487.33333333333337</ele><time>2026-04-08T17:37:54Z</time></trkpt><trkpt lat="44.4000169053847" lon="7.566774902312265"><ele>487.66666666666663</ele><time>2026-04-08T17:37:55Z</time></trkpt><trkpt lat="44.399840071084725" lon="7.5667572979706215"><ele>488.0</ele><time>2026-04-08T17:37:56Z</time></trkpt><trkpt lat="44.39970218087913" lon="7.566765160394038"><ele>488.2</ele><time>2026-04-08T17:37:57Z</time></trkpt><trkpt lat="44.39961007522245" lon="7.566755568514827"><ele>488.4</ele><time>2026-04-08T17:37:58Z</time></trkpt><trkpt lat="44.399513582565184" lon="7.566742194465848"><ele>488.59999999999997</ele><time>2026-04-08T17:37:59Z</time></trkpt><trkpt lat="44.39942475633496" lon="7.566732768589702"><ele>488.79999999999995</ele><time>2026-04-08T17:38:00Z</time></trkpt><trkpt lat="44.39931970000578" lon="7.566716941247478"><ele>489.0</ele><time>2026-04-08T17:38:01Z</time></trkpt><trkpt lat="44.39919387147593" lon="7.566700841735814"><ele>489.0</ele><time>2026-04-08T17:38:02Z</time></trkpt><trkpt lat="44.399036817162454" lon="7.566669227317023"><ele>489.0</ele><time>2026-04-08T17:38:03Z</time></trkpt><trkpt lat="44.398836397109406" lon="7.566581243579156"><ele>489.0</ele><time>2026-04-08T17:38:04Z</time></trkpt><trkpt lat="44.398602016058" lon="7.56648106448978"><ele>492.0</ele><time>2026-04-08T17:38:05Z</time></trkpt><trkpt lat="44.39835676370109" lon="7.566366677469774"><ele>495.0</ele><time>2026-04-08T17:38:06Z</time></trkpt><trkpt lat="44.398135790082016" lon="7.566264687001438"><ele>494.75</ele><time>2026-04-08T17:38:07Z</time></trkpt><trkpt lat="44.39796195746534" lon="7.566184454473118"><ele>494.5</ele><time>2026-04-08T17:38:08Z</time></trkpt><trkpt lat="44.39782224262412" lon="7.566140904211577"><ele>494.25</ele><time>2026-04-08T17:38:09Z</time></trkpt><trkpt lat="44.397730295745724" lon="7.566092848705315"><ele>494.0</ele><time>2026-04-08T17:38:10Z</time></trkpt><trkpt lat="44.3976555630874" lon="7.56605454503903"><ele>494.0</ele><time>2026-04-08T17:38:11Z</time></trkpt><trkpt lat="44.39758227268062" lon="7.56601944338449"><ele>494.0</ele><time>2026-04-08T17:38:12Z</time></trkpt><trkpt lat="44.39751464039831" lon="7.565991685022092"><ele>494.0</ele><time>2026-04-08T17:38:13Z</time></trkpt><trkpt lat="44.39742954769018" lon="7.565950056361787"><ele>494.0</ele><time>2026-04-08T17:38:14Z</time></trkpt><trkpt lat="44.397297504183655" lon="7.565890030975745"><ele>494.0</ele><time>2026-04-08T17:38:15Z</time></trkpt><trkpt lat="44.39711478816322" lon="7.565806834757844"><ele>494.0</ele><time>2026-04-08T17:38:16Z</time></trkpt><trkpt lat="44.396890094289766" lon="7.5657072325210795"><ele>494.0</ele><time>2026-04-08T17:38:17Z</time></trkpt><trkpt lat="44.396639734731295" lon="7.565592795757172"><ele>494.0</ele><time>2026-04-08T17:38:18Z</time></trkpt><trkpt lat="44.39638564726041" lon="7.565475309651927"><ele>494.0</ele><time>2026-04-08T17:38:19Z</time></trkpt><trkpt lat="44.39612914617258" lon="7.565353538554721"><ele>494.0</ele><time>2026-04-08T17:38:20Z</time></trkpt><trkpt lat="44.395885457755725" lon="7.56524001391835"><ele>494.0</ele><time>2026-04-08T17:38:21Z</time></trkpt><trkpt lat="44.395664079843684" lon="7.5651346337525505"><ele>494.66666666666663</ele><time>2026-04-08T17:38:22Z</time></trkpt><trkpt lat="44.395465373644214" lon="7.565036959642608"><ele>495.33333333333337</ele><time>2026-04-08T17:38:23Z</time></trkpt><trkpt lat="44.39528428158106" lon="7.564954191301221"><ele>496.0</ele><time>2026-04-08T17:38:24Z</time></trkpt><trkpt lat="44.395127332947744" lon="7.564881403547945"><ele>496.0</ele><time>2026-04-08T17:38:25Z</time></trkpt><trkpt lat="44.394999160328496" lon="7.564818027114438"><ele>496.0</ele><time>2026-04-08T17:38:26Z</time></trkpt><trkpt lat="44.39488772236959" lon="7.564765777873363"><ele>496.0</ele><time>2026-04-08T17:38:27Z</time></trkpt><trkpt lat="44.39480008972719" lon="7.564721450757704"><ele>496.0</ele><time>2026-04-08T17:38:28Z</time></trkpt><trkpt lat="44.39473779155076" lon="7.564694845688491"><ele>496.0</ele><time>2026-04-08T17:38:29Z</time></trkpt><trkpt lat="44.394669762082025" lon="7.564667473546529"><ele>496.0</ele><time>2026-04-08T17:38:30Z</time></trkpt><trkpt lat="44.394560944834076" lon="7.564616200891446"><ele>496.0</ele><time>2026-04-08T17:38:31Z</time></trkpt><trkpt lat="44.39442290291166" lon="7.564550481871674"><ele>496.0</ele><time>2026-04-08T17:38:32Z</time></trkpt><trkpt lat="44.394258260882665" lon="7.564478177169489"><ele>496.0</ele><time>2026-04-08T17:38:33Z</time></trkpt><trkpt lat="44.39409962512173" lon="7.564400506873792"><ele>496.25</ele><time>2026-04-08T17:38:34Z</time></trkpt><trkpt lat="44.39397026673533" lon="7.564340771926914"><ele>496.5</ele><time>2026-04-08T17:38:35Z</time></trkpt><trkpt lat="44.393849843752506" lon="7.56428235366288"><ele>496.75</ele><time>2026-04-08T17:38:36Z</time></trkpt><trkpt lat="44.393728173058825" lon="7.564225880060508"><ele>497.0</ele><time>2026-04-08T17:38:37Z</time></trkpt><trkpt lat="44.39359715313688" lon="7.564162178257669"><ele>497.66666666666663</ele><time>2026-04-08T17:38:38Z</time></trkpt><trkpt lat="44.39346245883217" lon="7.564102677302269"><ele>498.33333333333337</ele><time>2026-04-08T17:38:39Z</time></trkpt><trkpt lat="44.39331914441884" lon="7.564034768340138"><ele>499.0</ele><time>2026-04-08T17:38:40Z</time></trkpt><trkpt lat="44.39315928425237" lon="7.563959086835043"><ele>499.33333333333337</ele><time>2026-04-08T17:38:41Z</time></trkpt><trkpt lat="44.39297821109715" lon="7.563870849978687"><ele>499.66666666666663</ele><time>2026-04-08T17:38:42Z</time></trkpt><trkpt lat="44.39279493369723" lon="7.563791189377382"><ele>500.0</ele><time>2026-04-08T17:38:43Z</time></trkpt><trkpt lat="44.39264055700289" lon="7.563729573101263"><ele>500.0</ele><time>2026-04-08T17:38:44Z</time></trkpt><trkpt lat="44.39250310320596" lon="7.563656913428003"><ele>500.0</ele><time>2026-04-08T17:38:45Z</time></trkpt><trkpt lat="44.39237614533323" lon="7.56359291206379"><ele>500.0</ele><time>2026-04-08T17:38:46Z</time></trkpt><trkpt lat="44.39226130784554" lon="7.563544512704718"><ele>500.0</ele><time>2026-04-08T17:38:47Z</time></trkpt><trkpt lat="44.3921418244055" lon="7.563493989204389"><ele>500.2</ele><time>2026-04-08T17:38:48Z</time></trkpt><trkpt lat="44.39203382459137" lon="7.563445273994518"><ele>500.4</ele><time>2026-04-08T17:38:49Z</time></trkpt><trkpt lat="44.391930960782624" lon="7.563401619381359"><ele>500.6</ele><time>2026-04-08T17:38:50Z</time></trkpt><trkpt lat="44.39184386224954" lon="7.563355030169362"><ele>500.8</ele><time>2026-04-08T17:38:51Z</time></trkpt><trkpt lat="44.391744310139416" lon="7.563295372043397"><ele>501.0</ele><time>2026-04-08T17:38:53Z</time></trkpt><trkpt lat="44.39168738384521" lon="7.5632420052199425"><ele>501.0</ele><time>2026-04-08T17:38:57Z</time></trkpt><trkpt lat="44.39160351347317" lon="7.563170656120929"><ele>501.0</ele><time>2026-04-08T17:38:59Z</time></trkpt><trkpt lat="44.391498672672" lon="7.563100505190604"><ele>501.0</ele><time>2026-04-08T17:39:01Z</time></trkpt><trkpt lat="44.39145028487974" lon="7.562957424412453"><ele>501.0</ele><time>2026-04-08T17:39:03Z</time></trkpt><trkpt lat="44.39141129877332" lon="7.562845699583458"><ele>501.0</ele><time>2026-04-08T17:39:05Z</time></trkpt><trkpt lat="44.39139517189039" lon="7.562757740964055"><ele>501.0</ele><time>2026-04-08T17:39:06Z</time></trkpt><trkpt lat="44.391375478836146" lon="7.562651563391891"><ele>501.0</ele><time>2026-04-08T17:39:07Z</time></trkpt><trkpt lat="44.3913559506194" lon="7.562565897738065"><ele>501.0</ele><time>2026-04-08T17:39:08Z</time></trkpt><trkpt lat="44.391308014810605" lon="7.562399234162185"><ele>501.0</ele><time>2026-04-08T17:39:10Z</time></trkpt><trkpt lat="44.39135287631726" lon="7.562221376054059"><ele>501.0</ele><time>2026-04-08T17:39:11Z</time></trkpt><trkpt lat="44.39132890339901" lon="7.561994012441948"><ele>501.0</ele><time>2026-04-08T17:39:12Z</time></trkpt><trkpt lat="44.39132509015325" lon="7.561695644060623"><ele>501.0</ele><time>2026-04-08T17:39:13Z</time></trkpt><trkpt lat="44.3913019535025" lon="7.561373836158353"><ele>501.0</ele><time>2026-04-08T17:39:14Z</time></trkpt><trkpt lat="44.391279700960254" lon="7.561049546689221"><ele>501.0</ele><time>2026-04-08T17:39:15Z</time></trkpt><trkpt lat="44.391251222154274" lon="7.560696306349681"><ele>501.0</ele><time>2026-04-08T17:39:16Z</time></trkpt><trkpt lat="44.39122149131746" lon="7.560350197274915"><ele>500.66666666666663</ele><time>2026-04-08T17:39:17Z</time></trkpt><trkpt lat="44.39119982566865" lon="7.5600441491923815"><ele>500.3333333333333</ele><time>2026-04-08T17:39:18Z</time></trkpt><trkpt lat="44.39117906700904" lon="7.559764641521856"><ele>500.0</ele><time>2026-04-08T17:39:19Z</time></trkpt><trkpt lat="44.391159338638616" lon="7.559503685987099"><ele>500.5</ele><time>2026-04-08T17:39:20Z</time></trkpt><trkpt lat="44.39115170858415" lon="7.5592712231779124"><ele>501.0</ele><time>2026-04-08T17:39:21Z</time></trkpt><trkpt lat="44.391157282900565" lon="7.559059229697208"><ele>501.5</ele><time>2026-04-08T17:39:22Z</time></trkpt><trkpt lat="44.391168224007096" lon="7.558882780162654"><ele>502.0</ele><time>2026-04-08T17:39:23Z</time></trkpt><trkpt lat="44.39119344856526" lon="7.558710439265218"><ele>501.6666666666667</ele><time>2026-04-08T17:39:24Z</time></trkpt><trkpt lat="44.39124879813535" lon="7.558527548214148"><ele>501.33333333333337</ele><time>2026-04-08T17:39:25Z</time></trkpt><trkpt lat="44.391317409904076" lon="7.55830170618145"><ele>501.0</ele><time>2026-04-08T17:39:26Z</time></trkpt><trkpt lat="44.39138959235201" lon="7.558038941643588"><ele>502.0</ele><time>2026-04-08T17:39:27Z</time></trkpt><trkpt lat="44.39149350420162" lon="7.557751747060295"><ele>503.0</ele><time>2026-04-08T17:39:28Z</time></trkpt><trkpt lat="44.391616397951736" lon="7.557414236206912"><ele>503.0</ele><time>2026-04-08T17:39:29Z</time></trkpt><trkpt lat="44.391755810160674" lon="7.557088742412838"><ele>503.0</ele><time>2026-04-08T17:39:30Z</time></trkpt><trkpt lat="44.391878505079" lon="7.556750705404087"><ele>503.0</ele><time>2026-04-08T17:39:31Z</time></trkpt><trkpt lat="44.39198895131148" lon="7.5564498250417085"><ele>503.0</ele><time>2026-04-08T17:39:32Z</time></trkpt><trkpt lat="44.392086839698294" lon="7.556181134388845"><ele>503.0</ele><time>2026-04-08T17:39:33Z</time></trkpt><trkpt lat="44.3921700577012" lon="7.5559527122474295"><ele>503.0</ele><time>2026-04-08T17:39:34Z</time></trkpt><trkpt lat="44.39223713600056" lon="7.555768590722596"><ele>503.0</ele><time>2026-04-08T17:39:35Z</time></trkpt><trkpt lat="44.392283309304545" lon="7.555593112631555"><ele>503.49999999999994</ele><time>2026-04-08T17:39:36Z</time></trkpt><trkpt lat="44.39232936974245" lon="7.5554799266397"><ele>504.0</ele><time>2026-04-08T17:39:37Z</time></trkpt><trkpt lat="44.39236456436684" lon="7.55538670543582"><ele>504.5</ele><time>2026-04-08T17:39:38Z</time></trkpt><trkpt lat="44.39240244970501" lon="7.555309053168341"><ele>505.0</ele><time>2026-04-08T17:39:39Z</time></trkpt><trkpt lat="44.39249134539617" lon="7.555246841653051"><ele>505.49999999999994</ele><time>2026-04-08T17:39:40Z</time></trkpt><trkpt lat="44.392545565959615" lon="7.555147550982982"><ele>506.0</ele><time>2026-04-08T17:39:41Z</time></trkpt><trkpt lat="44.392558660216544" lon="7.5550396090041065"><ele>506.8</ele><time>2026-04-08T17:39:42Z</time></trkpt><trkpt lat="44.39255795175406" lon="7.554945175897138"><ele>507.6</ele><time>2026-04-08T17:39:43Z</time></trkpt><trkpt lat="44.3924751652045" lon="7.554808772269576"><ele>508.4</ele><time>2026-04-08T17:39:45Z</time></trkpt><trkpt lat="44.3924004256879" lon="7.554769248583048"><ele>509.2</ele><time>2026-04-08T17:39:46Z</time></trkpt><trkpt lat="44.392304866486626" lon="7.5547766857939305"><ele>510.0</ele><time>2026-04-08T17:39:47Z</time></trkpt><trkpt lat="44.39220487283121" lon="7.554711034341181"><ele>511.0</ele><time>2026-04-08T17:39:48Z</time></trkpt><trkpt lat="44.392070101491306" lon="7.554603021607219"><ele>512.0</ele><time>2026-04-08T17:39:49Z</time></trkpt><trkpt lat="44.39194211018011" lon="7.554434507682958"><ele>513.0</ele><time>2026-04-08T17:39:50Z</time></trkpt><trkpt lat="44.391786895709416" lon="7.554243781511577"><ele>513.0</ele><time>2026-04-08T17:39:51Z</time></trkpt><trkpt lat="44.39160779638022" lon="7.554055890069029"><ele>513.0</ele><time>2026-04-08T17:39:52Z</time></trkpt><trkpt lat="44.3914249248385" lon="7.553868800761537"><ele>515.3333333333334</ele><time>2026-04-08T17:39:53Z</time></trkpt><trkpt lat="44.39124416160058" lon="7.5536861935749515"><ele>517.6666666666667</ele><time>2026-04-08T17:39:54Z</time></trkpt><trkpt lat="44.391075840711" lon="7.553513539289167"><ele>520.0</ele><time>2026-04-08T17:39:55Z</time></trkpt><trkpt lat="44.39090176591751" lon="7.553337623951822"><ele>520.0</ele><time>2026-04-08T17:39:56Z</time></trkpt><trkpt lat="44.3907242743112" lon="7.5531609377189985"><ele>520.0</ele><time>2026-04-08T17:39:57Z</time></trkpt><trkpt lat="44.39056382710555" lon="7.552996713360846"><ele>520.0</ele><time>2026-04-08T17:39:58Z</time></trkpt><trkpt lat="44.39041128287081" lon="7.552843208975996"><ele>521.6666666666667</ele><time>2026-04-08T17:39:59Z</time></trkpt><trkpt lat="44.390249804726416" lon="7.552695586819931"><ele>523.3333333333334</ele><time>2026-04-08T17:40:00Z</time></trkpt><trkpt lat="44.39007648801788" lon="7.55255182597662"><ele>525.0</ele><time>2026-04-08T17:40:01Z</time></trkpt><trkpt lat="44.38991134274516" lon="7.5524120382879225"><ele>525.0</ele><time>2026-04-08T17:40:02Z</time></trkpt><trkpt lat="44.38976703902991" lon="7.552291118159082"><ele>525.0</ele><time>2026-04-08T17:40:03Z</time></trkpt><trkpt lat="44.389637406982516" lon="7.55218098137175"><ele>525.0</ele><time>2026-04-08T17:40:04Z</time></trkpt><trkpt lat="44.38952081083736" lon="7.5520797178017816"><ele>527.0</ele><time>2026-04-08T17:40:05Z</time></trkpt><trkpt lat="44.38941914776324" lon="7.551984729590495"><ele>529.0</ele><time>2026-04-08T17:40:06Z</time></trkpt><trkpt lat="44.38931141232653" lon="7.551888407013747"><ele>531.0</ele><time>2026-04-08T17:40:07Z</time></trkpt><trkpt lat="44.389180558622016" lon="7.5517814737003"><ele>533.0</ele><time>2026-04-08T17:40:08Z</time></trkpt><trkpt lat="44.38902787917346" lon="7.551646584144661"><ele>533.0</ele><time>2026-04-08T17:40:09Z</time></trkpt><trkpt lat="44.38886842038578" lon="7.551510833146508"><ele>533.0</ele><time>2026-04-08T17:40:10Z</time></trkpt><trkpt lat="44.388736111127464" lon="7.551384294162518"><ele>533.0</ele><time>2026-04-08T17:40:11Z</time></trkpt><trkpt lat="44.3886148326368" lon="7.5512834898671315"><ele>534.25</ele><time>2026-04-08T17:40:12Z</time></trkpt><trkpt lat="44.38849975532213" lon="7.55118234289661"><ele>535.5</ele><time>2026-04-08T17:40:13Z</time></trkpt><trkpt lat="44.38838165604305" lon="7.55107756624825"><ele>536.75</ele><time>2026-04-08T17:40:14Z</time></trkpt><trkpt lat="44.38825579899243" lon="7.550968545519564"><ele>538.0</ele><time>2026-04-08T17:40:15Z</time></trkpt><trkpt lat="44.3881328243608" lon="7.550871948287766"><ele>538.0</ele><time>2026-04-08T17:40:16Z</time></trkpt><trkpt lat="44.38802083991918" lon="7.550782129028943"><ele>538.0</ele><time>2026-04-08T17:40:17Z</time></trkpt><trkpt lat="44.387928011424" lon="7.550702028661656"><ele>538.0</ele><time>2026-04-08T17:40:18Z</time></trkpt><trkpt lat="44.38783935065523" lon="7.550624595979448"><ele>538.0</ele><time>2026-04-08T17:40:19Z</time></trkpt><trkpt lat="44.38775652971829" lon="7.550557487901417"><ele>538.0</ele><time>2026-04-08T17:40:20Z</time></trkpt><trkpt lat="44.38767727323129" lon="7.55048766686543"><ele>539.0</ele><time>2026-04-08T17:40:21Z</time></trkpt><trkpt lat="44.38760600250944" lon="7.550421619202911"><ele>540.0</ele><time>2026-04-08T17:40:22Z</time></trkpt><trkpt lat="44.38754281708851" lon="7.550365442375716"><ele>541.0</ele><time>2026-04-08T17:40:23Z</time></trkpt><trkpt lat="44.387454525057755" lon="7.55028936889612"><ele>542.0</ele><time>2026-04-08T17:40:25Z</time></trkpt><trkpt lat="44.387404114288536" lon="7.550235820621269"><ele>543.0</ele><time>2026-04-08T17:40:27Z</time></trkpt><trkpt lat="44.38735453810048" lon="7.5500825464117"><ele>544.0</ele><time>2026-04-08T17:40:29Z</time></trkpt><trkpt lat="44.387395911495126" lon="7.549990798795269"><ele>544.0</ele><time>2026-04-08T17:40:30Z</time></trkpt><trkpt lat="44.387446554304205" lon="7.549905466960796"><ele>544.0</ele><time>2026-04-08T17:40:31Z</time></trkpt><trkpt lat="44.38751721251183" lon="7.549774052282819"><ele>544.0</ele><time>2026-04-08T17:40:32Z</time></trkpt><trkpt lat="44.3876045942716" lon="7.549604922985753"><ele>544.0</ele><time>2026-04-08T17:40:33Z</time></trkpt><trkpt lat="44.38766416036482" lon="7.549483731891522"><ele>544.0</ele><time>2026-04-08T17:40:34Z</time></trkpt><trkpt lat="44.38770673492967" lon="7.549399241282863"><ele>544.0</ele><time>2026-04-08T17:40:35Z</time></trkpt><trkpt lat="44.38774486544067" lon="7.549264078508622"><ele>544.0</ele><time>2026-04-08T17:40:37Z</time></trkpt><trkpt lat="44.387839752957404" lon="7.549173899354399"><ele>544.0</ele><time>2026-04-08T17:40:39Z</time></trkpt><trkpt lat="44.38790869952655" lon="7.549149587146178"><ele>544.0</ele><time>2026-04-08T17:40:40Z</time></trkpt><trkpt lat="44.38801689415495" lon="7.549092431068969"><ele>543.9999999999999</ele><time>2026-04-08T17:40:42Z</time></trkpt><trkpt lat="44.388043211206984" lon="7.54901194195205"><ele>544.0</ele><time>2026-04-08T17:40:43Z</time></trkpt><trkpt lat="44.388032533780176" lon="7.5489062682385235"><ele>544.0</ele><time>2026-04-08T17:40:44Z</time></trkpt><trkpt lat="44.38798993271523" lon="7.548815639332662"><ele>544.0</ele><time>2026-04-08T17:40:45Z</time></trkpt><trkpt lat="44.38792749259692" lon="7.548768353473125"><ele>544.0</ele><time>2026-04-08T17:40:46Z</time></trkpt><trkpt lat="44.38785729949527" lon="7.548759435281341"><ele>543.9999999999999</ele><time>2026-04-08T17:40:47Z</time></trkpt><trkpt lat="44.3877911118435" lon="7.548821606323883"><ele>544.0</ele><time>2026-04-08T17:40:48Z</time></trkpt><trkpt lat="44.38773461143448" lon="7.548945149084781"><ele>544.0</ele><time>2026-04-08T17:40:50Z</time></trkpt><trkpt lat="44.38777758280697" lon="7.5490918070545066"><ele>544.0</ele><time>2026-04-08T17:40:52Z</time></trkpt><trkpt lat="44.38787789947023" lon="7.549157394665994"><ele>544.0</ele><time>2026-04-08T17:40:54Z</time></trkpt><trkpt lat="44.3879790922449" lon="7.549095206859079"><ele>544.0</ele><time>2026-04-08T17:40:56Z</time></trkpt><trkpt lat="44.388050565860105" lon="7.548952457909012"><ele>544.0</ele><time>2026-04-08T17:40:58Z</time></trkpt><trkpt lat="44.38802811153961" lon="7.548827299083542"><ele>544.0</ele><time>2026-04-08T17:40:59Z</time></trkpt><trkpt lat="44.38805330340729" lon="7.548678358098361"><ele>544.0</ele><time>2026-04-08T17:41:00Z</time></trkpt><trkpt lat="44.38813490736756" lon="7.548533891228421"><ele>544.0</ele><time>2026-04-08T17:41:01Z</time></trkpt><trkpt lat="44.388220238317295" lon="7.54836441844533"><ele>544.6</ele><time>2026-04-08T17:41:02Z</time></trkpt><trkpt lat="44.388278278258085" lon="7.54821771463308"><ele>545.2</ele><time>2026-04-08T17:41:03Z</time></trkpt><trkpt lat="44.38834533254964" lon="7.548103492057053"><ele>545.8000000000001</ele><time>2026-04-08T17:41:04Z</time></trkpt><trkpt lat="44.388400903778546" lon="7.547989012098557"><ele>546.4</ele><time>2026-04-08T17:41:05Z</time></trkpt><trkpt lat="44.38844935814522" lon="7.547888112505135"><ele>547.0</ele><time>2026-04-08T17:41:06Z</time></trkpt><trkpt lat="44.38849043051634" lon="7.547805618922468"><ele>547.0</ele><time>2026-04-08T17:41:07Z</time></trkpt><trkpt lat="44.388532086596776" lon="7.547704954183373"><ele>547.0</ele><time>2026-04-08T17:41:09Z</time></trkpt><trkpt lat="44.38865343421315" lon="7.547686016660468"><ele>547.0</ele><time>2026-04-08T17:41:11Z</time></trkpt><trkpt lat="44.38871912779755" lon="7.547666994181445"><ele>547.0</ele><time>2026-04-08T17:41:12Z</time></trkpt><trkpt lat="44.388813862154194" lon="7.547696560034904"><ele>547.0</ele><time>2026-04-08T17:41:13Z</time></trkpt><trkpt lat="44.38890399141108" lon="7.547834943056638"><ele>546.2</ele><time>2026-04-08T17:41:14Z</time></trkpt><trkpt lat="44.38900650284636" lon="7.5479307878792445"><ele>545.4000000000001</ele><time>2026-04-08T17:41:15Z</time></trkpt><trkpt lat="44.3890834763828" lon="7.548023416691518"><ele>544.5999999999999</ele><time>2026-04-08T17:41:16Z</time></trkpt><trkpt lat="44.389151155981885" lon="7.548084842267013"><ele>543.8</ele><time>2026-04-08T17:41:17Z</time></trkpt><trkpt lat="44.38924954264369" lon="7.548181053923406"><ele>543.0</ele><time>2026-04-08T17:41:19Z</time></trkpt><trkpt lat="44.38933857137232" lon="7.548271825486092"><ele>543.0</ele><time>2026-04-08T17:41:21Z</time></trkpt><trkpt lat="44.38939143814881" lon="7.548328382676451"><ele>543.0</ele><time>2026-04-08T17:41:22Z</time></trkpt><trkpt lat="44.3894596711689" lon="7.5483965166651235"><ele>543.0</ele><time>2026-04-08T17:41:23Z</time></trkpt><trkpt lat="44.3895420180737" lon="7.54847682182545"><ele>543.0</ele><time>2026-04-08T17:41:24Z</time></trkpt><trkpt lat="44.389624148046146" lon="7.54855599523824"><ele>543.0</ele><time>2026-04-08T17:41:25Z</time></trkpt><trkpt lat="44.389709837970976" lon="7.548631705304498"><ele>542.8</ele><time>2026-04-08T17:41:26Z</time></trkpt><trkpt lat="44.38978396399569" lon="7.548679740960048"><ele>542.5999999999999</ele><time>2026-04-08T17:41:27Z</time></trkpt><trkpt lat="44.389924544664765" lon="7.548719868738528"><ele>542.4000000000001</ele><time>2026-04-08T17:41:29Z</time></trkpt><trkpt lat="44.38999893948317" lon="7.548695295223542"><ele>542.2</ele><time>2026-04-08T17:41:30Z</time></trkpt><trkpt lat="44.390069776143136" lon="7.54862444117222"><ele>542.0</ele><time>2026-04-08T17:41:31Z</time></trkpt><trkpt lat="44.39013253077249" lon="7.54852596482872"><ele>542.0</ele><time>2026-04-08T17:41:32Z</time></trkpt><trkpt lat="44.3901596933852" lon="7.548384618202034"><ele>542.0</ele><time>2026-04-08T17:41:33Z</time></trkpt><trkpt lat="44.3902052087595" lon="7.548265128531367"><ele>542.0</ele><time>2026-04-08T17:41:34Z</time></trkpt><trkpt lat="44.390229294740465" lon="7.548149758487385"><ele>542.0</ele><time>2026-04-08T17:41:35Z</time></trkpt><trkpt lat="44.390231075658086" lon="7.548041290776178"><ele>542.0</ele><time>2026-04-08T17:41:36Z</time></trkpt><trkpt lat="44.390235028425685" lon="7.547938558793208"><ele>542.0</ele><time>2026-04-08T17:41:37Z</time></trkpt><trkpt lat="44.390156240004735" lon="7.547840629741777"><ele>541.75</ele><time>2026-04-08T17:41:38Z</time></trkpt><trkpt lat="44.390080463333824" lon="7.547746431866464"><ele>541.5</ele><time>2026-04-08T17:41:39Z</time></trkpt><trkpt lat="44.38998322638646" lon="7.547660601276556"><ele>541.25</ele><time>2026-04-08T17:41:40Z</time></trkpt><trkpt lat="44.38986353529828" lon="7.547566700021339"><ele>541.0</ele><time>2026-04-08T17:41:41Z</time></trkpt><trkpt lat="44.38976101914788" lon="7.547473822617944"><ele>541.0</ele><time>2026-04-08T17:41:42Z</time></trkpt><trkpt lat="44.38968180127846" lon="7.547400226086643"><ele>541.0</ele><time>2026-04-08T17:41:43Z</time></trkpt><trkpt lat="44.3896089972407" lon="7.547330510939805"><ele>541.0</ele><time>2026-04-08T17:41:44Z</time></trkpt><trkpt lat="44.3895254519484" lon="7.547249600947779"><ele>541.0</ele><time>2026-04-08T17:41:45Z</time></trkpt><trkpt lat="44.38943862770568" lon="7.547165694244316"><ele>541.0</ele><time>2026-04-08T17:41:46Z</time></trkpt><trkpt lat="44.38936243496179" lon="7.547097725798532"><ele>541.0</ele><time>2026-04-08T17:41:47Z</time></trkpt><trkpt lat="44.389295678601755" lon="7.547054818221067"><ele>541.0</ele><time>2026-04-08T17:41:48Z</time></trkpt><trkpt lat="44.38919600694737" lon="7.546975274454963"><ele>541.0</ele><time>2026-04-08T17:41:50Z</time></trkpt><trkpt lat="44.389103531382496" lon="7.546933638022984"><ele>541.0</ele><time>2026-04-08T17:41:52Z</time></trkpt><trkpt lat="44.38902409086036" lon="7.546947417618113"><ele>541.0</ele><time>2026-04-08T17:41:54Z</time></trkpt><trkpt lat="44.38894140882081" lon="7.54699121348124"><ele>541.0</ele><time>2026-04-08T17:41:57Z</time></trkpt><trkpt lat="44.388915356831305" lon="7.5470727390705665"><ele>541.0</ele><time>2026-04-08T17:41:59Z</time></trkpt><trkpt lat="44.38887403276833" lon="7.547145598427629"><ele>541.0</ele><time>2026-04-08T17:42:01Z</time></trkpt><trkpt lat="44.38872734343897" lon="7.547003697106656"><ele>541.0</ele><time>2026-04-08T17:42:03Z</time></trkpt><trkpt lat="44.38866379541" lon="7.5469379763382785"><ele>541.0</ele><time>2026-04-08T17:42:04Z</time></trkpt><trkpt lat="44.38856665979898" lon="7.546840304219335"><ele>543.3333333333334</ele><time>2026-04-08T17:42:05Z</time></trkpt><trkpt lat="44.388437880496966" lon="7.546723272001095"><ele>545.6666666666666</ele><time>2026-04-08T17:42:06Z</time></trkpt><trkpt lat="44.38829874083235" lon="7.546588179859094"><ele>548.0</ele><time>2026-04-08T17:42:07Z</time></trkpt><trkpt lat="44.38817915690586" lon="7.5464536743104595"><ele>548.0</ele><time>2026-04-08T17:42:08Z</time></trkpt><trkpt lat="44.38809188567134" lon="7.54635517514384"><ele>548.0</ele><time>2026-04-08T17:42:09Z</time></trkpt><trkpt lat="44.38800836178978" lon="7.546266249283933"><ele>548.0</ele><time>2026-04-08T17:42:10Z</time></trkpt><trkpt lat="44.387928275600025" lon="7.546187640518479"><ele>548.0</ele><time>2026-04-08T17:42:11Z</time></trkpt><trkpt lat="44.38784809746863" lon="7.54610460005304"><ele>548.0</ele><time>2026-04-08T17:42:12Z</time></trkpt><trkpt lat="44.387761514808375" lon="7.546013488726711"><ele>548.1999999999999</ele><time>2026-04-08T17:42:13Z</time></trkpt><trkpt lat="44.38768266251148" lon="7.545932010194228"><ele>548.4</ele><time>2026-04-08T17:42:14Z</time></trkpt><trkpt lat="44.38760359110725" lon="7.545853986075167"><ele>548.5999999999999</ele><time>2026-04-08T17:42:15Z</time></trkpt><trkpt lat="44.38752883784149" lon="7.54577796124679"><ele>548.8</ele><time>2026-04-08T17:42:16Z</time></trkpt><trkpt lat="44.387451929091775" lon="7.545699244216814"><ele>549.0</ele><time>2026-04-08T17:42:17Z</time></trkpt><trkpt lat="44.38737937810586" lon="7.545620053354423"><ele>549.0</ele><time>2026-04-08T17:42:18Z</time></trkpt><trkpt lat="44.38730152638126" lon="7.545548033969681"><ele>549.0</ele><time>2026-04-08T17:42:19Z</time></trkpt><trkpt lat="44.38722681530367" lon="7.5454695672846315"><ele>549.0</ele><time>2026-04-08T17:42:20Z</time></trkpt><trkpt lat="44.387148192599405" lon="7.5453927840559105"><ele>549.0</ele><time>2026-04-08T17:42:21Z</time></trkpt><trkpt lat="44.387080431221044" lon="7.54532170252633"><ele>549.0</ele><time>2026-04-08T17:42:22Z</time></trkpt><trkpt lat="44.387013628068644" lon="7.545250866850222"><ele>548.8</ele><time>2026-04-08T17:42:23Z</time></trkpt><trkpt lat="44.38694626995903" lon="7.545179846370144"><ele>548.5999999999999</ele><time>2026-04-08T17:42:24Z</time></trkpt><trkpt lat="44.386870367360785" lon="7.545102441473908"><ele>548.4</ele><time>2026-04-08T17:42:25Z</time></trkpt><trkpt lat="44.386790755344244" lon="7.545017930963741"><ele>548.1999999999999</ele><time>2026-04-08T17:42:26Z</time></trkpt><trkpt lat="44.386711270514276" lon="7.544931898804738"><ele>548.0</ele><time>2026-04-08T17:42:27Z</time></trkpt><trkpt lat="44.38662645809527" lon="7.5448410638835215"><ele>548.0</ele><time>2026-04-08T17:42:28Z</time></trkpt><trkpt lat="44.38653087050036" lon="7.5447552593316765"><ele>548.0</ele><time>2026-04-08T17:42:29Z</time></trkpt><trkpt lat="44.386439785910966" lon="7.544661106678109"><ele>548.0</ele><time>2026-04-08T17:42:30Z</time></trkpt><trkpt lat="44.38636793887981" lon="7.544589518736532"><ele>548.0</ele><time>2026-04-08T17:42:31Z</time></trkpt><trkpt lat="44.386314855524205" lon="7.544532549487479"><ele>548.0</ele><time>2026-04-08T17:42:32Z</time></trkpt><trkpt lat="44.3862671282934" lon="7.544469904938332"><ele>548.0</ele><time>2026-04-08T17:42:38Z</time></trkpt><trkpt lat="44.38620551245793" lon="7.544411832607963"><ele>548.6</ele><time>2026-04-08T17:42:39Z</time></trkpt><trkpt lat="44.38612023265672" lon="7.544316142717488"><ele>549.1999999999999</ele><time>2026-04-08T17:42:40Z</time></trkpt><trkpt lat="44.38604810772571" lon="7.544244998690575"><ele>549.8</ele><time>2026-04-08T17:42:41Z</time></trkpt><trkpt lat="44.38595750780683" lon="7.544148310337652"><ele>550.4</ele><time>2026-04-08T17:42:43Z</time></trkpt><trkpt lat="44.38585435981679" lon="7.544045391811974"><ele>551.0</ele><time>2026-04-08T17:42:45Z</time></trkpt><trkpt lat="44.38576697414896" lon="7.543964444108399"><ele>551.0</ele><time>2026-04-08T17:42:46Z</time></trkpt><trkpt lat="44.38566922099332" lon="7.5438639323746495"><ele>551.0</ele><time>2026-04-08T17:42:47Z</time></trkpt><trkpt lat="44.38558958203075" lon="7.54378178139629"><ele>551.0</ele><time>2026-04-08T17:42:48Z</time></trkpt><trkpt lat="44.38552816983737" lon="7.543720722540645"><ele>551.0</ele><time>2026-04-08T17:42:49Z</time></trkpt><trkpt lat="44.385476454265046" lon="7.543663890957769"><ele>551.0</ele><time>2026-04-08T17:42:50Z</time></trkpt><trkpt lat="44.38538875286424" lon="7.543567464910769"><ele>551.25</ele><time>2026-04-08T17:42:52Z</time></trkpt><trkpt lat="44.38528547544101" lon="7.543454177931278"><ele>551.5</ele><time>2026-04-08T17:42:54Z</time></trkpt><trkpt lat="44.385214231464424" lon="7.543372869909397"><ele>551.75</ele><time>2026-04-08T17:42:55Z</time></trkpt><trkpt lat="44.38511769684868" lon="7.5432612998183695"><ele>552.0</ele><time>2026-04-08T17:42:56Z</time></trkpt><trkpt lat="44.38503488177683" lon="7.543176223955292"><ele>552.0</ele><time>2026-04-08T17:42:57Z</time></trkpt><trkpt lat="44.384976651143546" lon="7.543111952903408"><ele>552.0</ele><time>2026-04-08T17:42:58Z</time></trkpt><trkpt lat="44.38488139138374" lon="7.543008585305074"><ele>552.0</ele><time>2026-04-08T17:43:00Z</time></trkpt><trkpt lat="44.38481118618328" lon="7.542977921854424"><ele>552.0</ele><time>2026-04-08T17:43:02Z</time></trkpt><trkpt lat="44.38475499755896" lon="7.5429355602604184"><ele>552.0</ele><time>2026-04-08T17:43:03Z</time></trkpt><trkpt lat="44.38468766058541" lon="7.5428572621521335"><ele>552.0</ele><time>2026-04-08T17:43:04Z</time></trkpt><trkpt lat="44.38464135716783" lon="7.54278524848856"><ele>552.4</ele><time>2026-04-08T17:43:06Z</time></trkpt><trkpt lat="44.384544157677354" lon="7.54269031054273"><ele>552.8000000000001</ele><time>2026-04-08T17:43:24Z</time></trkpt><trkpt lat="44.384471007768745" lon="7.542619121651798"><ele>553.2</ele><time>2026-04-08T17:43:25Z</time></trkpt><trkpt lat="44.384389472309344" lon="7.542550593921211"><ele>553.6</ele><time>2026-04-08T17:43:26Z</time></trkpt><trkpt lat="44.38430919267729" lon="7.5424836145274625"><ele>554.0</ele><time>2026-04-08T17:43:27Z</time></trkpt><trkpt lat="44.38421484600337" lon="7.542392695208234"><ele>554.0</ele><time>2026-04-08T17:43:28Z</time></trkpt><trkpt lat="44.384112693701795" lon="7.542284291391989"><ele>554.0</ele><time>2026-04-08T17:43:29Z</time></trkpt><trkpt lat="44.3840082448443" lon="7.542179383075364"><ele>554.0</ele><time>2026-04-08T17:43:30Z</time></trkpt><trkpt lat="44.38389738867578" lon="7.542075498495969"><ele>554.0</ele><time>2026-04-08T17:43:31Z</time></trkpt><trkpt lat="44.38379783755217" lon="7.5419712234025384"><ele>554.25</ele><time>2026-04-08T17:43:32Z</time></trkpt><trkpt lat="44.383698126906076" lon="7.541861208523462"><ele>554.5</ele><time>2026-04-08T17:43:33Z</time></trkpt><trkpt lat="44.383599687797584" lon="7.541765441880255"><ele>554.75</ele><time>2026-04-08T17:43:34Z</time></trkpt><trkpt lat="44.38350535966697" lon="7.541668262764041"><ele>555.0</ele><time>2026-04-08T17:43:35Z</time></trkpt><trkpt lat="44.38340755565158" lon="7.541564875137637"><ele>555.0</ele><time>2026-04-08T17:43:36Z</time></trkpt><trkpt lat="44.383304183659355" lon="7.5414563060408835"><ele>555.0</ele><time>2026-04-08T17:43:37Z</time></trkpt><trkpt lat="44.38320064581611" lon="7.541348841264661"><ele>555.0</ele><time>2026-04-08T17:43:38Z</time></trkpt><trkpt lat="44.38310071431432" lon="7.541246977016985"><ele>555.0</ele><time>2026-04-08T17:43:39Z</time></trkpt><trkpt lat="44.38299691165391" lon="7.54114213372932"><ele>555.5</ele><time>2026-04-08T17:43:40Z</time></trkpt><trkpt lat="44.38288997341834" lon="7.541036689804197"><ele>556.0</ele><time>2026-04-08T17:43:41Z</time></trkpt><trkpt lat="44.382780829491736" lon="7.540923496979305"><ele>556.5</ele><time>2026-04-08T17:43:42Z</time></trkpt><trkpt lat="44.38266246790398" lon="7.540798270414256"><ele>557.0</ele><time>2026-04-08T17:43:43Z</time></trkpt><trkpt lat="44.3825399917335" lon="7.540674975407656"><ele>557.0</ele><time>2026-04-08T17:43:44Z</time></trkpt><trkpt lat="44.382413833617804" lon="7.5405545828294835"><ele>557.0</ele><time>2026-04-08T17:43:45Z</time></trkpt><trkpt lat="44.382289204525215" lon="7.540429883679603"><ele>557.0</ele><time>2026-04-08T17:43:46Z</time></trkpt><trkpt lat="44.38216647484395" lon="7.5403005162030405"><ele>557.5</ele><time>2026-04-08T17:43:47Z</time></trkpt><trkpt lat="44.38204351584356" lon="7.5401629969545985"><ele>558.0</ele><time>2026-04-08T17:43:48Z</time></trkpt><trkpt lat="44.38193026931521" lon="7.540048909247726"><ele>558.5</ele><time>2026-04-08T17:43:49Z</time></trkpt><trkpt lat="44.381837579244035" lon="7.539947405085872"><ele>559.0</ele><time>2026-04-08T17:43:50Z</time></trkpt><trkpt lat="44.38175761438957" lon="7.5398511421550145"><ele>559.0</ele><time>2026-04-08T17:43:51Z</time></trkpt><trkpt lat="44.38168969595283" lon="7.539780993310738"><ele>559.0</ele><time>2026-04-08T17:43:52Z</time></trkpt><trkpt lat="44.3816274925208" lon="7.539713547239609"><ele>559.0</ele><time>2026-04-08T17:43:53Z</time></trkpt><trkpt lat="44.38156589903092" lon="7.539653151296527"><ele>559.0</ele><time>2026-04-08T17:43:54Z</time></trkpt><trkpt lat="44.38151650565152" lon="7.539597906379361"><ele>559.0</ele><time>2026-04-08T17:43:55Z</time></trkpt><trkpt lat="44.381434591935204" lon="7.539528347333345"><ele>559.0</ele><time>2026-04-08T17:44:46Z</time></trkpt><trkpt lat="44.381351815593945" lon="7.539470309539881"><ele>559.25</ele><time>2026-04-08T17:44:47Z</time></trkpt><trkpt lat="44.381269933197245" lon="7.5393769395415156"><ele>559.5</ele><time>2026-04-08T17:44:48Z</time></trkpt><trkpt lat="44.38118545547958" lon="7.539282700602604"><ele>559.75</ele><time>2026-04-08T17:44:49Z</time></trkpt><trkpt lat="44.381082997077236" lon="7.5391773001445115"><ele>560.0</ele><time>2026-04-08T17:44:50Z</time></trkpt><trkpt lat="44.38096990440985" lon="7.539071797660851"><ele>560.0</ele><time>2026-04-08T17:44:51Z</time></trkpt><trkpt lat="44.38085827731541" lon="7.538966188490618"><ele>560.0</ele><time>2026-04-08T17:44:52Z</time></trkpt><trkpt lat="44.380742510383826" lon="7.538846051508555"><ele>560.0</ele><time>2026-04-08T17:44:53Z</time></trkpt><trkpt lat="44.38063822136522" lon="7.538711410901096"><ele>560.0</ele><time>2026-04-08T17:44:54Z</time></trkpt><trkpt lat="44.380527254590376" lon="7.5385970712558406"><ele>560.6</ele><time>2026-04-08T17:44:55Z</time></trkpt><trkpt lat="44.380422436903906" lon="7.538513867455117"><ele>561.2</ele><time>2026-04-08T17:44:56Z</time></trkpt><trkpt lat="44.38034986306581" lon="7.538427483317819"><ele>561.8</ele><time>2026-04-08T17:44:57Z</time></trkpt><trkpt lat="44.38029556234149" lon="7.538363466154867"><ele>562.4</ele><time>2026-04-08T17:44:58Z</time></trkpt><trkpt lat="44.380238012227245" lon="7.538305674914568"><ele>563.0</ele><time>2026-04-08T17:44:59Z</time></trkpt><trkpt lat="44.38008127764891" lon="7.538147624990044"><ele>563.0</ele><time>2026-04-08T17:45:04Z</time></trkpt><trkpt lat="44.37995936610093" lon="7.538035816150472"><ele>563.0</ele><time>2026-04-08T17:45:06Z</time></trkpt><trkpt lat="44.37984306705214" lon="7.537906408216874"><ele>563.0</ele><time>2026-04-08T17:45:07Z</time></trkpt><trkpt lat="44.37973996558365" lon="7.5377964764210255"><ele>563.0</ele><time>2026-04-08T17:45:08Z</time></trkpt><trkpt lat="44.37966806094803" lon="7.5377232924098205"><ele>562.8</ele><time>2026-04-08T17:45:09Z</time></trkpt><trkpt lat="44.37960435782798" lon="7.537655444168553"><ele>562.5999999999999</ele><time>2026-04-08T17:45:10Z</time></trkpt><trkpt lat="44.37953011400216" lon="7.537569940887551"><ele>562.4000000000001</ele><time>2026-04-08T17:45:11Z</time></trkpt><trkpt lat="44.37942694594629" lon="7.537473419633755"><ele>562.2</ele><time>2026-04-08T17:45:12Z</time></trkpt><trkpt lat="44.37930713396824" lon="7.537352072785677"><ele>562.0</ele><time>2026-04-08T17:45:13Z</time></trkpt><trkpt lat="44.37918877814805" lon="7.537216561039587"><ele>562.0</ele><time>2026-04-08T17:45:14Z</time></trkpt><trkpt lat="44.37908236372542" lon="7.53709374346608"><ele>562.0</ele><time>2026-04-08T17:45:15Z</time></trkpt><trkpt lat="44.37896694031074" lon="7.53696753898918"><ele>562.0</ele><time>2026-04-08T17:45:16Z</time></trkpt><trkpt lat="44.3788425556112" lon="7.536846808173308"><ele>562.0</ele><time>2026-04-08T17:45:17Z</time></trkpt><trkpt lat="44.37871861180241" lon="7.536723361259961"><ele>562.0</ele><time>2026-04-08T17:45:18Z</time></trkpt><trkpt lat="44.37860000461389" lon="7.536609082653156"><ele>562.0</ele><time>2026-04-08T17:45:19Z</time></trkpt><trkpt lat="44.37850201488326" lon="7.536496038800151"><ele>562.0</ele><time>2026-04-08T17:45:20Z</time></trkpt><trkpt lat="44.378414574259644" lon="7.536400951816876"><ele>562.0</ele><time>2026-04-08T17:45:21Z</time></trkpt><trkpt lat="44.37833379830555" lon="7.536321647313554"><ele>562.0</ele><time>2026-04-08T17:45:22Z</time></trkpt><trkpt lat="44.378254462982255" lon="7.536239149905342"><ele>562.0</ele><time>2026-04-08T17:45:23Z</time></trkpt><trkpt lat="44.37818792850891" lon="7.536172836869226"><ele>562.0</ele><time>2026-04-08T17:45:24Z</time></trkpt><trkpt lat="44.37812737103712" lon="7.536089202622274"><ele>562.0</ele><time>2026-04-08T17:45:25Z</time></trkpt><trkpt lat="44.378081710015444" lon="7.535987082225201"><ele>562.0</ele><time>2026-04-08T17:45:26Z</time></trkpt><trkpt lat="44.37803272752247" lon="7.535915121996827"><ele>562.0</ele><time>2026-04-08T17:45:27Z</time></trkpt><trkpt lat="44.37797919370616" lon="7.535811631296878"><ele>561.75</ele><time>2026-04-08T17:45:28Z</time></trkpt><trkpt lat="44.377865553682106" lon="7.535806092054057"><ele>561.5</ele><time>2026-04-08T17:45:29Z</time></trkpt><trkpt lat="44.377775164121374" lon="7.535752570275032"><ele>561.25</ele><time>2026-04-08T17:45:30Z</time></trkpt><trkpt lat="44.377661222447095" lon="7.535648342253638"><ele>561.0</ele><time>2026-04-08T17:45:31Z</time></trkpt><trkpt lat="44.37752321397584" lon="7.535496745804358"><ele>561.0</ele><time>2026-04-08T17:45:32Z</time></trkpt><trkpt lat="44.3774007242824" lon="7.535365420808051"><ele>561.0</ele><time>2026-04-08T17:45:33Z</time></trkpt><trkpt lat="44.37731806923034" lon="7.535276280995865"><ele>561.0</ele><time>2026-04-08T17:45:34Z</time></trkpt><trkpt lat="44.37725295177112" lon="7.535202513755555"><ele>561.0</ele><time>2026-04-08T17:45:35Z</time></trkpt><trkpt lat="44.37720216770667" lon="7.5351079825182925"><ele>561.0</ele><time>2026-04-08T17:45:37Z</time></trkpt><trkpt lat="44.37716658498568" lon="7.534984285742821"><ele>561.6</ele><time>2026-04-08T17:45:39Z</time></trkpt><trkpt lat="44.37708364906935" lon="7.534871706583241"><ele>562.2</ele><time>2026-04-08T17:45:41Z</time></trkpt><trkpt lat="44.377023103442504" lon="7.534840274109513"><ele>562.8</ele><time>2026-04-08T17:45:42Z</time></trkpt><trkpt lat="44.376933767434764" lon="7.534806466172068"><ele>563.4</ele><time>2026-04-08T17:45:43Z</time></trkpt><trkpt lat="44.37681086156892" lon="7.534740280232025"><ele>564.0</ele><time>2026-04-08T17:45:44Z</time></trkpt><trkpt lat="44.37669045616044" lon="7.534627989461508"><ele>564.0</ele><time>2026-04-08T17:45:45Z</time></trkpt><trkpt lat="44.37655239059879" lon="7.534478796624857"><ele>564.0</ele><time>2026-04-08T17:45:46Z</time></trkpt><trkpt lat="44.37641856829826" lon="7.534335777190782"><ele>564.0</ele><time>2026-04-08T17:45:47Z</time></trkpt><trkpt lat="44.37627997294767" lon="7.534186208884972"><ele>563.3333333333334</ele><time>2026-04-08T17:45:48Z</time></trkpt><trkpt lat="44.37613516205587" lon="7.534035175239202"><ele>562.6666666666667</ele><time>2026-04-08T17:45:49Z</time></trkpt><trkpt lat="44.37598226261075" lon="7.533879725711475"><ele>562.0</ele><time>2026-04-08T17:45:50Z</time></trkpt><trkpt lat="44.375816125117964" lon="7.533722169276585"><ele>563.0</ele><time>2026-04-08T17:45:51Z</time></trkpt><trkpt lat="44.37566337898676" lon="7.533573071868523"><ele>564.0</ele><time>2026-04-08T17:45:52Z</time></trkpt><trkpt lat="44.37552280278617" lon="7.533430685278051"><ele>565.0</ele><time>2026-04-08T17:45:53Z</time></trkpt><trkpt lat="44.37538182370109" lon="7.5332855386378"><ele>565.0</ele><time>2026-04-08T17:45:54Z</time></trkpt><trkpt lat="44.37523127548993" lon="7.533126977221094"><ele>565.0</ele><time>2026-04-08T17:45:55Z</time></trkpt><trkpt lat="44.37507127774509" lon="7.532966245701871"><ele>565.0</ele><time>2026-04-08T17:45:56Z</time></trkpt><trkpt lat="44.37492445317438" lon="7.532816989714246"><ele>564.75</ele><time>2026-04-08T17:45:57Z</time></trkpt><trkpt lat="44.37481446239532" lon="7.532702901692295"><ele>564.5</ele><time>2026-04-08T17:45:58Z</time></trkpt><trkpt lat="44.3747101815591" lon="7.5325927482399635"><ele>564.25</ele><time>2026-04-08T17:45:59Z</time></trkpt><trkpt lat="44.37461317661044" lon="7.53249617753262"><ele>564.0</ele><time>2026-04-08T17:46:00Z</time></trkpt><trkpt lat="44.374535961779465" lon="7.532410997994587"><ele>564.3333333333334</ele><time>2026-04-08T17:46:01Z</time></trkpt><trkpt lat="44.374477633862114" lon="7.532320847612883"><ele>564.6666666666666</ele><time>2026-04-08T17:46:02Z</time></trkpt><trkpt lat="44.37443216688063" lon="7.532214596524491"><ele>565.0</ele><time>2026-04-08T17:46:03Z</time></trkpt><trkpt lat="44.37438359185427" lon="7.532123000606845"><ele>565.3333333333333</ele><time>2026-04-08T17:46:04Z</time></trkpt><trkpt lat="44.37431933779515" lon="7.532073390894475"><ele>565.6666666666666</ele><time>2026-04-08T17:46:05Z</time></trkpt><trkpt lat="44.37424673287306" lon="7.53205609369088"><ele>566.0</ele><time>2026-04-08T17:46:06Z</time></trkpt><trkpt lat="44.37414964516477" lon="7.532014536435746"><ele>566.0</ele><time>2026-04-08T17:46:07Z</time></trkpt><trkpt lat="44.374038021298524" lon="7.531912060306301"><ele>566.0</ele><time>2026-04-08T17:46:08Z</time></trkpt><trkpt lat="44.373912796624474" lon="7.531772654452536"><ele>566.0</ele><time>2026-04-08T17:46:09Z</time></trkpt><trkpt lat="44.3737996043465" lon="7.531671942215159"><ele>566.0</ele><time>2026-04-08T17:46:10Z</time></trkpt><trkpt lat="44.3736820276638" lon="7.53156666494407"><ele>566.25</ele><time>2026-04-08T17:46:11Z</time></trkpt><trkpt lat="44.37356870979615" lon="7.531458016924905"><ele>566.5</ele><time>2026-04-08T17:46:12Z</time></trkpt><trkpt lat="44.373468379978576" lon="7.531351641180442"><ele>566.75</ele><time>2026-04-08T17:46:13Z</time></trkpt><trkpt lat="44.37337604630174" lon="7.531256071698033"><ele>567.0</ele><time>2026-04-08T17:46:14Z</time></trkpt><trkpt lat="44.37329216969991" lon="7.531175109449876"><ele>567.0</ele><time>2026-04-08T17:46:15Z</time></trkpt><trkpt lat="44.373210745074026" lon="7.53109322034407"><ele>567.0</ele><time>2026-04-08T17:46:16Z</time></trkpt><trkpt lat="44.37313704097715" lon="7.531013622357194"><ele>567.0</ele><time>2026-04-08T17:46:17Z</time></trkpt><trkpt lat="44.373069078718466" lon="7.530941731732783"><ele>567.0</ele><time>2026-04-08T17:46:18Z</time></trkpt><trkpt lat="44.37300480069152" lon="7.530877832942285"><ele>567.0</ele><time>2026-04-08T17:46:19Z</time></trkpt><trkpt lat="44.372932283063044" lon="7.530804542239445"><ele>567.0</ele><time>2026-04-08T17:46:20Z</time></trkpt><trkpt lat="44.3728302589602" lon="7.5306967263310405"><ele>567.5</ele><time>2026-04-08T17:46:21Z</time></trkpt><trkpt lat="44.37271666793378" lon="7.530580604169417"><ele>568.0</ele><time>2026-04-08T17:46:22Z</time></trkpt><trkpt lat="44.37261193151045" lon="7.530472437210064"><ele>568.5</ele><time>2026-04-08T17:46:23Z</time></trkpt><trkpt lat="44.372498842406095" lon="7.5303545573402655"><ele>569.0</ele><time>2026-04-08T17:46:24Z</time></trkpt><trkpt lat="44.3723683566254" lon="7.530221073830383"><ele>569.2</ele><time>2026-04-08T17:46:25Z</time></trkpt><trkpt lat="44.37224552358071" lon="7.530091020417419"><ele>569.4</ele><time>2026-04-08T17:46:26Z</time></trkpt><trkpt lat="44.37215101477392" lon="7.529990797465719"><ele>569.6</ele><time>2026-04-08T17:46:27Z</time></trkpt><trkpt lat="44.37207919225413" lon="7.529909043756175"><ele>569.8</ele><time>2026-04-08T17:46:28Z</time></trkpt><trkpt lat="44.37202572388478" lon="7.529844578075857"><ele>570.0</ele><time>2026-04-08T17:46:29Z</time></trkpt><trkpt lat="44.371959251427285" lon="7.529750854522312"><ele>570.2</ele><time>2026-04-08T17:46:31Z</time></trkpt><trkpt lat="44.37193185074798" lon="7.52966887889798"><ele>570.4</ele><time>2026-04-08T17:46:32Z</time></trkpt><trkpt lat="44.37185730580943" lon="7.529539072014886"><ele>570.6</ele><time>2026-04-08T17:46:34Z</time></trkpt><trkpt lat="44.37178101054252" lon="7.529495563097248"><ele>570.8</ele><time>2026-04-08T17:46:35Z</time></trkpt><trkpt lat="44.37167770456454" lon="7.529455319122343"><ele>571.0</ele><time>2026-04-08T17:46:36Z</time></trkpt><trkpt lat="44.371554202491446" lon="7.52937974651135"><ele>571.3333333333334</ele><time>2026-04-08T17:46:37Z</time></trkpt><trkpt lat="44.371421407070734" lon="7.529238716160606"><ele>571.6666666666666</ele><time>2026-04-08T17:46:38Z</time></trkpt><trkpt lat="44.371265450956294" lon="7.52908569149598"><ele>572.0</ele><time>2026-04-08T17:46:39Z</time></trkpt><trkpt lat="44.37107825585415" lon="7.528928852512814"><ele>573.0</ele><time>2026-04-08T17:46:40Z</time></trkpt><trkpt lat="44.37089947848552" lon="7.528740763621448"><ele>574.0</ele><time>2026-04-08T17:46:41Z</time></trkpt><trkpt lat="44.37071775922235" lon="7.528552746697232"><ele>574.3333333333334</ele><time>2026-04-08T17:46:42Z</time></trkpt><trkpt lat="44.370536855518644" lon="7.528372184497859"><ele>574.6666666666666</ele><time>2026-04-08T17:46:43Z</time></trkpt><trkpt lat="44.370359703681565" lon="7.528191459283158"><ele>575.0</ele><time>2026-04-08T17:46:44Z</time></trkpt><trkpt lat="44.370182168272294" lon="7.528009213108876"><ele>575.0</ele><time>2026-04-08T17:46:45Z</time></trkpt><trkpt lat="44.3700205859522" lon="7.527814784855292"><ele>575.0</ele><time>2026-04-08T17:46:46Z</time></trkpt><trkpt lat="44.36983163604428" lon="7.527654737697283"><ele>575.0</ele><time>2026-04-08T17:46:47Z</time></trkpt><trkpt lat="44.369644449768685" lon="7.527469930160143"><ele>575.0</ele><time>2026-04-08T17:46:48Z</time></trkpt><trkpt lat="44.369475257942376" lon="7.527294027789521"><ele>575.0</ele><time>2026-04-08T17:46:49Z</time></trkpt><trkpt lat="44.36933046511083" lon="7.527133173768331"><ele>575.0</ele><time>2026-04-08T17:46:50Z</time></trkpt><trkpt lat="44.369196887551446" lon="7.526992907886191"><ele>575.3333333333333</ele><time>2026-04-08T17:46:51Z</time></trkpt><trkpt lat="44.3690652707136" lon="7.526852326352065"><ele>575.6666666666666</ele><time>2026-04-08T17:46:52Z</time></trkpt><trkpt lat="44.36892851088321" lon="7.526712509254038"><ele>576.0</ele><time>2026-04-08T17:46:53Z</time></trkpt><trkpt lat="44.36880015004605" lon="7.526581646869458"><ele>576.0</ele><time>2026-04-08T17:46:54Z</time></trkpt><trkpt lat="44.36868371977606" lon="7.52646270796608"><ele>576.0</ele><time>2026-04-08T17:46:55Z</time></trkpt><trkpt lat="44.368581123215826" lon="7.52635554635681"><ele>576.0</ele><time>2026-04-08T17:46:56Z</time></trkpt><trkpt lat="44.36849141628478" lon="7.526256734689862"><ele>576.0</ele><time>2026-04-08T17:46:57Z</time></trkpt><trkpt lat="44.36841091952833" lon="7.5261595798316305"><ele>576.3333333333334</ele><time>2026-04-08T17:46:58Z</time></trkpt><trkpt lat="44.368354226988444" lon="7.526031740778618"><ele>576.6666666666666</ele><time>2026-04-08T17:46:59Z</time></trkpt><trkpt lat="44.368301972090634" lon="7.5259211555264125"><ele>577.0</ele><time>2026-04-08T17:47:00Z</time></trkpt><trkpt lat="44.36824587588886" lon="7.525863517668691"><ele>577.3333333333333</ele><time>2026-04-08T17:47:01Z</time></trkpt><trkpt lat="44.36823065133533" lon="7.5257325581406365"><ele>577.6666666666666</ele><time>2026-04-08T17:47:02Z</time></trkpt><trkpt lat="44.368161196342356" lon="7.525692167709396"><ele>578.0</ele><time>2026-04-08T17:47:03Z</time></trkpt><trkpt lat="44.36807324067128" lon="7.525673675009872"><ele>577.75</ele><time>2026-04-08T17:47:04Z</time></trkpt><trkpt lat="44.36797206531147" lon="7.525663526435824"><ele>577.5</ele><time>2026-04-08T17:47:05Z</time></trkpt><trkpt lat="44.36787042371859" lon="7.525615710197816"><ele>577.25</ele><time>2026-04-08T17:47:06Z</time></trkpt><trkpt lat="44.36776769931749" lon="7.525529215538614"><ele>577.0</ele><time>2026-04-08T17:47:07Z</time></trkpt><trkpt lat="44.367651236048644" lon="7.525408717633608"><ele>577.5</ele><time>2026-04-08T17:47:08Z</time></trkpt><trkpt lat="44.36753159508867" lon="7.525286942216988"><ele>578.0</ele><time>2026-04-08T17:47:09Z</time></trkpt><trkpt lat="44.36743114963292" lon="7.525180735760825"><ele>578.5</ele><time>2026-04-08T17:47:10Z</time></trkpt><trkpt lat="44.367344952551214" lon="7.525087075523418"><ele>579.0</ele><time>2026-04-08T17:47:11Z</time></trkpt><trkpt lat="44.36725846722909" lon="7.524994574401402"><ele>579.0</ele><time>2026-04-08T17:47:12Z</time></trkpt><trkpt lat="44.367167780600155" lon="7.52490061843281"><ele>579.0</ele><time>2026-04-08T17:47:13Z</time></trkpt><trkpt lat="44.367054291872215" lon="7.524791126972456"><ele>579.0</ele><time>2026-04-08T17:47:14Z</time></trkpt><trkpt lat="44.36691476120513" lon="7.524656214156012"><ele>579.0</ele><time>2026-04-08T17:47:15Z</time></trkpt><trkpt lat="44.366775324400145" lon="7.524509004157122"><ele>579.3333333333334</ele><time>2026-04-08T17:47:16Z</time></trkpt><trkpt lat="44.36662663149151" lon="7.524351988352258"><ele>579.6666666666667</ele><time>2026-04-08T17:47:17Z</time></trkpt><trkpt lat="44.36648782048587" lon="7.524209114193715"><ele>580.0</ele><time>2026-04-08T17:47:18Z</time></trkpt><trkpt lat="44.36637415176232" lon="7.524088215767772"><ele>580.4</ele><time>2026-04-08T17:47:19Z</time></trkpt><trkpt lat="44.366274293430926" lon="7.523985324404966"><ele>580.8</ele><time>2026-04-08T17:47:20Z</time></trkpt><trkpt lat="44.36618369766409" lon="7.5238961608592945"><ele>581.2</ele><time>2026-04-08T17:47:21Z</time></trkpt><trkpt lat="44.3660946694927" lon="7.523800594795359"><ele>581.6</ele><time>2026-04-08T17:47:22Z</time></trkpt><trkpt lat="44.36601300391791" lon="7.523717746028727"><ele>582.0</ele><time>2026-04-08T17:47:23Z</time></trkpt><trkpt lat="44.365945852852576" lon="7.5236526217673045"><ele>582.0</ele><time>2026-04-08T17:47:24Z</time></trkpt><trkpt lat="44.36589421926053" lon="7.5236016612476"><ele>582.0</ele><time>2026-04-08T17:47:25Z</time></trkpt><trkpt lat="44.365822050309035" lon="7.523526397158566"><ele>582.0</ele><time>2026-04-08T17:47:27Z</time></trkpt><trkpt lat="44.3657590923496" lon="7.523457279230579"><ele>582.0</ele><time>2026-04-08T17:47:29Z</time></trkpt><trkpt lat="44.36570495834532" lon="7.523400964160648"><ele>582.0</ele><time>2026-04-08T17:47:31Z</time></trkpt><trkpt lat="44.36565159772387" lon="7.523338535384504"><ele>582.0</ele><time>2026-04-08T17:47:33Z</time></trkpt><trkpt lat="44.365586593180495" lon="7.523268986613046"><ele>582.0</ele><time>2026-04-08T17:47:36Z</time></trkpt><trkpt lat="44.365483594567536" lon="7.523173022557539"><ele>582.0</ele><time>2026-04-08T17:48:28Z</time></trkpt><trkpt lat="44.365410456995704" lon="7.523091530719008"><ele>582.0</ele><time>2026-04-08T17:48:29Z</time></trkpt><trkpt lat="44.36530115906315" lon="7.5229756265990835"><ele>582.0</ele><time>2026-04-08T17:48:30Z</time></trkpt><trkpt lat="44.365169244904145" lon="7.522833912527673"><ele>582.6666666666666</ele><time>2026-04-08T17:48:31Z</time></trkpt><trkpt lat="44.36501258450573" lon="7.522672031629455"><ele>583.3333333333333</ele><time>2026-04-08T17:48:32Z</time></trkpt><trkpt lat="44.364841280147395" lon="7.522507813258555"><ele>584.0</ele><time>2026-04-08T17:48:33Z</time></trkpt><trkpt lat="44.364638468296235" lon="7.522305824872138"><ele>584.0</ele><time>2026-04-08T17:48:34Z</time></trkpt><trkpt lat="44.36444800709223" lon="7.522102330820896"><ele>584.0</ele><time>2026-04-08T17:48:35Z</time></trkpt><trkpt lat="44.36425531861112" lon="7.521916631260768"><ele>584.5</ele><time>2026-04-08T17:48:36Z</time></trkpt><trkpt lat="44.3640663406524" lon="7.521722511089931"><ele>585.0</ele><time>2026-04-08T17:48:37Z</time></trkpt><trkpt lat="44.36388435865216" lon="7.521536311955916"><ele>585.0</ele><time>2026-04-08T17:48:38Z</time></trkpt><trkpt lat="44.3636757097807" lon="7.52132796978916"><ele>585.0</ele><time>2026-04-08T17:48:39Z</time></trkpt><trkpt lat="44.3634507236884" lon="7.521103363552092"><ele>586.5</ele><time>2026-04-08T17:48:40Z</time></trkpt><trkpt lat="44.36322373703784" lon="7.520864494920171"><ele>588.0</ele><time>2026-04-08T17:48:41Z</time></trkpt><trkpt lat="44.362992585135835" lon="7.520622524022522"><ele>587.5</ele><time>2026-04-08T17:48:42Z</time></trkpt><trkpt lat="44.36275967974313" lon="7.520381966867177"><ele>587.0</ele><time>2026-04-08T17:48:43Z</time></trkpt><trkpt lat="44.362526789689475" lon="7.52014563845998"><ele>587.0</ele><time>2026-04-08T17:48:44Z</time></trkpt><trkpt lat="44.36229417514831" lon="7.519909042410233"><ele>587.0</ele><time>2026-04-08T17:48:45Z</time></trkpt><trkpt lat="44.362065224517956" lon="7.519672924300753"><ele>587.0</ele><time>2026-04-08T17:48:46Z</time></trkpt><trkpt lat="44.36185197771533" lon="7.519456419898822"><ele>587.0</ele><time>2026-04-08T17:48:47Z</time></trkpt><trkpt lat="44.36165121077177" lon="7.519252662706738"><ele>587.0</ele><time>2026-04-08T17:48:48Z</time></trkpt><trkpt lat="44.36147069365855" lon="7.519068753303821"><ele>587.0</ele><time>2026-04-08T17:48:49Z</time></trkpt><trkpt lat="44.361126074072985" lon="7.518694933105021"><ele>589.5</ele><time>2026-04-08T17:48:50Z</time></trkpt><trkpt lat="44.360908552651814" lon="7.518472818590009"><ele>592.0</ele><time>2026-04-08T17:48:51Z</time></trkpt><trkpt lat="44.360675422510035" lon="7.518240123259574"><ele>593.0</ele><time>2026-04-08T17:48:52Z</time></trkpt><trkpt lat="44.360433139165536" lon="7.51800491724397"><ele>594.0</ele><time>2026-04-08T17:48:53Z</time></trkpt><trkpt lat="44.36021437471488" lon="7.5177840819302"><ele>594.0</ele><time>2026-04-08T17:48:54Z</time></trkpt><trkpt lat="44.360018855340755" lon="7.517554584085589"><ele>594.0</ele><time>2026-04-08T17:48:55Z</time></trkpt><trkpt lat="44.359811088329174" lon="7.5173644750221245"><ele>594.0</ele><time>2026-04-08T17:48:56Z</time></trkpt><trkpt lat="44.359603894328686" lon="7.5171505092961475"><ele>594.0</ele><time>2026-04-08T17:48:57Z</time></trkpt><trkpt lat="44.359383455271505" lon="7.51692135899316"><ele>594.0</ele><time>2026-04-08T17:48:58Z</time></trkpt><trkpt lat="44.359169058269856" lon="7.516700014550362"><ele>594.0</ele><time>2026-04-08T17:48:59Z</time></trkpt><trkpt lat="44.35894954958178" lon="7.516467263036929"><ele>594.5</ele><time>2026-04-08T17:49:00Z</time></trkpt><trkpt lat="44.358735558360806" lon="7.516241963218248"><ele>595.0</ele><time>2026-04-08T17:49:01Z</time></trkpt><trkpt lat="44.35852677897089" lon="7.516022803533625"><ele>595.5</ele><time>2026-04-08T17:49:02Z</time></trkpt><trkpt lat="44.358327017943154" lon="7.515814329296948"><ele>596.0</ele><time>2026-04-08T17:49:03Z</time></trkpt><trkpt lat="44.35811968768565" lon="7.5155945640918"><ele>596.5</ele><time>2026-04-08T17:49:04Z</time></trkpt><trkpt lat="44.35789843964059" lon="7.51536893559477"><ele>597.0</ele><time>2026-04-08T17:49:05Z</time></trkpt><trkpt lat="44.35766763820169" lon="7.515140976977366"><ele>597.0</ele><time>2026-04-08T17:49:06Z</time></trkpt><trkpt lat="44.357424993229344" lon="7.514897184539194"><ele>597.0</ele><time>2026-04-08T17:49:07Z</time></trkpt><trkpt lat="44.357188485493275" lon="7.514645988888888"><ele>597.5</ele><time>2026-04-08T17:49:08Z</time></trkpt><trkpt lat="44.35694273340948" lon="7.514402915703292"><ele>598.0</ele><time>2026-04-08T17:49:09Z</time></trkpt><trkpt lat="44.35669473723642" lon="7.514147850956013"><ele>598.0</ele><time>2026-04-08T17:49:10Z</time></trkpt><trkpt lat="44.356430407993685" lon="7.5138856049264975"><ele>598.0</ele><time>2026-04-08T17:49:11Z</time></trkpt><trkpt lat="44.35619613352447" lon="7.5136463878512485"><ele>599.0</ele><time>2026-04-08T17:49:12Z</time></trkpt><trkpt lat="44.356004326335714" lon="7.513446742142316"><ele>600.0</ele><time>2026-04-08T17:49:13Z</time></trkpt><trkpt lat="44.355822715515835" lon="7.5132580185187425"><ele>600.0</ele><time>2026-04-08T17:49:14Z</time></trkpt><trkpt lat="44.355635966231226" lon="7.513068261664845"><ele>600.0</ele><time>2026-04-08T17:49:15Z</time></trkpt><trkpt lat="44.35542811897017" lon="7.512859843792106"><ele>600.5</ele><time>2026-04-08T17:49:16Z</time></trkpt><trkpt lat="44.35521402778022" lon="7.512640414793451"><ele>601.0</ele><time>2026-04-08T17:49:17Z</time></trkpt><trkpt lat="44.35501161326734" lon="7.51243471720465"><ele>601.0</ele><time>2026-04-08T17:49:18Z</time></trkpt><trkpt lat="44.354838590746056" lon="7.512259008207752"><ele>601.0</ele><time>2026-04-08T17:49:19Z</time></trkpt><trkpt lat="44.354686306910786" lon="7.512102597459996"><ele>601.0</ele><time>2026-04-08T17:49:20Z</time></trkpt><trkpt lat="44.354549264969684" lon="7.511961159162537"><ele>601.0</ele><time>2026-04-08T17:49:21Z</time></trkpt><trkpt lat="44.35442752319876" lon="7.511830979580273"><ele>601.0</ele><time>2026-04-08T17:49:22Z</time></trkpt><trkpt lat="44.354320224920905" lon="7.511708492416106"><ele>601.0</ele><time>2026-04-08T17:49:23Z</time></trkpt><trkpt lat="44.35422893438818" lon="7.511582546349089"><ele>601.0</ele><time>2026-04-08T17:49:24Z</time></trkpt><trkpt lat="44.354160359052614" lon="7.511466678687359"><ele>601.0</ele><time>2026-04-08T17:49:25Z</time></trkpt><trkpt lat="44.35411360893068" lon="7.511363910688394"><ele>601.0</ele><time>2026-04-08T17:49:26Z</time></trkpt><trkpt lat="44.35409043782028" lon="7.511270637431671"><ele>601.0</ele><time>2026-04-08T17:49:27Z</time></trkpt><trkpt lat="44.35407515320518" lon="7.5111453264476795"><ele>601.0</ele><time>2026-04-08T17:49:28Z</time></trkpt><trkpt lat="44.3540528191857" lon="7.511016396879655"><ele>601.0</ele><time>2026-04-08T17:49:29Z</time></trkpt><trkpt lat="44.35399064117478" lon="7.510898869239198"><ele>601.0</ele><time>2026-04-08T17:49:30Z</time></trkpt><trkpt lat="44.353913181121534" lon="7.510812291319169"><ele>601.6</ele><time>2026-04-08T17:49:31Z</time></trkpt><trkpt lat="44.353827794177995" lon="7.510771904690536"><ele>602.2</ele><time>2026-04-08T17:49:32Z</time></trkpt><trkpt lat="44.353721738675794" lon="7.510763871402218"><ele>602.8</ele><time>2026-04-08T17:49:33Z</time></trkpt><trkpt lat="44.353603560418044" lon="7.510778508126539"><ele>603.4</ele><time>2026-04-08T17:49:34Z</time></trkpt><trkpt lat="44.35348223087579" lon="7.510793534350777"><ele>604.0</ele><time>2026-04-08T17:49:35Z</time></trkpt><trkpt lat="44.35336262033302" lon="7.510742846482296"><ele>604.0</ele><time>2026-04-08T17:49:36Z</time></trkpt><trkpt lat="44.35324175569592" lon="7.510629048524055"><ele>604.0</ele><time>2026-04-08T17:49:37Z</time></trkpt><trkpt lat="44.35310090503484" lon="7.510470184256387"><ele>604.0</ele><time>2026-04-08T17:49:38Z</time></trkpt><trkpt lat="44.35294370456877" lon="7.510299844418872"><ele>604.5</ele><time>2026-04-08T17:49:39Z</time></trkpt><trkpt lat="44.352759221962295" lon="7.510128146299957"><ele>605.0</ele><time>2026-04-08T17:49:40Z</time></trkpt><trkpt lat="44.35255779540276" lon="7.509926319174553"><ele>605.0</ele><time>2026-04-08T17:49:41Z</time></trkpt><trkpt lat="44.35234631669558" lon="7.509709413490703"><ele>605.0</ele><time>2026-04-08T17:49:42Z</time></trkpt><trkpt lat="44.35213672786626" lon="7.509498164468453"><ele>605.5</ele><time>2026-04-08T17:49:43Z</time></trkpt><trkpt lat="44.35193447986346" lon="7.50929139050186"><ele>606.0</ele><time>2026-04-08T17:49:44Z</time></trkpt><trkpt lat="44.35173869814819" lon="7.509090909312596"><ele>606.0</ele><time>2026-04-08T17:49:45Z</time></trkpt><trkpt lat="44.35154442696718" lon="7.508897139053539"><ele>606.0</ele><time>2026-04-08T17:49:46Z</time></trkpt><trkpt lat="44.35136050938687" lon="7.508707556781809"><ele>606.3333333333334</ele><time>2026-04-08T17:49:47Z</time></trkpt><trkpt lat="44.351194396794234" lon="7.5085366320455895"><ele>606.6666666666667</ele><time>2026-04-08T17:49:48Z</time></trkpt><trkpt lat="44.35104707876492" lon="7.508380809510432"><ele>607.0</ele><time>2026-04-08T17:49:49Z</time></trkpt><trkpt lat="44.35091198816316" lon="7.5082405393774625"><ele>607.0</ele><time>2026-04-08T17:49:50Z</time></trkpt><trkpt lat="44.350765643402575" lon="7.508092589041283"><ele>607.0</ele><time>2026-04-08T17:49:51Z</time></trkpt><trkpt lat="44.350610621443664" lon="7.507938195051443"><ele>607.0</ele><time>2026-04-08T17:49:52Z</time></trkpt><trkpt lat="44.35045287116738" lon="7.5077803211431835"><ele>608.3333333333334</ele><time>2026-04-08T17:49:53Z</time></trkpt><trkpt lat="44.350293729816094" lon="7.507617233434572"><ele>609.6666666666666</ele><time>2026-04-08T17:49:54Z</time></trkpt><trkpt lat="44.3501570153664" lon="7.507449475077744"><ele>611.0</ele><time>2026-04-08T17:49:55Z</time></trkpt><trkpt lat="44.35001635867424" lon="7.507333959664479"><ele>611.0</ele><time>2026-04-08T17:49:56Z</time></trkpt><trkpt lat="44.349886240379526" lon="7.507198209185723"><ele>611.0</ele><time>2026-04-08T17:49:57Z</time></trkpt><trkpt lat="44.349749365623765" lon="7.5070326900760405"><ele>611.0</ele><time>2026-04-08T17:49:58Z</time></trkpt><trkpt lat="44.34958842745273" lon="7.50686862260946"><ele>610.6666666666666</ele><time>2026-04-08T17:49:59Z</time></trkpt><trkpt lat="44.3494333892444" lon="7.506710102375463"><ele>610.3333333333334</ele><time>2026-04-08T17:50:00Z</time></trkpt><trkpt lat="44.349286563417515" lon="7.506559898488599"><ele>610.0</ele><time>2026-04-08T17:50:01Z</time></trkpt><trkpt lat="44.34914176313192" lon="7.506409436360369"><ele>610.0</ele><time>2026-04-08T17:50:02Z</time></trkpt><trkpt lat="44.34899389169434" lon="7.5062584548718"><ele>610.0</ele><time>2026-04-08T17:50:03Z</time></trkpt><trkpt lat="44.34884106357131" lon="7.506130479618679"><ele>610.0</ele><time>2026-04-08T17:50:04Z</time></trkpt><trkpt lat="44.34871558709081" lon="7.505973192672692"><ele>610.6666666666667</ele><time>2026-04-08T17:50:05Z</time></trkpt><trkpt lat="44.34857316597458" lon="7.505828240353468"><ele>611.3333333333334</ele><time>2026-04-08T17:50:06Z</time></trkpt><trkpt lat="44.34843099378995" lon="7.505707175560684"><ele>612.0</ele><time>2026-04-08T17:50:07Z</time></trkpt><trkpt lat="44.3483138495738" lon="7.50558656643375"><ele>612.0</ele><time>2026-04-08T17:50:08Z</time></trkpt><trkpt lat="44.34820268631711" lon="7.505479515304162"><ele>612.0</ele><time>2026-04-08T17:50:09Z</time></trkpt><trkpt lat="44.348092381236214" lon="7.505386789916147"><ele>612.0</ele><time>2026-04-08T17:50:10Z</time></trkpt><trkpt lat="44.34799268112312" lon="7.505289456846265"><ele>612.0</ele><time>2026-04-08T17:50:11Z</time></trkpt><trkpt lat="44.347910803452606" lon="7.505185986861723"><ele>612.2</ele><time>2026-04-08T17:50:12Z</time></trkpt><trkpt lat="44.34783892397066" lon="7.50506416318562"><ele>612.4000000000001</ele><time>2026-04-08T17:50:13Z</time></trkpt><trkpt lat="44.34777627855318" lon="7.504926315863783"><ele>612.5999999999999</ele><time>2026-04-08T17:50:14Z</time></trkpt><trkpt lat="44.34772251255836" lon="7.504808824931599"><ele>612.8</ele><time>2026-04-08T17:50:15Z</time></trkpt><trkpt lat="44.3476487474322" lon="7.504725660847227"><ele>613.0</ele><time>2026-04-08T17:50:16Z</time></trkpt><trkpt lat="44.34754566394624" lon="7.50466555949939"><ele>613.0</ele><time>2026-04-08T17:50:17Z</time></trkpt><trkpt lat="44.34742530669307" lon="7.504614990233951"><ele>613.0</ele><time>2026-04-08T17:50:18Z</time></trkpt><trkpt lat="44.347298630179324" lon="7.504545649495033"><ele>613.0</ele><time>2026-04-08T17:50:19Z</time></trkpt><trkpt lat="44.347176534112094" lon="7.504438262190716"><ele>613.0</ele><time>2026-04-08T17:50:20Z</time></trkpt><trkpt lat="44.34702773449136" lon="7.504277449393809"><ele>613.6666666666667</ele><time>2026-04-08T17:50:21Z</time></trkpt><trkpt lat="44.346866325196935" lon="7.504083234674618"><ele>614.3333333333334</ele><time>2026-04-08T17:50:22Z</time></trkpt><trkpt lat="44.346697185745526" lon="7.50389762579686"><ele>615.0</ele><time>2026-04-08T17:50:23Z</time></trkpt><trkpt lat="44.34652582025259" lon="7.503722505595812"><ele>614.6666666666666</ele><time>2026-04-08T17:50:24Z</time></trkpt><trkpt lat="44.34635561340262" lon="7.503553342293619"><ele>614.3333333333333</ele><time>2026-04-08T17:50:25Z</time></trkpt><trkpt lat="44.34617874745739" lon="7.50337764569197"><ele>614.0</ele><time>2026-04-08T17:50:26Z</time></trkpt><trkpt lat="44.34599316274646" lon="7.503190252777378"><ele>614.0</ele><time>2026-04-08T17:50:27Z</time></trkpt><trkpt lat="44.3458274993122" lon="7.5030239878163325"><ele>614.0</ele><time>2026-04-08T17:50:28Z</time></trkpt><trkpt lat="44.34566459030755" lon="7.502858101659658"><ele>614.0</ele><time>2026-04-08T17:50:29Z</time></trkpt><trkpt lat="44.34550235599616" lon="7.502689606480638"><ele>614.6666666666666</ele><time>2026-04-08T17:50:30Z</time></trkpt><trkpt lat="44.34533396559212" lon="7.50252218343068"><ele>615.3333333333334</ele><time>2026-04-08T17:50:31Z</time></trkpt><trkpt lat="44.34516259567806" lon="7.502353538406956"><ele>616.0</ele><time>2026-04-08T17:50:32Z</time></trkpt><trkpt lat="44.34498652865904" lon="7.502177520688249"><ele>616.5</ele><time>2026-04-08T17:50:33Z</time></trkpt><trkpt lat="44.344802291089096" lon="7.501989617198145"><ele>617.0</ele><time>2026-04-08T17:50:34Z</time></trkpt><trkpt lat="44.34461734853123" lon="7.5017968606421865"><ele>618.0</ele><time>2026-04-08T17:50:35Z</time></trkpt><trkpt lat="44.34442793507654" lon="7.501609046486412"><ele>619.0</ele><time>2026-04-08T17:50:36Z</time></trkpt><trkpt lat="44.344224337038916" lon="7.501407080168385"><ele>619.0</ele><time>2026-04-08T17:50:37Z</time></trkpt><trkpt lat="44.34402443818892" lon="7.501195631293433"><ele>619.0</ele><time>2026-04-08T17:50:38Z</time></trkpt><trkpt lat="44.34382967308614" lon="7.5009939180523375"><ele>619.0</ele><time>2026-04-08T17:50:39Z</time></trkpt><trkpt lat="44.343647048580415" lon="7.500806064158101"><ele>619.0</ele><time>2026-04-08T17:50:40Z</time></trkpt><trkpt lat="44.34346493737172" lon="7.500621402874554"><ele>619.0</ele><time>2026-04-08T17:50:41Z</time></trkpt><trkpt lat="44.34327959850446" lon="7.500436749855424"><ele>619.0</ele><time>2026-04-08T17:50:42Z</time></trkpt><trkpt lat="44.34311782335927" lon="7.500243240731341"><ele>619.0</ele><time>2026-04-08T17:50:43Z</time></trkpt><trkpt lat="44.34296433991562" lon="7.500086525419024"><ele>620.0</ele><time>2026-04-08T17:50:44Z</time></trkpt><trkpt lat="44.34282029709388" lon="7.49996294465897"><ele>621.0</ele><time>2026-04-08T17:50:45Z</time></trkpt><trkpt lat="44.34269829442934" lon="7.499835578456766"><ele>622.0</ele><time>2026-04-08T17:50:46Z</time></trkpt><trkpt lat="44.34258034008805" lon="7.4997155228628785"><ele>622.0</ele><time>2026-04-08T17:50:47Z</time></trkpt><trkpt lat="44.34247240412313" lon="7.499606039471698"><ele>622.0</ele><time>2026-04-08T17:50:48Z</time></trkpt><trkpt lat="44.342355993509585" lon="7.499486756670151"><ele>622.0</ele><time>2026-04-08T17:50:49Z</time></trkpt><trkpt lat="44.34224575414396" lon="7.499374630035862"><ele>622.0</ele><time>2026-04-08T17:50:50Z</time></trkpt><trkpt lat="44.34215091526961" lon="7.499250363388641"><ele>621.8000000000001</ele><time>2026-04-08T17:50:51Z</time></trkpt><trkpt lat="44.34204815864998" lon="7.499145628168888"><ele>621.6</ele><time>2026-04-08T17:50:52Z</time></trkpt><trkpt lat="44.341949246145134" lon="7.499071601389679"><ele>621.4000000000001</ele><time>2026-04-08T17:50:53Z</time></trkpt><trkpt lat="44.34186980142814" lon="7.498991400474261"><ele>621.2</ele><time>2026-04-08T17:50:54Z</time></trkpt><trkpt lat="44.34179725303807" lon="7.498913638466795"><ele>621.0</ele><time>2026-04-08T17:50:55Z</time></trkpt><trkpt lat="44.341728068350534" lon="7.498831475542793"><ele>621.0</ele><time>2026-04-08T17:50:56Z</time></trkpt><trkpt lat="44.341663717658925" lon="7.498762146764933"><ele>621.0</ele><time>2026-04-08T17:50:57Z</time></trkpt><trkpt lat="44.341609457667985" lon="7.4986963184967355"><ele>621.0</ele><time>2026-04-08T17:50:58Z</time></trkpt><trkpt lat="44.34152493840247" lon="7.498576588845308"><ele>621.0</ele><time>2026-04-08T17:51:00Z</time></trkpt><trkpt lat="44.341499461574465" lon="7.498486791066222"><ele>621.0</ele><time>2026-04-08T17:51:01Z</time></trkpt><trkpt lat="44.341493015197656" lon="7.498398541637519"><ele>621.0</ele><time>2026-04-08T17:51:02Z</time></trkpt><trkpt lat="44.3414181516022" lon="7.498287842842087"><ele>621.3333333333334</ele><time>2026-04-08T17:51:04Z</time></trkpt><trkpt lat="44.34135361615781" lon="7.498281481480781"><ele>621.6666666666666</ele><time>2026-04-08T17:51:05Z</time></trkpt><trkpt lat="44.34127754179381" lon="7.498287382273668"><ele>622.0</ele><time>2026-04-08T17:51:06Z</time></trkpt><trkpt lat="44.341194805489714" lon="7.49827372444273"><ele>622.3333333333333</ele><time>2026-04-08T17:51:07Z</time></trkpt><trkpt lat="44.34110404623847" lon="7.498220620139687"><ele>622.6666666666666</ele><time>2026-04-08T17:51:08Z</time></trkpt><trkpt lat="44.341012370918484" lon="7.498133514687423"><ele>623.0</ele><time>2026-04-08T17:51:09Z</time></trkpt><trkpt lat="44.340902258077215" lon="7.498015324101782"><ele>623.3333333333333</ele><time>2026-04-08T17:51:10Z</time></trkpt><trkpt lat="44.34076942149302" lon="7.497867287628897"><ele>623.6666666666666</ele><time>2026-04-08T17:51:11Z</time></trkpt><trkpt lat="44.34062539037118" lon="7.497719142587376"><ele>624.0</ele><time>2026-04-08T17:51:12Z</time></trkpt><trkpt lat="44.34048474144146" lon="7.497544396388829"><ele>624.3333333333334</ele><time>2026-04-08T17:51:13Z</time></trkpt><trkpt lat="44.34031852824302" lon="7.497399928906588"><ele>624.6666666666667</ele><time>2026-04-08T17:51:14Z</time></trkpt><trkpt lat="44.340164636452414" lon="7.497237407018948"><ele>625.0</ele><time>2026-04-08T17:51:15Z</time></trkpt><trkpt lat="44.34002297292764" lon="7.497097219862877"><ele>625.25</ele><time>2026-04-08T17:51:16Z</time></trkpt><trkpt lat="44.339906015316636" lon="7.49695026126175"><ele>625.5</ele><time>2026-04-08T17:51:17Z</time></trkpt><trkpt lat="44.339795782188475" lon="7.496837137683322"><ele>625.75</ele><time>2026-04-08T17:51:18Z</time></trkpt><trkpt lat="44.33968381257877" lon="7.496752016751659"><ele>626.0</ele><time>2026-04-08T17:51:19Z</time></trkpt><trkpt lat="44.33957885013003" lon="7.496640273355179"><ele>626.0</ele><time>2026-04-08T17:51:20Z</time></trkpt><trkpt lat="44.33946316300391" lon="7.496518087272406"><ele>626.0</ele><time>2026-04-08T17:51:21Z</time></trkpt><trkpt lat="44.33932052334705" lon="7.496375248968589"><ele>626.0</ele><time>2026-04-08T17:51:22Z</time></trkpt><trkpt lat="44.339163474002035" lon="7.496215106382564"><ele>626.0</ele><time>2026-04-08T17:51:23Z</time></trkpt><trkpt lat="44.33904016424862" lon="7.496085761792144"><ele>626.0</ele><time>2026-04-08T17:51:24Z</time></trkpt><trkpt lat="44.33892297155993" lon="7.495964127110608"><ele>626.0</ele><time>2026-04-08T17:51:25Z</time></trkpt><trkpt lat="44.338803606527165" lon="7.495840093735014"><ele>626.0</ele><time>2026-04-08T17:51:26Z</time></trkpt><trkpt lat="44.33869035255521" lon="7.495722507050229"><ele>626.6</ele><time>2026-04-08T17:51:27Z</time></trkpt><trkpt lat="44.33859932823895" lon="7.49562933013659"><ele>627.2</ele><time>2026-04-08T17:51:28Z</time></trkpt><trkpt lat="44.33851369638472" lon="7.495543165871739"><ele>627.8</ele><time>2026-04-08T17:51:29Z</time></trkpt><trkpt lat="44.33842592970043" lon="7.49545651085757"><ele>628.4</ele><time>2026-04-08T17:51:30Z</time></trkpt><trkpt lat="44.33833815058212" lon="7.495365234956567"><ele>629.0</ele><time>2026-04-08T17:51:31Z</time></trkpt><trkpt lat="44.33824374217405" lon="7.495263829211495"><ele>629.0</ele><time>2026-04-08T17:51:32Z</time></trkpt><trkpt lat="44.33815739332509" lon="7.495166583959226"><ele>629.0</ele><time>2026-04-08T17:51:33Z</time></trkpt><trkpt lat="44.338084908670005" lon="7.495098413910565"><ele>629.0</ele><time>2026-04-08T17:51:34Z</time></trkpt><trkpt lat="44.338033165773574" lon="7.495032796020758"><ele>629.0</ele><time>2026-04-08T17:51:35Z</time></trkpt><trkpt lat="44.33791854874764" lon="7.494814728146547"><ele>629.0</ele><time>2026-04-08T17:51:37Z</time></trkpt><trkpt lat="44.337871573923785" lon="7.494720629039935"><ele>629.0</ele><time>2026-04-08T17:51:38Z</time></trkpt><trkpt lat="44.337789155537095" lon="7.494670371988139"><ele>629.0</ele><time>2026-04-08T17:51:39Z</time></trkpt><trkpt lat="44.33768944112506" lon="7.494625999588565"><ele>629.0</ele><time>2026-04-08T17:51:40Z</time></trkpt><trkpt lat="44.337583900367726" lon="7.49455092141101"><ele>629.0</ele><time>2026-04-08T17:51:41Z</time></trkpt><trkpt lat="44.337480163590065" lon="7.494448146818646"><ele>629.2</ele><time>2026-04-08T17:51:42Z</time></trkpt><trkpt lat="44.337387270911606" lon="7.494350208770235"><ele>629.4</ele><time>2026-04-08T17:51:43Z</time></trkpt><trkpt lat="44.33730017746844" lon="7.494261939062433"><ele>629.6</ele><time>2026-04-08T17:51:44Z</time></trkpt><trkpt lat="44.33721527097434" lon="7.494180913062412"><ele>629.8</ele><time>2026-04-08T17:51:45Z</time></trkpt><trkpt lat="44.33714012851825" lon="7.4941038287990365"><ele>630.0</ele><time>2026-04-08T17:51:46Z</time></trkpt><trkpt lat="44.33707809241828" lon="7.4940375279102165"><ele>630.0</ele><time>2026-04-08T17:51:47Z</time></trkpt><trkpt lat="44.33702156997998" lon="7.493935779912061"><ele>630.0</ele><time>2026-04-08T17:51:49Z</time></trkpt><trkpt lat="44.33711705681508" lon="7.493852306780164"><ele>630.0</ele><time>2026-04-08T17:51:51Z</time></trkpt><trkpt lat="44.33712931939787" lon="7.493760387517417"><ele>630.0</ele><time>2026-04-08T17:51:52Z</time></trkpt><trkpt lat="44.337141490947836" lon="7.493663181095548"><ele>630.0</ele><time>2026-04-08T17:51:53Z</time></trkpt><trkpt lat="44.33715346121064" lon="7.493557770021751"><ele>630.0</ele><time>2026-04-08T17:51:54Z</time></trkpt><trkpt lat="44.33716233210207" lon="7.493465444081733"><ele>630.2</ele><time>2026-04-08T17:51:55Z</time></trkpt><trkpt lat="44.33715840424264" lon="7.493320837293347"><ele>630.4</ele><time>2026-04-08T17:51:57Z</time></trkpt><trkpt lat="44.33716277504806" lon="7.493201333918914"><ele>630.6</ele><time>2026-04-08T17:52:36Z</time></trkpt><trkpt lat="44.337175148610136" lon="7.493110321023267"><ele>630.8</ele><time>2026-04-08T17:52:37Z</time></trkpt><trkpt lat="44.337183650830326" lon="7.493008243476999"><ele>631.0</ele><time>2026-04-08T17:52:39Z</time></trkpt><trkpt lat="44.337018134469105" lon="7.492975561053298"><ele>631.0</ele><time>2026-04-08T17:52:42Z</time></trkpt><trkpt lat="44.33691001643665" lon="7.492990474445682"><ele>631.0</ele><time>2026-04-08T17:52:44Z</time></trkpt><trkpt lat="44.33683210433341" lon="7.4929942689208415"><ele>631.0</ele><time>2026-04-08T17:52:46Z</time></trkpt></trkseg></trk></gpx>